Detalle de ayer:

16/8/18
Time         Wind Dir  Wind Gust   Humidity       Temp   Tot Rain Wind Chill Heat Index  Dew Point   Barom SL Temp Out H Temp Out L  DailyRain   HourRain   24HrRain   RainRate   Wind Run   Deg Heat   Deg Cool  MonthRain
                          km/hr          %         C         mm         C         C         C         mb         C         C         mm         mm         mm      mm/hr         km         C         C         mm
0:00              222        8.0         87       19.5      461.6       19.5       22.4       17.3     1015.1       19.5       19.5        0.0        0.0        0.0       0.00      163.9       0.00       2.26        0.0
0:02              222        8.0         87       19.5      461.6       19.5       22.4       17.3     1015.1       19.5       19.5        0.0        0.0        0.0       0.00        0.2       0.00       0.00        0.0
0:04              222        8.0         87       19.5      461.6       19.5       22.4       17.3     1015.1       19.5       19.5        0.0        0.0        0.0       0.00        0.4       0.00       0.00        0.0
0:05              221        9.7         87       19.5      461.6       19.5       22.4       17.3     1015.1       19.5       19.5        0.0        0.0        0.0       0.00        0.6       0.00       0.00        0.0
0:08              221        8.0         87       19.5      461.6       18.8       22.4       17.3     1015.1       19.5       19.5        0.0        0.0        0.0       0.00        0.8       0.00       0.00        0.0
0:10              221        8.0         87       19.5      461.6       19.5       22.4       17.3     1015.1       19.5       19.5        0.0        0.0        0.0       0.00        1.0       0.00       0.00        0.0
0:11              217        8.0         87       19.5      461.6       19.5       22.4       17.3     1015.1       19.5       19.5        0.0        0.0        0.0       0.00        1.3       0.00       0.00        0.0
0:14              218        6.4         87       19.5      461.6       19.5       22.4       17.3     1015.1       19.5       19.5        0.0        0.0        0.0       0.00        1.5       0.00       0.00        0.0
0:16              219       11.3         87       19.6      461.6       19.6       22.4       17.3     1015.1       19.6       19.5        0.0        0.0        0.0       0.00        1.7       0.00       0.00        0.0
0:18              219        6.4         87       19.6      461.6       19.6       22.4       17.3     1015.1       19.6       19.5        0.0        0.0        0.0       0.00        1.8       0.00       0.00        0.0
0:20              219        4.8         87       19.6      461.6       19.6       22.4       17.3     1015.2       19.6       19.5        0.0        0.0        0.0       0.00        1.9       0.00       0.00        0.0
0:21              219        6.4         87       19.6      461.6       19.6       22.4       17.3     1015.1       19.6       19.5        0.0        0.0        0.0       0.00        2.1       0.00       0.00        0.0
0:24              205       11.3         87       19.6      461.6       18.9       22.5       17.4     1015.2       19.6       19.5        0.0        0.0        0.0       0.00        2.3       0.00       0.00        0.0
0:26              202        9.7         87       19.6      461.6       18.9       22.5       17.4     1015.2       19.6       19.5        0.0        0.0        0.0       0.00        2.5       0.00       0.00        0.0
0:28              202        9.7         87       19.7      461.6       18.4       22.6       17.4     1015.2       19.7       19.5        0.0        0.0        0.0       0.00        2.7       0.00       0.00        0.0
0:30              201        9.7         87       19.7      461.6       18.9       22.6       17.4     1015.2       19.7       19.5        0.0        0.0        0.0       0.00        2.9       0.00       0.00        0.0
0:32              207        9.7         87       19.7      461.6       18.4       22.6       17.4     1015.2       19.7       19.5        0.0        0.0        0.0       0.00        3.1       0.00       0.00        0.0
0:34              210       11.3         87       19.7      461.6       19.0       22.6       17.5     1015.2       19.7       19.5        0.0        0.0        0.0       0.00        3.4       0.00       0.00        0.0
0:36              211        8.0         87       19.7      461.6       19.7       22.6       17.5     1015.1       19.7       19.5        0.0        0.0        0.0       0.00        3.6       0.00       0.00        0.0
0:38              212        8.0         87       19.7      461.6       19.7       22.6       17.5     1015.1       19.7       19.5        0.0        0.0        0.0       0.00        3.8       0.00       0.00        0.0
0:40              215        8.0         87       19.8      461.6       19.8       22.7       17.6     1015.2       19.8       19.5        0.0        0.0        0.0       0.00        4.0       0.00       0.00        0.0
0:42              217        8.0         87       19.8      461.6       19.8       22.7       17.6     1015.2       19.8       19.5        0.0        0.0        0.0       0.00        4.2       0.00       0.00        0.0
0:44              218        6.4         87       19.8      461.6       19.8       22.7       17.6     1015.1       19.8       19.5        0.0        0.0        0.0       0.00        4.4       0.00       0.00        0.0
0:46              217        3.2         87       19.8      461.6       19.8       22.7       17.6     1015.2       19.8       19.5        0.0        0.0        0.0       0.00        4.5       0.00       0.00        0.0
0:48              217        8.0         87       19.8      461.6       19.1       22.7       17.6     1015.2       19.8       19.5        0.0        0.0        0.0       0.00        4.7       0.00       0.00        0.0
0:49              216        4.8         87       19.8      461.6       19.8       22.7       17.6     1015.3       19.8       19.5        0.0        0.0        0.0       0.00        4.8       0.00       0.00        0.0
0:52              216        6.4         87       19.8      461.6       19.8       22.7       17.6     1015.2       19.8       19.5        0.0        0.0        0.0       0.00        4.9       0.00       0.00        0.0
0:54              215        4.8         87       19.9      461.6       19.9       22.8       17.7     1015.3       19.9       19.5        0.0        0.0        0.0       0.00        5.0       0.00       0.00        0.0
0:55              215        6.4         87       19.9      461.6       19.9       22.8       17.7     1015.2       19.9       19.5        0.0        0.0        0.0       0.00        5.1       0.00       0.00        0.0
0:58              215        6.4         87       19.9      461.6       19.9       22.8       17.7     1015.2       19.9       19.5        0.0        0.0        0.0       0.00        5.2       0.00       0.00        0.0
1:00              215        6.4         86       19.9      461.6       19.9       22.8       17.5     1015.3       19.9       19.5        0.0        0.0        0.0       0.00        5.4       0.00       0.00        0.0
1:02              215        4.8         86       19.9      461.6       19.9       22.8       17.5     1015.2       19.9       19.5        0.0        0.0        0.0       0.00        5.4       0.00       0.00        0.0
1:03              215        4.8         87       20.0      461.6       20.0       22.9       17.8     1015.3       20.0       19.5        0.0        0.0        0.0       0.00        5.5       0.00       0.00        0.0
1:06              215        0.0         86       20.0      461.6       20.0       22.8       17.6     1015.2       20.0       19.5        0.0        0.0        0.0       0.00        5.7       0.00       0.00        0.0
1:08              215        0.0         86       20.0      461.6       20.0       22.8       17.6     1015.3       20.0       19.5        0.0        0.0        0.0       0.00        5.7       0.00       0.00        0.0
1:10              215        8.0         86       20.0      461.6       19.3       22.8       17.6     1015.3       20.0       19.5        0.0        0.0        0.0       0.00        5.7       0.00       0.00        0.0
1:12              215        6.4         86       20.0      461.6       20.0       22.8       17.6     1015.3       20.0       19.5        0.0        0.0        0.0       0.00        5.9       0.00       0.00        0.0
1:14              215        8.0         86       20.0      461.6       20.0       22.8       17.6     1015.4       20.0       19.5        0.0        0.0        0.0       0.00        6.1       0.00       0.00        0.0
1:16              213        4.8         86       20.0      461.6       20.0       22.8       17.6     1015.4       20.0       19.5        0.0        0.0        0.0       0.00        6.2       0.00       0.00        0.0
1:18              213        9.7         86       20.0      461.6       20.0       22.8       17.6     1015.4       20.0       19.5        0.0        0.0        0.0       0.00        6.4       0.00       0.00        0.0
1:20              213        6.4         85       20.0      461.6       20.0       22.7       17.4     1015.5       20.0       19.5        0.0        0.0        0.0       0.00        6.6       0.00       0.00        0.0
1:22              211        8.0         85       20.0      461.6       20.0       22.7       17.4     1015.4       20.0       19.5        0.0        0.0        0.0       0.00        6.8       0.00       0.00        0.0
1:24              211        4.8         85       20.0      461.6       20.0       22.7       17.4     1015.3       20.0       19.5        0.0        0.0        0.0       0.00        6.9       0.00       0.00        0.0
1:26              211        9.7         85       20.1      461.6       20.1       22.8       17.5     1015.3       20.1       19.5        0.0        0.0        0.0       0.00        7.1       0.00       0.00        0.0
1:28              212       11.3         85       20.1      461.6       19.3       22.8       17.5     1015.3       20.1       19.5        0.0        0.0        0.0       0.00        7.3       0.00       0.00        0.0
1:30              213        4.8         85       20.0      461.6       20.0       22.7       17.4     1015.3       20.1       19.5        0.0        0.0        0.0       0.00        7.5       0.00       0.00        0.0
1:32              213        4.8         84       20.0      461.6       20.0       22.7       17.2     1015.4       20.1       19.5        0.0        0.0        0.0       0.00        7.7       0.00       0.00        0.0
1:33              214        4.8         84       20.0      461.6       20.0       22.7       17.2     1015.5       20.1       19.5        0.0        0.0        0.0       0.00        7.8       0.00       0.00        0.0
1:36              213        9.7         84       20.1      461.6       18.9       22.7       17.3     1015.5       20.1       19.5        0.0        0.0        0.0       0.00        8.0       0.00       0.00        0.0
1:37              213        8.0         84       20.1      461.6       20.1       22.7       17.3     1015.5       20.1       19.5        0.0        0.0        0.0       0.00        8.1       0.00       0.00        0.0
1:40              203        4.8         84       20.1      461.6       20.1       22.7       17.3     1015.5       20.1       19.5        0.0        0.0        0.0       0.00        8.3       0.00       0.00        0.0
1:42              205        8.0         84       20.1      461.6       19.3       22.7       17.3     1015.4       20.1       19.5        0.0        0.0        0.0       0.00        8.5       0.00       0.00        0.0
1:44              203        8.0         84       20.0      461.6       20.0       22.7       17.2     1015.5       20.1       19.5        0.0        0.0        0.0       0.00        8.7       0.00       0.00        0.0
1:46              211        6.4         84       20.1      461.6       20.1       22.7       17.3     1015.3       20.1       19.5        0.0        0.0        0.0       0.00        8.9       0.00       0.00        0.0
1:48              211        6.4         84       20.1      461.6       20.1       22.7       17.3     1015.4       20.1       19.5        0.0        0.0        0.0       0.00        9.1       0.00       0.00        0.0
1:50              215       11.3         84       20.1      461.6       20.1       22.8       17.3     1015.4       20.1       19.5        0.0        0.0        0.0       0.00        9.3       0.00       0.00        0.0
1:52              210        6.4         84       20.1      461.6       20.1       22.8       17.3     1015.4       20.1       19.5        0.0        0.0        0.0       0.00        9.5       0.00       0.00        0.0
1:54              205        6.4         84       20.1      461.6       20.1       22.8       17.3     1015.4       20.1       19.5        0.0        0.0        0.0       0.00        9.7       0.00       0.00        0.0
1:56              205        6.4         84       20.1      461.6       20.1       22.8       17.3     1015.5       20.1       19.5        0.0        0.0        0.0       0.00        9.9       0.00       0.00        0.0
1:58              205        6.4         84       20.1      461.6       20.1       22.8       17.3     1015.5       20.1       19.5        0.0        0.0        0.0       0.00       10.1       0.00       0.00        0.0
2:00              202        8.0         84       20.1      461.6       20.1       22.8       17.3     1015.5       20.2       19.5        0.0        0.0        0.0       0.00       10.3       0.00       0.00        0.0
2:02              198        8.0         84       20.2      461.6       20.2       22.8       17.4     1015.5       20.2       19.5        0.0        0.0        0.0       0.00       10.5       0.00       0.00        0.0
2:03              197        8.0         84       20.2      461.6       20.2       22.8       17.4     1015.5       20.2       19.5        0.0        0.0        0.0       0.00       10.7       0.00       0.00        0.0
2:06              197        6.4         84       20.2      461.6       20.2       22.8       17.4     1015.4       20.2       19.5        0.0        0.0        0.0       0.00       10.9       0.00       0.00        0.0
2:08              197        6.4         84       20.2      461.6       20.2       22.8       17.4     1015.6       20.2       19.5        0.0        0.0        0.0       0.00       11.0       0.00       0.00        0.0
2:10              196        9.7         84       20.2      461.6       19.0       22.8       17.4     1015.5       20.2       19.5        0.0        0.0        0.0       0.00       11.2       0.00       0.00        0.0
2:12              194        4.8         84       20.2      461.6       20.2       22.8       17.4     1015.5       20.2       19.5        0.0        0.0        0.0       0.00       11.4       0.00       0.00        0.0
2:14              194        4.8         84       20.2      461.6       20.2       22.8       17.4     1015.5       20.2       19.5        0.0        0.0        0.0       0.00       11.5       0.00       0.00        0.0
2:16              194        0.0         84       20.2      461.6       20.2       22.8       17.4     1015.5       20.2       19.5        0.0        0.0        0.0       0.00       11.6       0.00       0.00        0.0
2:18              193        3.2         84       20.2      461.6       20.2       22.9       17.4     1015.5       20.2       19.5        0.0        0.0        0.0       0.00       11.7       0.00       0.00        0.0
2:19              193        3.2         84       20.2      461.6       20.2       22.9       17.4     1015.5       20.2       19.5        0.0        0.0        0.0       0.00       11.7       0.00       0.00        0.0
2:22              192        8.0         84       20.2      461.6       20.2       22.9       17.4     1015.5       20.2       19.5        0.0        0.0        0.0       0.00       11.9       0.00       0.00        0.0
2:24              190        8.0         84       20.2      461.6       20.2       22.9       17.4     1015.4       20.2       19.5        0.0        0.0        0.0       0.00       12.1       0.00       0.00        0.0
2:26              194        6.4         83       20.2      461.6       20.2       22.8       17.2     1015.4       20.2       19.5        0.0        0.0        0.0       0.00       12.3       0.00       0.00        0.0
2:28              192        6.4         83       20.2      461.6       20.2       22.8       17.2     1015.4       20.2       19.5        0.0        0.0        0.0       0.00       12.5       0.00       0.00        0.0
2:30              189        9.7         83       20.2      461.6       19.0       22.8       17.2     1015.5       20.2       19.5        0.0        0.0        0.0       0.00       12.7       0.00       0.00        0.0
2:31              188        6.4         83       20.2      461.6       20.2       22.8       17.2     1015.5       20.2       19.5        0.0        0.0        0.0       0.00       12.9       0.00       0.00        0.0
2:34              187        8.0         83       20.2      461.6       19.5       22.8       17.2     1015.5       20.2       19.5        0.0        0.0        0.0       0.00       13.1       0.00       0.00        0.0
2:36              184       11.3         82       20.3      461.6       19.6       22.8       17.1     1015.5       20.3       19.5        0.0        0.0        0.0       0.00       13.4       0.00       0.00        0.0
2:38              184        6.4         82       20.3      461.6       20.3       22.8       17.1     1015.5       20.3       19.5        0.0        0.0        0.0       0.00       13.6       0.00       0.00        0.0
2:40              182        9.7         82       20.3      461.6       19.6       22.8       17.1     1015.4       20.3       19.5        0.0        0.0        0.0       0.00       13.8       0.00       0.00        0.0
2:42              182        8.0         82       20.3      461.6       20.3       22.8       17.1     1015.5       20.3       19.5        0.0        0.0        0.0       0.00       14.0       0.00       0.00        0.0
2:44              182        6.4         82       20.3      461.6       20.3       22.8       17.1     1015.5       20.3       19.5        0.0        0.0        0.0       0.00       14.2       0.00       0.00        0.0
2:46              182        6.4         82       20.3      461.6       20.3       22.8       17.1     1015.6       20.3       19.5        0.0        0.0        0.0       0.00       14.4       0.00       0.00        0.0
2:48              181       12.9         82       20.3      461.6       19.6       22.8       17.1     1015.5       20.3       19.5        0.0        0.0        0.0       0.00       14.6       0.00       0.00        0.0
2:49              180        9.7         82       20.3      461.6       20.3       22.8       17.1     1015.4       20.3       19.5        0.0        0.0        0.0       0.00       14.8       0.00       0.00        0.0
2:52              179        9.7         82       20.3      461.6       20.3       22.8       17.1     1015.4       20.3       19.5        0.0        0.0        0.0       0.00       15.1       0.00       0.00        0.0
2:54              180        8.0         82       20.3      461.6       20.3       22.8       17.2     1015.5       20.3       19.5        0.0        0.0        0.0       0.00       15.3       0.00       0.00        0.0
2:56              178       12.9         82       20.3      461.6       19.6       22.8       17.1     1015.4       20.3       19.5        0.0        0.0        0.0       0.00       15.5       0.00       0.00        0.0
2:58              178        9.7         82       20.3      461.6       20.3       22.8       17.1     1015.5       20.3       19.5        0.0        0.0        0.0       0.00       15.7       0.00       0.00        0.0
3:00              178        8.0         82       20.3      461.6       20.3       22.8       17.2     1015.4       20.3       19.5        0.0        0.0        0.0       0.00       16.0       0.00       0.00        0.0
3:02              178        4.8         82       20.3      461.6       20.3       22.8       17.2     1015.3       20.3       19.5        0.0        0.0        0.0       0.00       16.1       0.00       0.00        0.0
3:04              178       11.3         82       20.3      461.6       19.6       22.8       17.2     1015.3       20.3       19.5        0.0        0.0        0.0       0.00       16.4       0.00       0.00        0.0
3:06              178        9.7         82       20.3      461.6       20.3       22.8       17.2     1015.2       20.3       19.5        0.0        0.0        0.0       0.00       16.6       0.00       0.00        0.0
3:08              178        8.0         82       20.3      461.6       20.3       22.8       17.2     1015.3       20.3       19.5        0.0        0.0        0.0       0.00       16.8       0.00       0.00        0.0
3:10              179        8.0         82       20.3      461.6       19.6       22.8       17.1     1015.3       20.3       19.5        0.0        0.0        0.0       0.00       17.0       0.00       0.00        0.0
3:12              180        8.0         82       20.3      461.6       19.6       22.8       17.1     1015.2       20.3       19.5        0.0        0.0        0.0       0.00       17.3       0.00       0.00        0.0
3:14              180        8.0         82       20.3      461.6       20.3       22.8       17.1     1015.2       20.3       19.5        0.0        0.0        0.0       0.00       17.5       0.00       0.00        0.0
3:16              179        9.7         82       20.3      461.6       19.1       22.8       17.1     1015.2       20.3       19.5        0.0        0.0        0.0       0.00       17.7       0.00       0.00        0.0
3:18              179        8.0         82       20.3      461.6       19.6       22.8       17.1     1015.2       20.3       19.5        0.0        0.0        0.0       0.00       18.0       0.00       0.00        0.0
3:19              180        9.7         83       20.3      461.6       19.1       22.9       17.3     1015.2       20.3       19.5        0.0        0.0        0.0       0.00       18.1       0.00       0.00        0.0
3:21              179        6.4         83       20.2      461.6       20.2       22.8       17.2     1015.2       20.3       19.5        0.0        0.0        0.0       0.00       18.4       0.00       0.00        0.0
3:24              179        6.4         83       20.2      461.6       20.2       22.8       17.2     1015.2       20.3       19.5        0.0        0.0        0.0       0.00       18.5       0.00       0.00        0.0
3:26              179        9.7         83       20.2      461.6       20.2       22.8       17.2     1015.2       20.3       19.5        0.0        0.0        0.0       0.00       18.8       0.00       0.00        0.0
3:28              179        6.4         83       20.2      461.6       20.2       22.8       17.2     1015.2       20.3       19.5        0.0        0.0        0.0       0.00       19.0       0.00       0.00        0.0
3:30              179        6.4         83       20.2      461.6       20.2       22.8       17.2     1015.2       20.3       19.5        0.0        0.0        0.0       0.00       19.1       0.00       0.00        0.0
3:32              180        6.4         83       20.2      461.6       20.2       22.8       17.2     1015.2       20.3       19.5        0.0        0.0        0.0       0.00       19.3       0.00       0.00        0.0
3:34              180        6.4         83       20.2      461.6       20.2       22.8       17.2     1015.2       20.3       19.5        0.0        0.0        0.0       0.00       19.4       0.00       0.00        0.0
3:36              180        8.0         83       20.2      461.6       20.2       22.8       17.2     1015.2       20.3       19.5        0.0        0.0        0.0       0.00       19.6       0.00       0.00        0.0
3:37              180        6.4         83       20.2      461.6       20.2       22.8       17.2     1015.2       20.3       19.5        0.0        0.0        0.0       0.00       19.8       0.00       0.00        0.0
3:40              180        0.0         82       20.2      461.6       20.2       22.7       17.1     1015.2       20.3       19.5        0.0        0.0        0.0       0.00       19.8       0.00       0.00        0.0
3:42              180        4.8         82       20.2      461.6       20.2       22.7       17.1     1015.2       20.3       19.5        0.0        0.0        0.0       0.00       19.9       0.00       0.00        0.0
3:43              180        0.0         82       20.2      461.6       20.2       22.7       17.1     1015.2       20.3       19.5        0.0        0.0        0.0       0.00       19.9       0.00       0.00        0.0
3:46              180        6.4         82       20.2      461.6       20.2       22.7       17.1     1015.1       20.3       19.5        0.0        0.0        0.0       0.00       20.0       0.00       0.00        0.0
3:48              180        3.2         82       20.2      461.6       20.2       22.7       17.0     1015.1       20.3       19.5        0.0        0.0        0.0       0.00       20.1       0.00       0.00        0.0
3:50              180        6.4         82       20.2      461.6       20.2       22.7       17.0     1015.2       20.3       19.5        0.0        0.0        0.0       0.00       20.2       0.00       0.00        0.0
3:52              180        1.6         82       20.2      461.6       20.2       22.7       17.0     1015.2       20.3       19.5        0.0        0.0        0.0       0.00       20.3       0.00       0.00        0.0
3:54              180        0.0         82       20.2      461.6       20.2       22.7       17.1     1015.2       20.3       19.5        0.0        0.0        0.0       0.00       20.3       0.00       0.00        0.0
3:56              180        0.0         82       20.2      461.6       20.2       22.7       17.1     1015.2       20.3       19.5        0.0        0.0        0.0       0.00       20.3       0.00       0.00        0.0
3:58              180        0.0         82       20.2      461.6       20.2       22.7       17.1     1015.2       20.3       19.5        0.0        0.0        0.0       0.00       20.3       0.00       0.00        0.0
4:00              180        0.0         82       20.2      461.6       20.2       22.7       17.1     1015.2       20.3       19.5        0.0        0.0        0.0       0.00       20.3       0.00       0.00        0.0
4:01              180        0.0         82       20.2      461.6       20.2       22.7       17.1     1015.2       20.3       19.5        0.0        0.0        0.0       0.00       20.3       0.00       0.00        0.0
4:04              180        0.0         82       20.2      461.6       20.2       22.7       17.1     1015.2       20.3       19.5        0.0        0.0        0.0       0.00       20.3       0.00       0.00        0.0
4:06              180        0.0         82       20.2      461.6       20.2       22.7       17.1     1015.2       20.3       19.5        0.0        0.0        0.0       0.00       20.3       0.00       0.00        0.0
4:08              180        8.0         82       20.2      461.6       20.2       22.7       17.1     1015.2       20.3       19.5        0.0        0.0        0.0       0.00       20.4       0.00       0.00        0.0
4:10              180        4.8         82       20.2      461.6       20.2       22.7       17.1     1015.2       20.3       19.5        0.0        0.0        0.0       0.00       20.6       0.00       0.00        0.0
4:11              180        4.8         82       20.2      461.6       20.2       22.7       17.1     1015.2       20.3       19.5        0.0        0.0        0.0       0.00       20.7       0.00       0.00        0.0
4:14              180        4.8         81       20.2      461.6       20.2       22.6       16.9     1015.2       20.3       19.5        0.0        0.0        0.0       0.00       20.9       0.00       0.00        0.0
4:15              180        3.2         81       20.2      461.6       20.2       22.6       16.9     1015.1       20.3       19.5        0.0        0.0        0.0       0.00       20.9       0.00       0.00        0.0
4:18              180        4.8         81       20.2      461.6       20.2       22.6       16.9     1015.1       20.3       19.5        0.0        0.0        0.0       0.00       21.0       0.00       0.00        0.0
4:20              180        4.8         81       20.2      461.6       20.2       22.6       16.9     1015.1       20.3       19.5        0.0        0.0        0.0       0.00       21.1       0.00       0.00        0.0
4:22              180        3.2         81       20.3      461.6       20.3       22.7       16.9     1015.1       20.3       19.5        0.0        0.0        0.0       0.00       21.2       0.00       0.00        0.0
4:24              180        4.8         81       20.2      461.6       20.2       22.6       16.9     1015.1       20.3       19.5        0.0        0.0        0.0       0.00       21.3       0.00       0.00        0.0
4:26              180        0.0         81       20.2      461.6       20.2       22.6       16.9     1015.1       20.3       19.5        0.0        0.0        0.0       0.00       21.4       0.00       0.00        0.0
4:28              180        0.0         81       20.2      461.6       20.2       22.6       16.9     1015.1       20.3       19.5        0.0        0.0        0.0       0.00       21.4       0.00       0.00        0.0
4:30              180        0.0         81       20.3      461.6       20.3       22.7       16.9     1015.2       20.3       19.5        0.0        0.0        0.0       0.00       21.4       0.00       0.00        0.0
4:32              180        3.2         81       20.3      461.6       20.3       22.7       16.9     1015.1       20.3       19.5        0.0        0.0        0.0       0.00       21.5       0.00       0.00        0.0
4:34              180        3.2         81       20.3      461.6       20.3       22.7       16.9     1015.1       20.3       19.5        0.0        0.0        0.0       0.00       21.6       0.00       0.00        0.0
4:35              180        0.0         81       20.3      461.6       20.3       22.7       16.9     1015.2       20.3       19.5        0.0        0.0        0.0       0.00       21.6       0.00       0.00        0.0
4:38              180        1.6         81       20.3      461.6       20.3       22.7       16.9     1015.1       20.3       19.5        0.0        0.0        0.0       0.00       21.6       0.00       0.00        0.0
4:39              180        3.2         81       20.3      461.6       20.3       22.7       16.9     1015.2       20.3       19.5        0.0        0.0        0.0       0.00       21.7       0.00       0.00        0.0
4:42              180        1.6         81       20.3      461.6       20.3       22.7       16.9     1015.3       20.3       19.5        0.0        0.0        0.0       0.00       21.8       0.00       0.00        0.0
4:44              180        3.2         81       20.3      461.6       20.3       22.8       17.0     1015.2       20.3       19.5        0.0        0.0        0.0       0.00       21.9       0.00       0.00        0.0
4:46              180        3.2         81       20.3      461.6       20.3       22.8       17.0     1015.3       20.3       19.5        0.0        0.0        0.0       0.00       22.0       0.00       0.00        0.0
4:48              180        3.2         81       20.3      461.6       20.3       22.8       17.0     1015.2       20.3       19.5        0.0        0.0        0.0       0.00       22.1       0.00       0.00        0.0
4:50              180        4.8         81       20.3      461.6       20.3       22.8       17.0     1015.3       20.3       19.5        0.0        0.0        0.0       0.00       22.1       0.00       0.00        0.0
4:52              180        4.8         81       20.3      461.6       20.3       22.7       16.9     1015.3       20.3       19.5        0.0        0.0        0.0       0.00       22.3       0.00       0.00        0.0
4:53              180        3.2         81       20.3      461.6       20.3       22.7       16.9     1015.3       20.3       19.5        0.0        0.0        0.0       0.00       22.4       0.00       0.00        0.0
4:56              180        0.0         81       20.3      461.6       20.3       22.7       16.9     1015.3       20.3       19.5        0.0        0.0        0.0       0.00       22.4       0.00       0.00        0.0
4:57              180        0.0         81       20.3      461.6       20.3       22.7       16.9     1015.3       20.3       19.5        0.0        0.0        0.0       0.00       22.4       0.00       0.00        0.0
5:00              180        0.0         81       20.3      461.6       20.3       22.8       17.0     1015.4       20.3       19.5        0.0        0.0        0.0       0.00       22.4       0.00       0.00        0.0
5:02              180        0.0         81       20.3      461.6       20.3       22.8       17.0     1015.4       20.3       19.5        0.0        0.0        0.0       0.00       22.4       0.00       0.00        0.0
5:04              180        0.0         81       20.3      461.6       20.3       22.8       17.0     1015.4       20.3       19.5        0.0        0.0        0.0       0.00       22.4       0.00       0.00        0.0
5:06              180        0.0         81       20.3      461.6       20.3       22.8       17.0     1015.4       20.3       19.5        0.0        0.0        0.0       0.00       22.4       0.00       0.00        0.0
5:08              180        0.0         81       20.3      461.6       20.3       22.8       17.0     1015.4       20.3       19.5        0.0        0.0        0.0       0.00       22.4       0.00       0.00        0.0
5:09              180        0.0         81       20.3      461.6       20.3       22.8       17.0     1015.4       20.4       19.5        0.0        0.0        0.0       0.00       22.4       0.00       0.00        0.0
5:12              180        0.0         81       20.4      461.6       20.4       22.8       17.0     1015.5       20.4       19.5        0.0        0.0        0.0       0.00       22.4       0.00       0.00        0.0
5:14              180        0.0         81       20.3      461.6       20.3       22.8       17.0     1015.4       20.4       19.5        0.0        0.0        0.0       0.00       22.4       0.00       0.00        0.0
5:16              180        0.0         81       20.3      461.6       20.3       22.8       17.0     1015.4       20.4       19.5        0.0        0.0        0.0       0.00       22.4       0.00       0.00        0.0
5:18              180        0.0         81       20.3      461.6       20.3       22.8       17.0     1015.5       20.4       19.5        0.0        0.0        0.0       0.00       22.4       0.00       0.00        0.0
5:20              180        0.0         81       20.3      461.6       20.3       22.8       17.0     1015.3       20.4       19.5        0.0        0.0        0.0       0.00       22.4       0.00       0.00        0.0
5:22              180        0.0         81       20.3      461.6       20.3       22.8       17.0     1015.3       20.4       19.5        0.0        0.0        0.0       0.00       22.4       0.00       0.00        0.0
5:24              180        0.0         81       20.3      461.6       20.3       22.8       17.0     1015.4       20.4       19.5        0.0        0.0        0.0       0.00       22.4       0.00       0.00        0.0
5:26              180        0.0         81       20.3      461.6       20.3       22.8       17.0     1015.4       20.4       19.5        0.0        0.0        0.0       0.00       22.4       0.00       0.00        0.0
5:28              180        0.0         81       20.3      461.6       20.3       22.8       17.0     1015.3       20.4       19.5        0.0        0.0        0.0       0.00       22.4       0.00       0.00        0.0
5:30              180        0.0         81       20.3      461.6       20.3       22.8       17.0     1015.4       20.4       19.5        0.0        0.0        0.0       0.00       22.4       0.00       0.00        0.0
5:32              180        0.0         81       20.3      461.6       20.3       22.8       17.0     1015.4       20.4       19.5        0.0        0.0        0.0       0.00       22.4       0.00       0.00        0.0
5:34              180        0.0         81       20.3      461.6       20.3       22.8       17.0     1015.4       20.4       19.5        0.0        0.0        0.0       0.00       22.4       0.00       0.00        0.0
5:36              180        0.0         81       20.3      461.6       20.3       22.8       17.0     1015.4       20.4       19.5        0.0        0.0        0.0       0.00       22.4       0.00       0.00        0.0
5:37              180        0.0         81       20.3      461.6       20.3       22.8       17.0     1015.3       20.4       19.5        0.0        0.0        0.0       0.00       22.4       0.00       0.00        0.0
5:40              180        0.0         81       20.3      461.6       20.3       22.8       17.0     1015.3       20.4       19.5        0.0        0.0        0.0       0.00       22.4       0.00       0.00        0.0
5:42              180        0.0         81       20.4      461.6       20.4       22.8       17.0     1015.4       20.4       19.5        0.0        0.0        0.0       0.00       22.4       0.00       0.00        0.0
5:44              180        0.0         81       20.4      461.6       20.4       22.8       17.0     1015.4       20.4       19.5        0.0        0.0        0.0       0.00       22.4       0.00       0.00        0.0
5:46              180        0.0         81       20.4      461.6       20.4       22.8       17.0     1015.3       20.4       19.5        0.0        0.0        0.0       0.00       22.4       0.00       0.00        0.0
5:48              180        0.0         81       20.4      461.6       20.4       22.8       17.0     1015.4       20.4       19.5        0.0        0.0        0.0       0.00       22.4       0.00       0.00        0.0
5:50              180        0.0         81       20.4      461.6       20.4       22.8       17.0     1015.3       20.4       19.5        0.0        0.0        0.0       0.00       22.4       0.00       0.00        0.0
5:51              180        0.0         81       20.4      461.6       20.4       22.8       17.0     1015.4       20.4       19.5        0.0        0.0        0.0       0.00       22.4       0.00       0.00        0.0
5:54              180        0.0         81       20.4      461.6       20.4       22.8       17.0     1015.4       20.4       19.5        0.0        0.0        0.0       0.00       22.4       0.00       0.00        0.0
5:56              180        0.0         81       20.4      461.6       20.4       22.8       17.0     1015.4       20.4       19.5        0.0        0.0        0.0       0.00       22.4       0.00       0.00        0.0
5:58              180        0.0         81       20.4      461.6       20.4       22.8       17.0     1015.4       20.4       19.5        0.0        0.0        0.0       0.00       22.4       0.00       0.00        0.0
6:00              180        0.0         81       20.4      461.6       20.4       22.8       17.0     1015.5       20.4       19.5        0.0        0.0        0.0       0.00       22.4       0.00       0.00        0.0
6:02              180        0.0         81       20.4      461.6       20.4       22.8       17.0     1015.4       20.4       19.5        0.0        0.0        0.0       0.00       22.4       0.00       0.00        0.0
6:03              180        0.0         80       20.4      461.6       20.4       22.7       16.8     1015.5       20.4       19.5        0.0        0.0        0.0       0.00       22.4       0.00       0.00        0.0
6:06              180        0.0         80       20.4      461.6       20.4       22.7       16.8     1015.4       20.4       19.5        0.0        0.0        0.0       0.00       22.4       0.00       0.00        0.0
6:08              180        0.0         81       20.4      461.6       20.4       22.8       17.0     1015.5       20.4       19.5        0.0        0.0        0.0       0.00       22.4       0.00       0.00        0.0
6:10              180        0.0         81       20.4      461.6       20.4       22.8       17.0     1015.5       20.4       19.5        0.0        0.0        0.0       0.00       22.4       0.00       0.00        0.0
6:11              180        0.0         81       20.4      461.6       20.4       22.8       17.0     1015.5       20.4       19.5        0.0        0.0        0.0       0.00       22.4       0.00       0.00        0.0
6:13              180        0.0         80       20.4      461.6       20.4       22.7       16.8     1015.5       20.4       19.5        0.0        0.0        0.0       0.00       22.4       0.00       0.00        0.0
6:16              180        0.0         80       20.4      461.6       20.4       22.8       16.9     1015.5       20.4       19.5        0.0        0.0        0.0       0.00       22.4       0.00       0.00        0.0
6:18              180        0.0         80       20.4      461.6       20.4       22.8       16.9     1015.5       20.4       19.5        0.0        0.0        0.0       0.00       22.4       0.00       0.00        0.0
6:19              180        0.0         80       20.4      461.6       20.4       22.8       16.9     1015.5       20.4       19.5        0.0        0.0        0.0       0.00       22.4       0.00       0.00        0.0
6:22              180        0.0         80       20.4      461.6       20.4       22.8       16.9     1015.5       20.4       19.5        0.0        0.0        0.0       0.00       22.4       0.00       0.00        0.0
6:24              180        0.0         80       20.4      461.6       20.4       22.8       16.9     1015.5       20.4       19.5        0.0        0.0        0.0       0.00       22.4       0.00       0.00        0.0
6:25              180        0.0         80       20.4      461.6       20.4       22.8       16.9     1015.5       20.4       19.5        0.0        0.0        0.0       0.00       22.4       0.00       0.00        0.0
6:28              180        0.0         80       20.5      461.6       20.5       22.8       16.9     1015.5       20.5       19.5        0.0        0.0        0.0       0.00       22.4       0.00       0.00        0.0
6:30              180        0.0         80       20.5      461.6       20.5       22.8       16.9     1015.6       20.5       19.5        0.0        0.0        0.0       0.00       22.4       0.00       0.00        0.0
6:32              180        0.0         80       20.5      461.6       20.5       22.8       16.9     1015.6       20.5       19.5        0.0        0.0        0.0       0.00       22.4       0.00       0.00        0.0
6:34              180        0.0         80       20.5      461.6       20.5       22.8       16.9     1015.6       20.5       19.5        0.0        0.0        0.0       0.00       22.4       0.00       0.00        0.0
6:36              180        0.0         80       20.5      461.6       20.5       22.8       16.9     1015.6       20.5       19.5        0.0        0.0        0.0       0.00       22.4       0.00       0.00        0.0
6:38              180        0.0         80       20.5      461.6       20.5       22.8       16.9     1015.6       20.5       19.5        0.0        0.0        0.0       0.00       22.4       0.00       0.00        0.0
6:40              180        0.0         80       20.5      461.6       20.5       22.8       16.9     1015.6       20.5       19.5        0.0        0.0        0.0       0.00       22.4       0.00       0.00        0.0
6:42              180        0.0         80       20.6      461.6       20.6       22.9       17.0     1015.6       20.6       19.5        0.0        0.0        0.0       0.00       22.4       0.00       0.00        0.0
6:44              180        0.0         80       20.6      461.6       20.6       22.9       17.0     1015.7       20.6       19.5        0.0        0.0        0.0       0.00       22.4       0.00       0.00        0.0
6:46              180        0.0         80       20.6      461.6       20.6       23.0       17.0     1015.6       20.6       19.5        0.0        0.0        0.0       0.00       22.4       0.00       0.00        0.0
6:48              180        0.0         79       20.6      461.6       20.6       22.9       16.8     1015.6       20.6       19.5        0.0        0.0        0.0       0.00       22.4       0.00       0.00        0.0
6:50              180        0.0         79       20.6      461.6       20.6       22.9       16.8     1015.5       20.6       19.5        0.0        0.0        0.0       0.00       22.4       0.00       0.00        0.0
6:52              180        0.0         79       20.6      461.6       20.6       22.9       16.8     1015.6       20.6       19.5        0.0        0.0        0.0       0.00       22.4       0.00       0.00        0.0
6:54              180        0.0         79       20.6      461.6       20.6       22.9       16.8     1015.7       20.6       19.5        0.0        0.0        0.0       0.00       22.4       0.00       0.00        0.0
6:55              180        0.0         79       20.6      461.6       20.6       22.9       16.8     1015.7       20.6       19.5        0.0        0.0        0.0       0.00       22.4       0.00       0.00        0.0
6:58              180        0.0         79       20.6      461.6       20.6       22.9       16.8     1015.7       20.6       19.5        0.0        0.0        0.0       0.00       22.4       0.00       0.00        0.0
7:00              180        0.0         79       20.7      461.6       20.7       22.9       16.9     1015.7       20.7       19.5        0.0        0.0        0.0       0.00       22.4       0.00       0.00        0.0
7:02              180        0.0         79       20.7      461.6       20.7       22.9       16.9     1015.7       20.7       19.5        0.0        0.0        0.0       0.00       22.4       0.00       0.00        0.0
7:04              180        0.0         79       20.7      461.6       20.7       22.9       16.9     1015.7       20.7       19.5        0.0        0.0        0.0       0.00       22.4       0.00       0.00        0.0
7:06              180        0.0         79       20.7      461.6       20.7       22.9       16.9     1015.6       20.7       19.5        0.0        0.0        0.0       0.00       22.4       0.00       0.00        0.0
7:08              180        0.0         79       20.7      461.6       20.7       23.0       17.0     1015.7       20.7       19.5        0.0        0.0        0.0       0.00       22.4       0.00       0.00        0.0
7:10              180        0.0         79       20.7      461.6       20.7       23.0       17.0     1015.7       20.7       19.5        0.0        0.0        0.0       0.00       22.4       0.00       0.00        0.0
7:12              180        0.0         79       20.7      461.6       20.7       23.0       17.0     1015.7       20.8       19.5        0.0        0.0        0.0       0.00       22.4       0.00       0.00        0.0
7:14              180        0.0         79       20.7      461.6       20.7       23.0       17.0     1015.7       20.8       19.5        0.0        0.0        0.0       0.00       22.4       0.00       0.00        0.0
7:16              180        0.0         79       20.8      461.6       20.8       23.1       17.0     1015.8       20.8       19.5        0.0        0.0        0.0       0.00       22.4       0.00       0.00        0.0
7:18              180        0.0         79       20.8      461.6       20.8       23.1       17.0     1015.8       20.8       19.5        0.0        0.0        0.0       0.00       22.4       0.00       0.00        0.0
7:20              180        0.0         79       20.8      461.6       20.8       23.1       17.0     1015.8       20.8       19.5        0.0        0.0        0.0       0.00       22.4       0.00       0.00        0.0
7:22              180        0.0         79       20.8      461.6       20.8       23.1       17.0     1015.8       20.8       19.5        0.0        0.0        0.0       0.00       22.4       0.00       0.00        0.0
7:23              180        0.0         79       20.8      461.6       20.8       23.1       17.1     1015.8       20.8       19.5        0.0        0.0        0.0       0.00       22.4       0.00       0.00        0.0
7:26              180        0.0         78       20.8      461.6       20.8       23.0       16.9     1015.9       20.8       19.5        0.0        0.0        0.0       0.00       22.4       0.00       0.00        0.0
7:28              180        0.0         78       20.9      461.6       20.9       23.1       16.9     1015.9       20.9       19.5        0.0        0.0        0.0       0.00       22.4       0.00       0.00        0.0
7:29              180        0.0         78       20.9      461.6       20.9       23.1       16.9     1015.9       20.9       19.5        0.0        0.0        0.0       0.00       22.4       0.00       0.00        0.0
7:32              180        0.0         78       20.9      461.6       20.9       23.1       16.9     1016.0       20.9       19.5        0.0        0.0        0.0       0.00       22.4       0.00       0.00        0.0
7:34              180        0.0         78       20.9      461.6       20.9       23.1       17.0     1016.0       20.9       19.5        0.0        0.0        0.0       0.00       22.4       0.00       0.00        0.0
7:36              180        0.0         78       20.9      461.6       20.9       23.1       17.0     1016.0       20.9       19.5        0.0        0.0        0.0       0.00       22.4       0.00       0.00        0.0
7:38              180        0.0         78       21.0      461.6       21.0       23.2       17.0     1016.1       21.0       19.5        0.0        0.0        0.0       0.00       22.4       0.00       0.00        0.0
7:39              180        0.0         78       21.1      461.6       21.1       23.3       17.1     1016.1       21.1       19.5        0.0        0.0        0.0       0.00       22.4       0.00       0.00        0.0
7:42              180        0.0         77       21.1      461.6       21.1       23.2       16.9     1016.2       21.1       19.5        0.0        0.0        0.0       0.00       22.4       0.00       0.00        0.0
7:44              180        0.0         77       21.1      461.6       21.1       23.2       16.9     1016.2       21.1       19.5        0.0        0.0        0.0       0.00       22.4       0.00       0.00        0.0
7:46              180        0.0         77       21.1      461.6       21.1       23.2       16.9     1016.1       21.1       19.5        0.0        0.0        0.0       0.00       22.4       0.00       0.00        0.0
7:48              180        0.0         77       21.2      461.6       21.2       23.3       17.0     1016.2       21.2       19.5        0.0        0.0        0.0       0.00       22.4       0.00       0.00        0.0
7:50              180        0.0         77       21.2      461.6       21.2       23.3       17.0     1016.2       21.2       19.5        0.0        0.0        0.0       0.00       22.4       0.00       0.00        0.0
7:52              180        0.0         77       21.2      461.6       21.2       23.4       17.0     1016.1       21.2       19.5        0.0        0.0        0.0       0.00       22.4       0.00       0.00        0.0
7:54              180        0.0         77       21.2      461.6       21.2       23.4       17.0     1016.1       21.2       19.5        0.0        0.0        0.0       0.00       22.4       0.00       0.00        0.0
7:56              180        0.0         77       21.2      461.6       21.2       23.4       17.0     1016.2       21.2       19.5        0.0        0.0        0.0       0.00       22.4       0.00       0.00        0.0
7:58              180        0.0         77       21.3      461.6       21.3       23.4       17.1     1016.1       21.3       19.5        0.0        0.0        0.0       0.00       22.4       0.00       0.00        0.0
8:00              180        0.0         77       21.3      461.6       21.3       23.5       17.1     1016.2       21.3       19.5        0.0        0.0        0.0       0.00       22.4       0.00       0.00        0.0
8:02              180        0.0         77       21.4      461.6       21.4       23.5       17.2     1016.1       21.4       19.5        0.0        0.0        0.0       0.00       22.4       0.00       0.00        0.0
8:04              180        0.0         76       21.4      461.6       21.4       23.4       17.0     1016.1       21.4       19.5        0.0        0.0        0.0       0.00       22.4       0.00       0.00        0.0
8:06              180        0.0         76       21.4      461.6       21.4       23.5       17.0     1016.1       21.4       19.5        0.0        0.0        0.0       0.00       22.4       0.00       0.00        0.0
8:07              180        0.0         76       21.5      461.6       21.5       23.6       17.1     1016.1       21.5       19.5        0.0        0.0        0.0       0.00       22.4       0.00       0.00        0.0
8:10              180        0.0         76       21.6      461.6       21.6       23.6       17.1     1016.1       21.6       19.5        0.0        0.0        0.0       0.00       22.4       0.00       0.00        0.0
8:12              180        0.0         76       21.6      461.6       21.6       23.7       17.2     1016.1       21.6       19.5        0.0        0.0        0.0       0.00       22.4       0.00       0.00        0.0
8:14              180        0.0         76       21.6      461.6       21.6       23.7       17.2     1016.1       21.6       19.5        0.0        0.0        0.0       0.00       22.4       0.00       0.00        0.0
8:16              180        0.0         76       21.7      461.6       21.7       23.7       17.3     1016.1       21.7       19.5        0.0        0.0        0.0       0.00       22.4       0.00       0.00        0.0
8:18              180        0.0         76       21.7      461.6       21.7       23.8       17.3     1016.2       21.7       19.5        0.0        0.0        0.0       0.00       22.4       0.00       0.00        0.0
8:20              180        0.0         76       21.8      461.6       21.8       23.8       17.4     1016.1       21.8       19.5        0.0        0.0        0.0       0.00       22.4       0.00       0.00        0.0
8:22              180        0.0         76       21.8      461.6       21.8       23.9       17.4     1016.1       21.8       19.5        0.0        0.0        0.0       0.00       22.4       0.00       0.00        0.0
8:24              180        0.0         76       21.9      461.6       21.9       23.9       17.5     1016.1       21.9       19.5        0.0        0.0        0.0       0.00       22.4       0.00       0.00        0.0
8:26              180        0.0         76       21.9      461.6       21.9       24.0       17.5     1016.2       21.9       19.5        0.0        0.0        0.0       0.00       22.4       0.00       0.00        0.0
8:28              180        0.0         75       21.9      461.6       21.9       23.9       17.3     1016.1       22.0       19.5        0.0        0.0        0.0       0.00       22.4       0.00       0.00        0.0
8:30              180        0.0         75       22.0      461.6       22.0       24.0       17.4     1016.2       22.0       19.5        0.0        0.0        0.0       0.00       22.4       0.00       0.00        0.0
8:32              180        0.0         75       22.1      461.6       22.1       24.0       17.4     1016.2       22.1       19.5        0.0        0.0        0.0       0.00       22.4       0.00       0.00        0.0
8:34              180        0.0         75       22.1      461.6       22.1       24.0       17.4     1016.2       22.1       19.5        0.0        0.0        0.0       0.00       22.4       0.00       0.00        0.0
8:36              180        0.0         75       22.1      461.6       22.1       24.1       17.5     1016.1       22.1       19.5        0.0        0.0        0.0       0.00       22.4       0.00       0.00        0.0
8:38              180        0.0         75       22.1      461.6       22.1       24.1       17.5     1016.2       22.1       19.5        0.0        0.0        0.0       0.00       22.4       0.00       0.00        0.0
8:40              180        0.0         75       22.1      461.6       22.1       24.1       17.5     1016.2       22.2       19.5        0.0        0.0        0.0       0.00       22.4       0.00       0.00        0.0
8:42              180        0.0         75       22.2      461.6       22.2       24.2       17.5     1016.2       22.2       19.5        0.0        0.0        0.0       0.00       22.4       0.00       0.00        0.0
8:44              180        0.0         75       22.2      461.6       22.2       24.2       17.5     1016.2       22.2       19.5        0.0        0.0        0.0       0.00       22.4       0.00       0.00        0.0
8:46              180        0.0         75       22.2      461.6       22.2       24.2       17.6     1016.2       22.2       19.5        0.0        0.0        0.0       0.00       22.4       0.00       0.00        0.0
8:48              180        0.0         75       22.3      461.6       22.3       24.3       17.6     1016.2       22.3       19.5        0.0        0.0        0.0       0.00       22.4       0.00       0.00        0.0
8:50              180        0.0         74       22.3      461.6       22.3       24.2       17.4     1016.2       22.3       19.5        0.0        0.0        0.0       0.00       22.4       0.00       0.00        0.0
8:52              180        0.0         74       22.3      461.6       22.3       24.2       17.5     1016.2       22.3       19.5        0.0        0.0        0.0       0.00       22.4       0.00       0.00        0.0
8:54              180        0.0         73       22.3      461.6       22.3       24.1       17.2     1016.2       22.3       19.5        0.0        0.0        0.0       0.00       22.4       0.00       0.00        0.0
8:56              180        0.0         74       22.3      461.6       22.3       24.2       17.4     1016.2       22.3       19.5        0.0        0.0        0.0       0.00       22.4       0.00       0.00        0.0
8:58              180        0.0         74       22.2      461.6       22.2       24.1       17.4     1016.2       22.3       19.5        0.0        0.0        0.0       0.00       22.4       0.00       0.00        0.0
9:00              180        0.0         74       22.1      461.6       22.1       24.0       17.3     1016.2       22.3       19.5        0.0        0.0        0.0       0.00       22.4       0.00       0.00        0.0
9:02              180        0.0         74       22.1      461.6       22.1       24.0       17.2     1016.2       22.3       19.5        0.0        0.0        0.0       0.00       22.4       0.00       0.00        0.0
9:04              180        0.0         75       22.1      461.6       22.1       24.0       17.4     1016.1       22.3       19.5        0.0        0.0        0.0       0.00       22.4       0.00       0.00        0.0
9:06              180        0.0         75       22.1      461.6       22.1       24.0       17.4     1016.2       22.3       19.5        0.0        0.0        0.0       0.00       22.4       0.00       0.00        0.0
9:08              180        0.0         75       22.1      461.6       22.1       24.0       17.4     1016.2       22.3       19.5        0.0        0.0        0.0       0.00       22.4       0.00       0.00        0.0
9:10              180        0.0         75       22.1      461.6       22.1       24.0       17.4     1016.2       22.3       19.5        0.0        0.0        0.0       0.00       22.4       0.00       0.00        0.0
9:12              180        0.0         75       22.1      461.6       22.1       24.0       17.4     1016.2       22.3       19.5        0.0        0.0        0.0       0.00       22.4       0.00       0.00        0.0
9:14              180        0.0         75       22.1      461.6       22.1       24.1       17.5     1016.2       22.3       19.5        0.0        0.0        0.0       0.00       22.4       0.00       0.00        0.0
9:16              180        0.0         75       22.1      461.6       22.1       24.1       17.5     1016.2       22.3       19.5        0.0        0.0        0.0       0.00       22.4       0.00       0.00        0.0
9:18              180        0.0         75       22.2      461.6       22.2       24.2       17.6     1016.3       22.3       19.5        0.0        0.0        0.0       0.00       22.4       0.00       0.00        0.0
9:20              180        0.0         75       22.3      461.6       22.3       24.3       17.6     1016.3       22.3       19.5        0.0        0.0        0.0       0.00       22.4       0.00       0.00        0.0
9:22              180        0.0         74       22.4      461.6       22.4       24.3       17.5     1016.3       22.4       19.5        0.0        0.0        0.0       0.00       22.4       0.00       0.00        0.0
9:24              180        0.0         74       22.4      461.6       22.4       24.4       17.6     1016.3       22.4       19.5        0.0        0.0        0.0       0.00       22.4       0.00       0.00        0.0
9:26              180        0.0         74       22.5      461.6       22.5       24.4       17.6     1016.3       22.5       19.5        0.0        0.0        0.0       0.00       22.4       0.00       0.00        0.0
9:28              180        0.0         74       22.6      461.6       22.6       24.5       17.7     1016.3       22.6       19.5        0.0        0.0        0.0       0.00       22.4       0.00       0.00        0.0
9:30              180        0.0         74       22.6      461.6       22.6       24.5       17.7     1016.3       22.6       19.5        0.0        0.0        0.0       0.00       22.4       0.00       0.00        0.0
9:32              180        0.0         73       22.7      461.6       22.7       24.6       17.6     1016.3       22.7       19.5        0.0        0.0        0.0       0.00       22.4       0.00       0.01        0.0
9:34              180        0.0         73       22.8      461.6       22.8       24.7       17.7     1016.3       22.8       19.5        0.0        0.0        0.0       0.00       22.4       0.00       0.01        0.0
9:36              180        0.0         72       22.9      461.6       22.9       24.7       17.6     1016.3       22.9       19.5        0.0        0.0        0.0       0.00       22.4       0.00       0.01        0.0
9:38              180        0.0         72       23.0      461.6       23.0       24.8       17.7     1016.4       23.0       19.5        0.0        0.0        0.0       0.00       22.5       0.00       0.01        0.0
9:40              180        0.0         72       23.1      461.6       23.1       24.8       17.7     1016.4       23.1       19.5        0.0        0.0        0.0       0.00       22.5       0.00       0.01        0.0
9:42              180        0.0         71       23.1      461.6       23.1       24.8       17.6     1016.4       23.1       19.5        0.0        0.0        0.0       0.00       22.5       0.00       0.01        0.0
9:44              180        0.0         71       23.2      461.6       23.2       24.9       17.6     1016.4       23.2       19.5        0.0        0.0        0.0       0.00       22.5       0.00       0.01        0.0
9:46              180        0.0         71       23.2      461.6       23.2       24.9       17.6     1016.4       23.2       19.5        0.0        0.0        0.0       0.00       22.5       0.00       0.02        0.0
9:47              180        0.0         71       23.2      461.6       23.2       24.9       17.7     1016.4       23.2       19.5        0.0        0.0        0.0       0.00       22.5       0.00       0.02        0.0
9:50              180        0.0         71       23.3      461.6       23.3       25.0       17.7     1016.5       23.3       19.5        0.0        0.0        0.0       0.00       22.5       0.00       0.02        0.0
9:52              180        0.0         71       23.3      461.6       23.3       25.0       17.8     1016.5       23.3       19.5        0.0        0.0        0.0       0.00       22.5       0.00       0.02        0.0
9:54              180        4.8         70       23.4      461.6       23.4       25.0       17.6     1016.5       23.4       19.5        0.0        0.0        0.0       0.00       22.5       0.00       0.02        0.0
9:56              180        0.0         70       23.4      461.6       23.4       25.0       17.6     1016.5       23.4       19.5        0.0        0.0        0.0       0.00       22.6       0.00       0.02        0.0
9:58              180        8.0         69       23.4      461.6       23.4       25.0       17.4     1016.5       23.4       19.5        0.0        0.0        0.0       0.00       22.7       0.00       0.02        0.0
10:00             180        3.2         69       23.4      461.6       23.4       25.0       17.4     1016.5       23.4       19.5        0.0        0.0        0.0       0.00       22.9       0.00       0.02        0.0
10:02             180        3.2         70       23.4      461.6       23.4       25.0       17.6     1016.6       23.4       19.5        0.0        0.0        0.0       0.00       22.9       0.00       0.04        0.0
10:04             180        4.8         70       23.3      461.6       23.3       25.0       17.6     1016.5       23.4       19.5        0.0        0.0        0.0       0.00       23.0       0.00       0.04        0.0
10:06             180        4.8         70       23.4      461.6       23.4       25.0       17.6     1016.5       23.4       19.5        0.0        0.0        0.0       0.00       23.1       0.00       0.04        0.0
10:08             180        4.8         70       23.4      461.6       23.4       25.0       17.6     1016.6       23.4       19.5        0.0        0.0        0.0       0.00       23.2       0.00       0.04        0.0
10:10             180        0.0         70       23.4      461.6       23.4       25.1       17.7     1016.5       23.4       19.5        0.0        0.0        0.0       0.00       23.3       0.00       0.04        0.0
10:12             180        1.6         70       23.5      461.6       23.5       25.1       17.7     1016.4       23.5       19.5        0.0        0.0        0.0       0.00       23.3       0.00       0.04        0.0
10:14             180        0.0         69       23.6      461.6       23.6       25.1       17.5     1016.5       23.6       19.5        0.0        0.0        0.0       0.00       23.3       0.00       0.04        0.0
10:16             180        6.4         70       23.5      461.6       23.5       25.1       17.7     1016.6       23.6       19.5        0.0        0.0        0.0       0.00       23.5       0.00       0.05        0.0
10:18             180        6.4         70       23.5      461.6       23.5       25.1       17.7     1016.5       23.6       19.5        0.0        0.0        0.0       0.00       23.6       0.00       0.05        0.0
10:20             180        4.8         69       23.5      461.6       23.5       25.1       17.5     1016.4       23.6       19.5        0.0        0.0        0.0       0.00       23.8       0.00       0.05        0.0
10:22             180        4.8         70       23.5      461.6       23.5       25.1       17.7     1016.5       23.6       19.5        0.0        0.0        0.0       0.00       23.9       0.00       0.05        0.0
10:24             180        4.8         70       23.5      461.6       23.5       25.1       17.7     1016.4       23.6       19.5        0.0        0.0        0.0       0.00       24.0       0.00       0.05        0.0
10:26             180        0.0         70       23.6      461.6       23.6       25.2       17.8     1016.4       23.6       19.5        0.0        0.0        0.0       0.00       24.0       0.00       0.05        0.0
10:28             180        4.8         70       23.6      461.6       23.6       25.2       17.8     1016.5       23.6       19.5        0.0        0.0        0.0       0.00       24.1       0.00       0.05        0.0
10:30             180        0.0         69       23.6      461.6       23.6       25.1       17.5     1016.4       23.6       19.5        0.0        0.0        0.0       0.00       24.1       0.00       0.05        0.0
10:32             180        4.8         70       23.6      461.6       23.6       25.2       17.8     1016.4       23.6       19.5        0.0        0.0        0.0       0.00       24.2       0.00       0.07        0.0
10:34             180        6.4         69       23.6      461.6       23.6       25.1       17.5     1016.3       23.6       19.5        0.0        0.0        0.0       0.00       24.4       0.00       0.07        0.0
10:36             180        6.4         69       23.5      461.6       23.5       25.1       17.5     1016.4       23.6       19.5        0.0        0.0        0.0       0.00       24.6       0.00       0.07        0.0
10:38             180        3.2         69       23.4      461.6       23.4       25.0       17.4     1016.4       23.6       19.5        0.0        0.0        0.0       0.00       24.7       0.00       0.07        0.0
10:40             180        1.6         69       23.4      461.6       23.4       25.0       17.4     1016.3       23.6       19.5        0.0        0.0        0.0       0.00       24.8       0.00       0.07        0.0
10:42             180        4.8         70       23.3      461.6       23.3       25.0       17.6     1016.3       23.6       19.5        0.0        0.0        0.0       0.00       24.8       0.00       0.07        0.0
10:44             180        6.4         70       23.3      461.6       23.3       25.0       17.6     1016.3       23.6       19.5        0.0        0.0        0.0       0.00       25.0       0.00       0.07        0.0
10:46             180        0.0         70       23.4      461.6       23.4       25.0       17.6     1016.3       23.6       19.5        0.0        0.0        0.0       0.00       25.0       0.00       0.08        0.0
10:48             180        6.4         70       23.4      461.6       23.4       25.1       17.7     1016.3       23.6       19.5        0.0        0.0        0.0       0.00       25.1       0.00       0.08        0.0
10:50             180        6.4         70       23.6      461.6       23.6       25.2       17.8     1016.2       23.6       19.5        0.0        0.0        0.0       0.00       25.1       0.00       0.08        0.0
10:52             180        3.2         69       23.6      461.6       23.6       25.2       17.6     1016.2       23.6       19.5        0.0        0.0        0.0       0.00       25.2       0.00       0.08        0.0
10:54             180        8.0         69       23.6      461.6       23.6       25.2       17.6     1016.2       23.6       19.5        0.0        0.0        0.0       0.00       25.3       0.00       0.08        0.0
10:56             180        4.8         69       23.7      461.6       23.7       25.3       17.7     1016.2       23.7       19.5        0.0        0.0        0.0       0.00       25.5       0.00       0.08        0.0
10:58             180        8.0         69       23.8      461.6       23.8       25.4       17.8     1016.2       23.8       19.5        0.0        0.0        0.0       0.00       25.6       0.00       0.08        0.0
11:00             180        6.4         68       23.8      461.6       23.8       25.3       17.6     1016.2       23.8       19.5        0.0        0.0        0.0       0.00       25.7       0.00       0.08        0.0
11:02             180        9.7         69       23.9      461.6       23.9       25.5       17.9     1016.2       23.9       19.5        0.0        0.0        0.0       0.00       26.0       0.00       0.10        0.0
11:04             180        6.4         68       23.9      461.6       23.9       25.4       17.6     1016.2       23.9       19.5        0.0        0.0        0.0       0.00       26.2       0.00       0.10        0.0
11:06             180        4.8         68       23.9      461.6       23.9       25.4       17.6     1016.2       23.9       19.5        0.0        0.0        0.0       0.00       26.3       0.00       0.10        0.0
11:08             182        6.4         68       23.9      461.6       23.9       25.4       17.6     1016.1       23.9       19.5        0.0        0.0        0.0       0.00       26.5       0.00       0.10        0.0
11:09             182        3.2         68       23.9      461.6       23.9       25.4       17.6     1016.2       23.9       19.5        0.0        0.0        0.0       0.00       26.6       0.00       0.10        0.0
11:12             182        0.0         68       23.9      461.6       23.9       25.5       17.7     1016.1       23.9       19.5        0.0        0.0        0.0       0.00       26.6       0.00       0.10        0.0
11:14             182        6.4         68       24.0      461.6       24.0       25.5       17.7     1016.1       24.0       19.5        0.0        0.0        0.0       0.00       26.8       0.00       0.10        0.0
11:16             182        0.0         68       24.0      461.6       24.0       25.5       17.7     1016.0       24.0       19.5        0.0        0.0        0.0       0.00       26.9       0.00       0.12        0.0
11:18             182        0.0         68       24.1      461.6       24.1       25.6       17.8     1016.0       24.1       19.5        0.0        0.0        0.0       0.00       26.9       0.00       0.12        0.0
11:20             181        8.0         68       24.1      461.6       24.1       25.6       17.8     1016.0       24.1       19.5        0.0        0.0        0.0       0.00       27.0       0.00       0.12        0.0
11:22             181        6.4         67       24.2      461.6       24.2       25.7       17.7     1016.1       24.2       19.5        0.0        0.0        0.0       0.00       27.2       0.00       0.12        0.0
11:24             181       12.9         67       24.3      461.6       23.9       25.8       17.8     1016.0       24.3       19.5        0.0        0.0        0.0       0.00       27.4       0.00       0.12        0.0
11:26             181        6.4         67       24.5      461.6       24.5       25.9       18.0     1016.0       24.5       19.5        0.0        0.0        0.0       0.00       27.6       0.00       0.12        0.0
11:28             181        4.8         66       24.6      461.6       24.6       25.9       17.8     1016.0       24.6       19.5        0.0        0.0        0.0       0.00       27.6       0.00       0.12        0.0
11:30             182        8.0         66       24.6      461.6       24.6       26.0       17.8     1016.0       24.6       19.5        0.0        0.0        0.0       0.00       27.8       0.00       0.12        0.0
11:32             184        6.4         66       24.6      461.6       24.6       26.0       17.8     1016.0       24.6       19.5        0.0        0.0        0.0       0.00       28.0       0.00       0.15        0.0
11:34             184        6.4         65       24.6      461.6       24.6       25.9       17.6     1016.0       24.6       19.5        0.0        0.0        0.0       0.00       28.2       0.00       0.15        0.0
11:36             184        6.4         65       24.6      461.6       24.6       25.9       17.6     1015.9       24.6       19.5        0.0        0.0        0.0       0.00       28.3       0.00       0.15        0.0
11:38             184        4.8         66       24.6      461.6       24.6       25.9       17.8     1016.0       24.6       19.5        0.0        0.0        0.0       0.00       28.5       0.00       0.15        0.0
11:40             184        0.0         66       24.6      461.6       24.6       26.0       17.8     1015.8       24.6       19.5        0.0        0.0        0.0       0.00       28.5       0.00       0.15        0.0
11:42             251       16.1         66       24.6      461.6       23.5       26.0       17.8     1015.8       24.6       19.5        0.0        0.0        0.0       0.00       28.7       0.00       0.15        0.0
11:44             258       11.3         66       24.6      461.6       24.6       26.0       17.8     1015.9       24.7       19.5        0.0        0.0        0.0       0.00       29.0       0.00       0.15        0.0
11:46             260        1.6         66       24.5      461.6       24.5       25.9       17.7     1015.8       24.7       19.5        0.0        0.0        0.0       0.00       29.1       0.00       0.18        0.0
11:48             253       12.9         67       24.4      461.6       23.0       25.9       17.9     1015.8       24.7       19.5        0.0        0.0        0.0       0.00       29.1       0.00       0.18        0.0
11:50             246        4.8         66       24.4      461.6       24.4       25.8       17.7     1015.8       24.7       19.5        0.0        0.0        0.0       0.00       29.4       0.00       0.18        0.0
11:52             249        4.8         66       24.4      461.6       24.4       25.8       17.7     1015.7       24.7       19.5        0.0        0.0        0.0       0.00       29.6       0.00       0.18        0.0
11:54             249        0.0         66       24.4      461.6       24.4       25.8       17.7     1015.8       24.7       19.5        0.0        0.0        0.0       0.00       29.6       0.00       0.18        0.0
11:56             249        4.8         66       24.5      461.6       24.5       25.9       17.7     1015.8       24.7       19.5        0.0        0.0        0.0       0.00       29.7       0.00       0.18        0.0
11:58             250        4.8         66       24.6      461.6       24.6       25.9       17.8     1015.7       24.7       19.5        0.0        0.0        0.0       0.00       29.9       0.00       0.18        0.0
12:00             248        8.0         66       24.6      461.6       24.6       25.9       17.8     1015.7       24.7       19.5        0.0        0.0        0.0       0.00       30.1       0.00       0.18        0.0
12:02             248        4.8         66       24.6      461.6       24.6       26.0       17.8     1015.7       24.7       19.5        0.0        0.0        0.0       0.00       30.2       0.00       0.20        0.0
12:04             248        0.0         66       24.6      461.6       24.6       26.0       17.8     1015.6       24.7       19.5        0.0        0.0        0.0       0.00       30.2       0.00       0.20        0.0
12:06             248        0.0         66       24.7      461.6       24.7       26.1       17.9     1015.7       24.7       19.5        0.0        0.0        0.0       0.00       30.2       0.00       0.20        0.0
12:08             248        4.8         65       24.8      461.6       24.8       26.1       17.8     1015.7       24.8       19.5        0.0        0.0        0.0       0.00       30.3       0.00       0.20        0.0
12:10             247       11.3         65       24.8      461.6       23.8       26.1       17.8     1015.7       24.8       19.5        0.0        0.0        0.0       0.00       30.4       0.00       0.20        0.0
12:12             247        4.8         65       24.9      461.6       24.9       26.2       17.9     1015.6       24.9       19.5        0.0        0.0        0.0       0.00       30.6       0.00       0.20        0.0
12:14             247        3.2         65       24.9      461.6       24.9       26.2       17.9     1015.6       24.9       19.5        0.0        0.0        0.0       0.00       30.7       0.00       0.20        0.0
12:16             244        4.8         65       24.9      461.6       24.9       26.3       17.9     1015.6       24.9       19.5        0.0        0.0        0.0       0.00       30.9       0.00       0.23        0.0
12:18             211        9.7         65       25.0      461.6       25.0       26.3       18.0     1015.7       25.1       19.5        0.0        0.0        0.0       0.00       31.2       0.00       0.23        0.0
12:20             213        4.8         64       25.1      461.6       25.1       26.4       17.8     1015.6       25.1       19.5        0.0        0.0        0.0       0.00       31.3       0.00       0.23        0.0
12:22             175       16.1         64       25.2      461.6       24.2       26.4       17.9     1015.6       25.2       19.5        0.0        0.0        0.0       0.00       31.7       0.00       0.23        0.0
12:24             167        9.7         64       25.2      461.6       24.8       26.5       17.9     1015.5       25.2       19.5        0.0        0.0        0.0       0.00       31.9       0.00       0.23        0.0
12:26             190       14.5         64       25.4      461.6       25.0       26.6       18.1     1015.5       25.4       19.5        0.0        0.0        0.0       0.00       32.3       0.00       0.23        0.0
12:28             207       17.7         63       25.6      461.6       24.6       26.7       18.0     1015.5       25.6       19.5        0.0        0.0        0.0       0.00       32.7       0.00       0.23        0.0
12:30             205        8.0         62       25.7      461.6       25.3       26.8       17.9     1015.6       25.7       19.5        0.0        0.0        0.0       0.00       33.0       0.00       0.23        0.0
12:32             193       12.9         62       25.8      461.6       24.6       26.9       18.0     1015.5       25.8       19.5        0.0        0.0        0.0       0.00       33.4       0.00       0.27        0.0
12:34             192        4.8         62       25.8      461.6       25.8       27.0       18.0     1015.5       25.8       19.5        0.0        0.0        0.0       0.00       33.5       0.00       0.27        0.0
12:36             194        8.0         61       25.9      461.6       25.9       27.0       17.9     1015.5       25.9       19.5        0.0        0.0        0.0       0.00       33.8       0.00       0.27        0.0
12:38             193        6.4         61       26.0      461.6       26.0       27.1       17.9     1015.5       26.0       19.5        0.0        0.0        0.0       0.00       34.0       0.00       0.27        0.0
12:40             189       11.3         62       26.1      461.6       25.2       27.2       18.3     1015.4       26.1       19.5        0.0        0.0        0.0       0.00       34.3       0.00       0.27        0.0
12:42             200       11.3         61       26.3      461.6       25.7       27.3       18.2     1015.5       26.3       19.5        0.0        0.0        0.0       0.00       34.6       0.00       0.27        0.0
12:44             205        9.7         60       26.3      461.6       26.3       27.3       18.0     1015.5       26.3       19.5        0.0        0.0        0.0       0.00       34.8       0.00       0.27        0.0
12:46             225       11.3         61       26.3      461.6       26.3       27.4       18.2     1015.3       26.4       19.5        0.0        0.0        0.0       0.00       35.2       0.00       0.32        0.0
12:48             220        4.8         61       26.3      461.6       26.3       27.4       18.2     1015.4       26.4       19.5        0.0        0.0        0.0       0.00       35.3       0.00       0.32        0.0
12:50             221        6.4         60       26.3      461.6       26.3       27.3       18.0     1015.4       26.4       19.5        0.0        0.0        0.0       0.00       35.4       0.00       0.32        0.0
12:52             207       11.3         61       26.3      461.6       26.3       27.3       18.2     1015.3       26.4       19.5        0.0        0.0        0.0       0.00       35.6       0.00       0.32        0.0
12:54             179       11.3         61       26.3      461.6       26.3       27.3       18.2     1015.2       26.4       19.5        0.0        0.0        0.0       0.00       35.9       0.00       0.32        0.0
12:56             218       12.9         61       26.4      461.6       26.0       27.5       18.3     1015.2       26.4       19.5        0.0        0.0        0.0       0.00       36.2       0.00       0.32        0.0
12:58             223        4.8         60       26.5      461.6       26.5       27.5       18.1     1015.2       26.5       19.5        0.0        0.0        0.0       0.00       36.4       0.00       0.32        0.0
13:00             245       14.5         60       26.6      461.6       25.5       27.6       18.2     1015.1       26.6       19.5        0.0        0.0        0.0       0.00       36.6       0.00       0.32        0.0
13:02             249        4.8         60       26.5      461.6       26.5       27.5       18.1     1015.1       26.6       19.5        0.0        0.0        0.0       0.00       36.9       0.00       0.37        0.0
13:04             188       17.7         60       26.4      461.6       25.8       27.4       18.1     1015.1       26.6       19.5        0.0        0.0        0.0       0.00       37.1       0.00       0.37        0.0
13:06             189        9.7         60       26.6      461.6       26.6       27.6       18.2     1015.1       26.6       19.5        0.0        0.0        0.0       0.00       37.4       0.00       0.37        0.0
13:08             187       17.7         60       26.7      461.6       25.0       27.7       18.3     1015.1       26.7       19.5        0.0        0.0        0.0       0.00       37.9       0.00       0.37        0.0
13:10             173       12.9         60       26.8      461.6       26.8       27.8       18.4     1015.1       26.8       19.5        0.0        0.0        0.0       0.00       38.3       0.00       0.37        0.0
13:12             173        8.0         60       26.9      461.6       26.6       28.0       18.5     1014.9       26.9       19.5        0.0        0.0        0.0       0.00       38.3       0.00       0.37        0.0
13:14             175       16.1         59       27.2      461.6       26.2       28.2       18.5     1014.9       27.2       19.5        0.0        0.0        0.0       0.00       38.7       0.00       0.37        0.0
13:16             192       16.1         58       27.3      461.6       27.3       28.3       18.4     1014.9       27.3       19.5        0.0        0.0        0.0       0.00       39.2       0.00       0.42        0.0
13:18             213       17.7         57       27.5      461.6       26.2       28.5       18.2     1014.9       27.5       19.5        0.0        0.0        0.0       0.00       39.6       0.00       0.42        0.0
13:20             191       16.1         57       27.6      461.6       26.9       28.5       18.3     1014.9       27.6       19.5        0.0        0.0        0.0       0.00       39.9       0.00       0.42        0.0
13:22             201       14.5         57       27.6      461.6       26.7       28.5       18.3     1014.9       27.6       19.5        0.0        0.0        0.0       0.00       40.3       0.00       0.42        0.0
13:24             189       17.7         57       27.5      461.6       26.2       28.5       18.2     1014.9       27.6       19.5        0.0        0.0        0.0       0.00       40.7       0.00       0.42        0.0
13:26             184       14.5         57       27.4      461.6       27.1       28.4       18.2     1014.8       27.6       19.5        0.0        0.0        0.0       0.00       41.0       0.00       0.42        0.0
13:28             185        9.7         58       27.5      461.6       27.2       28.6       18.5     1014.8       27.6       19.5        0.0        0.0        0.0       0.00       41.3       0.00       0.42        0.0
13:30             163        9.7         57       27.6      461.6       27.6       28.6       18.3     1014.9       27.6       19.5        0.0        0.0        0.0       0.00       41.7       0.00       0.42        0.0
13:32             162       17.7         57       27.7      461.6       27.2       28.8       18.4     1014.8       27.7       19.5        0.0        0.0        0.0       0.00       42.0       0.00       0.48        0.0
13:34             249       17.7         57       27.8      461.6       27.6       28.9       18.5     1014.6       27.8       19.5        0.0        0.0        0.0       0.00       42.5       0.00       0.48        0.0
13:36             198       12.9         57       27.9      461.6       27.6       29.0       18.6     1014.7       27.9       19.5        0.0        0.0        0.0       0.00       42.9       0.00       0.48        0.0
13:38             189       17.7         56       28.0      461.6       26.8       29.0       18.4     1014.7       28.0       19.5        0.0        0.0        0.0       0.00       43.3       0.00       0.48        0.0
13:40             183       11.3         56       28.1      461.6       28.1       29.1       18.5     1014.6       28.1       19.5        0.0        0.0        0.0       0.00       43.7       0.00       0.48        0.0
13:42             156       17.7         56       28.2      461.6       27.2       29.2       18.6     1014.6       28.2       19.5        0.0        0.0        0.0       0.00       44.0       0.00       0.48        0.0
13:44             196       16.1         55       28.2      461.6       27.8       29.2       18.3     1014.7       28.2       19.5        0.0        0.0        0.0       0.00       44.4       0.00       0.48        0.0
13:46             182       14.5         55       28.3      461.6       27.8       29.3       18.4     1014.5       28.3       19.5        0.0        0.0        0.0       0.00       44.8       0.00       0.54        0.0
13:48             201       12.9         54       28.2      461.6       27.6       29.1       18.0     1014.6       28.3       19.5        0.0        0.0        0.0       0.00       45.3       0.00       0.54        0.0
13:50             200        8.0         55       28.1      461.6       27.8       29.0       18.2     1014.5       28.3       19.5        0.0        0.0        0.0       0.00       45.5       0.00       0.54        0.0
13:52             210       14.5         55       28.0      461.6       27.0       28.9       18.1     1014.4       28.3       19.5        0.0        0.0        0.0       0.00       46.0       0.00       0.54        0.0
13:54             217        9.7         55       28.0      461.6       28.0       28.9       18.1     1014.6       28.3       19.5        0.0        0.0        0.0       0.00       46.3       0.00       0.54        0.0
13:56             211       11.3         56       27.9      461.6       27.5       28.9       18.4     1014.4       28.3       19.5        0.0        0.0        0.0       0.00       46.4       0.00       0.54        0.0
13:58             194        3.2         56       27.9      461.6       27.9       28.9       18.4     1014.3       28.3       19.5        0.0        0.0        0.0       0.00       46.8       0.00       0.54        0.0
14:00             192       11.3         56       28.1      461.6       27.4       29.1       18.5     1014.2       28.3       19.5        0.0        0.0        0.0       0.00       47.0       0.00       0.54        0.0
14:02             178       19.3         56       28.2      461.6       28.2       29.2       18.6     1014.3       28.3       19.5        0.0        0.0        0.0       0.00       47.5       0.00       0.61        0.0
14:04             182        4.8         55       28.3      461.6       28.3       29.3       18.4     1014.3       28.3       19.5        0.0        0.0        0.0       0.00       47.7       0.00       0.61        0.0
14:06             186       12.9         55       28.4      461.6       28.1       29.4       18.5     1014.3       28.4       19.5        0.0        0.0        0.0       0.00       48.0       0.00       0.61        0.0
14:08             175       12.9         55       28.4      461.6       28.4       29.5       18.5     1014.3       28.4       19.5        0.0        0.0        0.0       0.00       48.4       0.00       0.61        0.0
14:10             173       17.7         55       28.6      461.6       27.4       29.7       18.6     1014.3       28.6       19.5        0.0        0.0        0.0       0.00       48.7       0.00       0.61        0.0
14:12             166       20.9         55       28.6      461.6       27.4       29.7       18.7     1014.2       28.6       19.5        0.0        0.0        0.0       0.00       49.1       0.00       0.61        0.0
14:14             171        9.7         55       28.7      461.6       28.7       29.9       18.8     1014.2       28.7       19.5        0.0        0.0        0.0       0.00       49.5       0.00       0.61        0.0
14:16             173       17.7         55       28.9      461.6       28.1       30.1       19.0     1014.2       28.9       19.5        0.0        0.0        0.0       0.00       49.9       0.00       0.68        0.0
14:18             193       12.9         54       28.9      461.6       28.3       30.1       18.7     1014.1       28.9       19.5        0.0        0.0        0.0       0.00       50.2       0.00       0.68        0.0
14:20             237       12.9         54       29.0      461.6       28.6       30.2       18.8     1014.1       29.0       19.5        0.0        0.0        0.0       0.00       50.6       0.00       0.68        0.0
14:22             245       17.7         55       28.9      461.6       28.9       30.2       19.0     1014.0       29.0       19.5        0.0        0.0        0.0       0.00       50.9       0.00       0.68        0.0
14:24             227       14.5         55       28.8      461.6       28.5       30.1       18.9     1014.0       29.0       19.5        0.0        0.0        0.0       0.00       51.3       0.00       0.68        0.0
14:26             235        9.7         55       28.7      461.6       28.7       29.9       18.8     1013.9       29.0       19.5        0.0        0.0        0.0       0.00       51.6       0.00       0.68        0.0
14:28             230       12.9         55       28.7      461.6       28.4       29.8       18.7     1014.0       29.0       19.5        0.0        0.0        0.0       0.00       51.9       0.00       0.68        0.0
14:30             223       11.3         55       28.6      461.6       28.6       29.7       18.7     1014.0       29.0       19.5        0.0        0.0        0.0       0.00       52.2       0.00       0.68        0.0
14:32             225        9.7         56       28.6      461.6       28.4       29.9       19.0     1013.9       29.0       19.5        0.0        0.0        0.0       0.00       52.4       0.00       0.75        0.0
14:34             223        4.8         55       28.7      461.6       28.7       29.9       18.8     1013.8       29.0       19.5        0.0        0.0        0.0       0.00       52.6       0.00       0.75        0.0
14:36             178       19.3         55       28.8      461.6       27.8       30.1       18.9     1013.8       29.0       19.5        0.0        0.0        0.0       0.00       53.0       0.00       0.75        0.0
14:38             171       17.7         55       29.0      461.6       28.3       30.3       19.1     1013.8       29.0       19.5        0.0        0.0        0.0       0.00       53.4       0.00       0.75        0.0
14:40             215       16.1         54       29.2      461.6       28.5       30.4       18.9     1013.8       29.2       19.5        0.0        0.0        0.0       0.00       53.8       0.00       0.75        0.0
14:42             213       17.7         53       29.3      461.6       28.4       30.5       18.8     1013.8       29.3       19.5        0.0        0.0        0.0       0.00       54.3       0.00       0.75        0.0
14:44             184        9.7         53       29.3      461.6       29.1       30.5       18.8     1013.7       29.3       19.5        0.0        0.0        0.0       0.00       54.6       0.00       0.75        0.0
14:46             190       14.5         53       29.4      461.6       28.7       30.6       18.8     1013.6       29.4       19.5        0.0        0.0        0.0       0.00       54.9       0.00       0.82        0.0
14:48             185       11.3         53       29.4      461.6       29.1       30.7       18.9     1013.6       29.4       19.5        0.0        0.0        0.0       0.00       55.3       0.00       0.82        0.0
14:50             191       12.9         53       29.6      461.6       29.4       30.8       19.0     1013.5       29.6       19.5        0.0        0.0        0.0       0.00       55.6       0.00       0.82        0.0
14:52             177       14.5         52       29.6      461.6       29.2       30.8       18.7     1013.5       29.6       19.5        0.0        0.0        0.0       0.00       55.9       0.00       0.82        0.0
14:54             205        9.7         52       29.6      461.6       29.4       30.8       18.7     1013.5       29.6       19.5        0.0        0.0        0.0       0.00       56.2       0.00       0.82        0.0
14:56             214       11.3         52       29.6      461.6       29.4       30.8       18.7     1013.4       29.7       19.5        0.0        0.0        0.0       0.00       56.6       0.00       0.82        0.0
14:58             210       12.9         52       29.6      461.6       29.3       30.8       18.7     1013.4       29.7       19.5        0.0        0.0        0.0       0.00       56.9       0.00       0.82        0.0
15:00             182       19.3         52       29.7      461.6       28.7       30.9       18.8     1013.2       29.7       19.5        0.0        0.0        0.0       0.00       57.3       0.00       0.82        0.0
15:02             229       12.9         52       29.7      461.6       29.3       30.9       18.8     1013.4       29.8       19.5        0.0        0.0        0.0       0.00       57.7       0.00       0.90        0.0
15:04             217       11.3         52       29.8      461.6       29.6       31.0       18.9     1013.4       29.8       19.5        0.0        0.0        0.0       0.00       57.9       0.00       0.90        0.0
15:06             223       14.5         51       29.8      461.6       29.5       31.0       18.6     1013.2       29.8       19.5        0.0        0.0        0.0       0.00       58.1       0.00       0.90        0.0
15:08             247       12.9         50       29.8      461.6       29.8       30.8       18.3     1013.2       29.9       19.5        0.0        0.0        0.0       0.00       58.5       0.00       0.90        0.0
15:10             194       11.3         51       29.7      461.6       29.5       30.8       18.5     1013.2       29.9       19.5        0.0        0.0        0.0       0.00       58.8       0.00       0.90        0.0
15:12             194       12.9         51       29.7      461.6       29.4       30.7       18.5     1013.1       29.9       19.5        0.0        0.0        0.0       0.00       59.0       0.00       0.90        0.0
15:14             193       11.3         51       29.7      461.6       29.4       30.8       18.5     1013.2       29.9       19.5        0.0        0.0        0.0       0.00       59.3       0.00       0.90        0.0
15:16             180       22.5         52       29.7      461.6       29.2       30.9       18.8     1013.1       29.9       19.5        0.0        0.0        0.0       0.00       59.8       0.00       0.98        0.0
15:18             197        6.4         52       29.7      461.6       29.7       30.9       18.8     1013.1       29.9       19.5        0.0        0.0        0.0       0.00       60.2       0.00       0.98        0.0
15:20             184       19.3         52       29.7      461.6       28.8       30.9       18.8     1013.1       29.9       19.5        0.0        0.0        0.0       0.00       60.5       0.00       0.98        0.0
15:22             196       16.1         52       29.7      461.6       29.1       30.9       18.8     1013.1       29.9       19.5        0.0        0.0        0.0       0.00       60.9       0.00       0.98        0.0
15:24             206        9.7         52       29.7      461.6       29.4       30.9       18.8     1013.1       29.9       19.5        0.0        0.0        0.0       0.00       61.1       0.00       0.98        0.0
15:26             211       12.9         52       29.8      461.6       29.5       31.0       18.9     1013.0       29.9       19.5        0.0        0.0        0.0       0.00       61.5       0.00       0.98        0.0
15:28             198       17.7         52       29.8      461.6       29.0       31.1       18.9     1013.0       29.9       19.5        0.0        0.0        0.0       0.00       61.9       0.00       0.98        0.0
15:30             189       19.3         52       29.9      461.6       29.4       31.3       19.0     1013.0       29.9       19.5        0.0        0.0        0.0       0.00       62.4       0.00       0.98        0.0
15:32             178       16.1         50       29.9      461.6       29.6       31.0       18.4     1013.0       29.9       19.5        0.0        0.0        0.0       0.00       62.9       0.00       1.07        0.0
15:34             187       16.1         51       29.9      461.6       29.7       31.1       18.7     1013.0       30.0       19.5        0.0        0.0        0.0       0.00       63.3       0.00       1.07        0.0
15:36             186       19.3         51       30.0      461.6       29.6       31.2       18.8     1013.0       30.0       19.5        0.0        0.0        0.0       0.00       63.7       0.00       1.07        0.0
15:38             186       14.5         51       30.0      461.6       29.8       31.2       18.8     1013.1       30.0       19.5        0.0        0.0        0.0       0.00       64.1       0.00       1.07        0.0
15:40             209       14.5         51       30.0      461.6       29.8       31.2       18.8     1013.0       30.0       19.5        0.0        0.0        0.0       0.00       64.5       0.00       1.07        0.0
15:42             173       20.9         51       30.0      461.6       29.2       31.2       18.8     1013.0       30.0       19.5        0.0        0.0        0.0       0.00       64.9       0.00       1.07        0.0
15:44             182       20.9         51       30.1      461.6       29.4       31.3       18.8     1012.9       30.1       19.5        0.0        0.0        0.0       0.00       65.3       0.00       1.07        0.0
15:46             178       22.5         50       30.2      461.6       29.3       31.3       18.6     1012.9       30.2       19.5        0.0        0.0        0.0       0.00       66.0       0.00       1.15        0.0
15:48             167       24.1         50       30.2      461.6       29.3       31.4       18.7     1012.9       30.2       19.5        0.0        0.0        0.0       0.00       66.5       0.00       1.15        0.0
15:50             181       17.7         50       30.3      461.6       29.7       31.5       18.7     1012.9       30.3       19.5        0.0        0.0        0.0       0.00       67.1       0.00       1.15        0.0
15:52             173        9.7         50       30.3      461.6       30.1       31.6       18.8     1012.9       30.3       19.5        0.0        0.0        0.0       0.00       67.4       0.00       1.15        0.0
15:54             179       19.3         49       30.3      461.6       29.6       31.4       18.4     1012.9       30.3       19.5        0.0        0.0        0.0       0.00       67.9       0.00       1.15        0.0
15:56             205       16.1         48       30.3      461.6       29.8       31.2       18.1     1012.9       30.4       19.5        0.0        0.0        0.0       0.00       68.3       0.00       1.15        0.0
15:58             274       22.5         47       30.3      461.6       29.5       31.1       17.8     1012.9       30.4       19.5        0.0        0.0        0.0       0.00       68.7       0.00       1.15        0.0
16:00             234       12.9         47       30.2      461.6       30.0       30.9       17.7     1012.9       30.4       19.5        0.0        0.0        0.0       0.00       69.1       0.00       1.15        0.0
16:02             200       12.9         47       30.2      461.6       30.0       30.8       17.6     1012.9       30.4       19.5        0.0        0.0        0.0       0.00       69.5       0.00       1.24        0.0
16:04             220       27.4         47       30.2      461.6       29.4       30.8       17.6     1012.9       30.4       19.5        0.0        0.0        0.0       0.00       69.9       0.00       1.24        0.0
16:06             210       11.3         47       30.2      461.6       29.9       30.8       17.6     1012.8       30.4       19.5        0.0        0.0        0.0       0.00       70.4       0.00       1.24        0.0
16:08             182       17.7         47       30.2      461.6       29.4       30.8       17.6     1012.9       30.4       19.5        0.0        0.0        0.0       0.00       70.9       0.00       1.24        0.0
16:10             212       16.1         47       30.1      461.6       29.7       30.7       17.6     1012.8       30.4       19.5        0.0        0.0        0.0       0.00       71.3       0.00       1.24        0.0
16:12             238       24.1         47       30.1      461.6       29.6       30.7       17.5     1012.9       30.4       19.5        0.0        0.0        0.0       0.00       71.8       0.00       1.24        0.0
16:14             221       17.7         47       30.1      461.6       29.4       30.7       17.5     1012.8       30.4       19.5        0.0        0.0        0.0       0.00       72.1       0.00       1.24        0.0
16:16             242       16.1         47       30.0      461.6       30.0       30.6       17.5     1012.9       30.4       19.5        0.0        0.0        0.0       0.00       72.7       0.00       1.32        0.0
16:18             229       16.1         47       29.8      461.6       29.4       30.4       17.3     1012.9       30.4       19.5        0.0        0.0        0.0       0.00       73.1       0.00       1.32        0.0
16:20             218       20.9         47       29.8      461.6       29.0       30.3       17.3     1012.8       30.4       19.5        0.0        0.0        0.0       0.00       73.6       0.00       1.32        0.0
16:22             254       22.5         48       29.7      461.6       28.7       30.3       17.5     1012.8       30.4       19.5        0.0        0.0        0.0       0.00       74.1       0.00       1.32        0.0
16:24             219       22.5         48       29.6      461.6       28.5       30.2       17.4     1012.9       30.4       19.5        0.0        0.0        0.0       0.00       74.6       0.00       1.32        0.0
16:26             242       22.5         48       29.5      461.6       28.5       30.1       17.3     1012.9       30.4       19.5        0.0        0.0        0.0       0.00       75.2       0.00       1.32        0.0
16:28             232       19.3         48       29.4      461.6       28.8       29.9       17.2     1012.9       30.4       19.5        0.0        0.0        0.0       0.00       75.6       0.00       1.32        0.0
16:30             207       12.9         48       29.3      461.6       29.0       29.8       17.2     1012.9       30.4       19.5        0.0        0.0        0.0       0.00       76.0       0.00       1.32        0.0
16:32             218       16.1         48       29.3      461.6       29.0       29.8       17.2     1013.0       30.4       19.5        0.0        0.0        0.0       0.00       76.4       0.00       1.40        0.0
16:34             231       12.9         48       29.4      461.6       29.2       29.9       17.2     1012.9       30.4       19.5        0.0        0.0        0.0       0.00       76.8       0.00       1.40        0.0
16:36             211       12.9         48       29.4      461.6       29.4       29.9       17.2     1013.0       30.4       19.5        0.0        0.0        0.0       0.00       77.1       0.00       1.40        0.0
16:38             220       20.9         48       29.4      461.6       28.5       29.9       17.2     1012.9       30.4       19.5        0.0        0.0        0.0       0.00       77.5       0.00       1.40        0.0
16:40             242       12.9         48       29.4      461.6       29.1       29.9       17.2     1012.9       30.4       19.5        0.0        0.0        0.0       0.00       77.9       0.00       1.40        0.0
16:42             220       16.1         48       29.3      461.6       28.9       29.8       17.2     1012.9       30.4       19.5        0.0        0.0        0.0       0.00       78.5       0.00       1.40        0.0
16:44             214       16.1         48       29.3      461.6       29.3       29.8       17.1     1013.0       30.4       19.5        0.0        0.0        0.0       0.00       78.8       0.00       1.40        0.0
16:46             220       14.5         48       29.3      461.6       29.1       29.8       17.1     1012.9       30.4       19.5        0.0        0.0        0.0       0.00       79.2       0.00       1.47        0.0
16:48             213       17.7         48       29.3      461.6       28.9       29.8       17.1     1012.9       30.4       19.5        0.0        0.0        0.0       0.00       79.6       0.00       1.47        0.0
16:49             215       16.1         48       29.2      461.6       28.6       29.7       17.1     1012.9       30.4       19.5        0.0        0.0        0.0       0.00       80.0       0.00       1.47        0.0
16:52             196       14.5         48       29.2      461.6       28.8       29.6       17.0     1012.9       30.4       19.5        0.0        0.0        0.0       0.00       80.5       0.00       1.47        0.0
16:54             240       20.9         48       29.1      461.6       28.2       29.6       17.0     1012.9       30.4       19.5        0.0        0.0        0.0       0.00       81.0       0.00       1.47        0.0
16:56             246       20.9         49       29.0      461.6       27.8       29.5       17.2     1012.8       30.4       19.5        0.0        0.0        0.0       0.00       81.5       0.00       1.47        0.0
16:58             198       14.5         49       28.9      461.6       28.1       29.4       17.1     1012.8       30.4       19.5        0.0        0.0        0.0       0.00       81.9       0.00       1.47        0.0
17:00             244       19.3         49       28.8      461.6       27.8       29.3       17.1     1012.9       30.4       19.5        0.0        0.0        0.0       0.00       82.5       0.00       1.47        0.0
17:02             238       16.1         49       28.7      461.6       27.9       29.2       17.0     1012.8       30.4       19.5        0.0        0.0        0.0       0.00       83.0       0.00       1.54        0.0
17:04             217       14.5         49       28.7      461.6       28.4       29.1       16.9     1012.8       30.4       19.5        0.0        0.0        0.0       0.00       83.5       0.00       1.54        0.0
17:06             200       16.1         49       28.6      461.6       27.7       29.1       16.9     1012.8       30.4       19.5        0.0        0.0        0.0       0.00       83.9       0.00       1.54        0.0
17:08             206       14.5         50       28.7      461.6       28.3       29.2       17.2     1012.8       30.4       19.5        0.0        0.0        0.0       0.00       84.3       0.00       1.54        0.0
17:10             213       22.5         50       28.7      461.6       27.5       29.3       17.3     1012.8       30.4       19.5        0.0        0.0        0.0       0.00       84.7       0.00       1.54        0.0
17:12             237       24.1         49       28.8      461.6       27.5       29.3       17.0     1012.8       30.4       19.5        0.0        0.0        0.0       0.00       85.1       0.00       1.54        0.0
17:14             210       22.5         49       28.7      461.6       27.6       29.2       17.0     1012.8       30.4       19.5        0.0        0.0        0.0       0.00       85.7       0.00       1.54        0.0
17:16             211       22.5         49       28.6      461.6       27.2       29.1       16.9     1012.8       30.4       19.5        0.0        0.0        0.0       0.00       86.2       0.00       1.61        0.0
17:18             229       20.9         49       28.6      461.6       27.3       29.0       16.8     1012.8       30.4       19.5        0.0        0.0        0.0       0.00       86.7       0.00       1.61        0.0
17:20             212       17.7         50       28.5      461.6       27.8       29.0       17.1     1012.8       30.4       19.5        0.0        0.0        0.0       0.00       87.1       0.00       1.61        0.0
17:22             247       19.3         50       28.6      461.6       28.3       29.1       17.1     1012.7       30.4       19.5        0.0        0.0        0.0       0.00       87.6       0.00       1.61        0.0
17:24             226       20.9         50       28.5      461.6       27.2       29.0       17.1     1012.7       30.4       19.5        0.0        0.0        0.0       0.00       88.0       0.00       1.61        0.0
17:26             223       20.9         50       28.4      461.6       27.5       29.0       17.0     1012.7       30.4       19.5        0.0        0.0        0.0       0.00       88.5       0.00       1.61        0.0
17:28             226       22.5         50       28.4      461.6       26.9       28.9       17.0     1012.6       30.4       19.5        0.0        0.0        0.0       0.00       89.0       0.00       1.61        0.0
17:30             216       17.7         50       28.3      461.6       27.2       28.8       16.9     1012.7       30.4       19.5        0.0        0.0        0.0       0.00       89.5       0.00       1.61        0.0
17:32             214       20.9         50       28.3      461.6       27.6       28.8       16.9     1012.7       30.4       19.5        0.0        0.0        0.0       0.00       90.0       0.00       1.68        0.0
17:34             226       14.5         50       28.3      461.6       27.7       28.8       16.9     1012.6       30.4       19.5        0.0        0.0        0.0       0.00       90.4       0.00       1.68        0.0
17:36             221       19.3         50       28.4      461.6       27.5       28.9       17.0     1012.7       30.4       19.5        0.0        0.0        0.0       0.00       90.9       0.00       1.68        0.0
17:38             221       11.3         50       28.3      461.6       27.9       28.8       16.9     1012.6       30.4       19.5        0.0        0.0        0.0       0.00       91.2       0.00       1.68        0.0
17:40             252       24.1         50       28.3      461.6       27.6       28.8       16.9     1012.7       30.4       19.5        0.0        0.0        0.0       0.00       91.7       0.00       1.68        0.0
17:42             270        9.7         50       28.2      461.6       28.2       28.7       16.8     1012.7       30.4       19.5        0.0        0.0        0.0       0.00       92.1       0.00       1.68        0.0
17:44             256       14.5         50       28.1      461.6       27.8       28.5       16.7     1012.7       30.4       19.5        0.0        0.0        0.0       0.00       92.5       0.00       1.68        0.0
17:46             234       19.3         51       28.0      461.6       27.5       28.5       16.9     1012.7       30.4       19.5        0.0        0.0        0.0       0.00       92.9       0.00       1.74        0.0
17:48             208       17.7         50       27.9      461.6       27.2       28.3       16.5     1012.8       30.4       19.5        0.0        0.0        0.0       0.00       93.5       0.00       1.74        0.0
17:50             223       11.3         51       27.8      461.6       27.2       28.3       16.8     1012.8       30.4       19.5        0.0        0.0        0.0       0.00       93.9       0.00       1.74        0.0
17:52             232       20.9         51       27.8      461.6       26.2       28.3       16.7     1012.7       30.4       19.5        0.0        0.0        0.0       0.00       94.3       0.00       1.74        0.0
17:54             214       24.1         51       27.7      461.6       26.5       28.2       16.7     1012.8       30.4       19.5        0.0        0.0        0.0       0.00       94.9       0.00       1.74        0.0
17:56             221       14.5         51       27.7      461.6       27.7       28.2       16.6     1012.8       30.4       19.5        0.0        0.0        0.0       0.00       95.3       0.00       1.74        0.0
17:58             214       17.7         51       27.6      461.6       26.7       28.1       16.6     1012.8       30.4       19.5        0.0        0.0        0.0       0.00       95.8       0.00       1.74        0.0
18:00             220       19.3         51       27.6      461.6       26.7       28.1       16.6     1012.8       30.4       19.5        0.0        0.0        0.0       0.00       96.2       0.00       1.74        0.0
18:02             204       20.9         51       27.5      461.6       27.2       28.0       16.5     1012.8       30.4       19.5        0.0        0.0        0.0       0.00       96.7       0.00       1.80        0.0
18:04             241       19.3         51       27.5      461.6       26.0       28.0       16.5     1012.8       30.4       19.5        0.0        0.0        0.0       0.00       97.2       0.00       1.80        0.0
18:06             228       22.5         52       27.4      461.6       26.1       27.9       16.7     1012.8       30.4       19.5        0.0        0.0        0.0       0.00       97.6       0.00       1.80        0.0
18:08             241        9.7         52       27.4      461.6       26.9       27.9       16.7     1012.8       30.4       19.5        0.0        0.0        0.0       0.00       97.8       0.00       1.80        0.0
18:10             253       14.5         52       27.4      461.6       27.1       27.9       16.7     1012.8       30.4       19.5        0.0        0.0        0.0       0.00       98.3       0.00       1.80        0.0
18:12             229       14.5         52       27.3      461.6       26.6       27.9       16.6     1012.8       30.4       19.5        0.0        0.0        0.0       0.00       98.7       0.00       1.80        0.0
18:14             217       20.9         52       27.3      461.6       26.1       27.8       16.6     1012.8       30.4       19.5        0.0        0.0        0.0       0.00       99.1       0.00       1.80        0.0
18:16             223       19.3         52       27.2      461.6       26.0       27.8       16.5     1012.8       30.4       19.5        0.0        0.0        0.0       0.00       99.5       0.00       1.85        0.0
18:18             232       16.1         52       27.2      461.6       26.4       27.7       16.5     1012.8       30.4       19.5        0.0        0.0        0.0       0.00      100.0       0.00       1.85        0.0
18:20             229        8.0         52       27.1      461.6       26.8       27.7       16.4     1012.8       30.4       19.5        0.0        0.0        0.0       0.00      100.3       0.00       1.85        0.0
18:22             247       17.7         52       27.1      461.6       26.4       27.7       16.4     1012.8       30.4       19.5        0.0        0.0        0.0       0.00      100.6       0.00       1.85        0.0
18:24             257       16.1         52       27.1      461.6       26.7       27.6       16.4     1012.8       30.4       19.5        0.0        0.0        0.0       0.00      101.0       0.00       1.85        0.0
18:26             215       14.5         53       26.9      461.6       25.9       27.5       16.6     1012.9       30.4       19.5        0.0        0.0        0.0       0.00      101.3       0.00       1.85        0.0
18:28             235       16.1         53       26.9      461.6       25.7       27.5       16.6     1012.8       30.4       19.5        0.0        0.0        0.0       0.00      101.7       0.00       1.85        0.0
18:30             225       12.9         53       26.9      461.6       26.1       27.5       16.5     1012.9       30.4       19.5        0.0        0.0        0.0       0.00      102.0       0.00       1.85        0.0
18:32             232        9.7         53       26.8      461.6       26.5       27.4       16.5     1012.9       30.4       19.5        0.0        0.0        0.0       0.00      102.3       0.00       1.91        0.0
18:34             219       17.7         53       26.8      461.6       26.0       27.4       16.4     1012.9       30.4       19.5        0.0        0.0        0.0       0.00      102.7       0.00       1.91        0.0
18:36             212       16.1         53       26.7      461.6       25.9       27.3       16.4     1012.9       30.4       19.5        0.0        0.0        0.0       0.00      103.2       0.00       1.91        0.0
18:38             224       12.9         53       26.6      461.6       25.8       27.2       16.3     1012.9       30.4       19.5        0.0        0.0        0.0       0.00      103.6       0.00       1.91        0.0
18:40             225       16.1         53       26.6      461.6       25.0       27.2       16.2     1013.0       30.4       19.5        0.0        0.0        0.0       0.00      104.0       0.00       1.91        0.0
18:42             248       14.5         54       26.4      461.6       26.4       27.1       16.4     1013.0       30.4       19.5        0.0        0.0        0.0       0.00      104.4       0.00       1.91        0.0
18:44             228       12.9         54       26.3      461.6       25.7       27.0       16.3     1012.9       30.4       19.5        0.0        0.0        0.0       0.00      104.7       0.00       1.91        0.0
18:46             225       12.9         54       26.3      461.6       25.2       27.0       16.3     1012.9       30.4       19.5        0.0        0.0        0.0       0.00      105.0       0.00       1.95        0.0
18:48             219       16.1         54       26.2      461.6       25.1       26.9       16.2     1013.0       30.4       19.5        0.0        0.0        0.0       0.00      105.4       0.00       1.95        0.0
18:50             221       19.3         55       26.2      461.6       24.4       26.9       16.4     1013.1       30.4       19.5        0.0        0.0        0.0       0.00      105.8       0.00       1.95        0.0
18:52             234       11.3         55       26.1      461.6       25.2       26.8       16.3     1013.0       30.4       19.5        0.0        0.0        0.0       0.00      106.2       0.00       1.95        0.0
18:54             227       11.3         55       26.0      461.6       25.1       26.7       16.3     1013.1       30.4       19.5        0.0        0.0        0.0       0.00      106.5       0.00       1.95        0.0
18:56             219       17.7         55       25.9      461.6       24.5       26.7       16.2     1013.2       30.4       19.5        0.0        0.0        0.0       0.00      106.9       0.00       1.95        0.0
18:58             227       12.9         56       25.8      461.6       24.9       26.6       16.4     1013.2       30.4       19.5        0.0        0.0        0.0       0.00      107.3       0.00       1.95        0.0
19:00             215       17.7         56       25.8      461.6       23.9       26.6       16.3     1013.3       30.4       19.5        0.0        0.0        0.0       0.00      107.6       0.00       1.95        0.0
19:02             228       11.3         56       25.7      461.6       25.3       26.4       16.2     1013.3       30.4       19.5        0.0        0.0        0.0       0.00      107.9       0.00       1.99        0.0
19:04             213       12.9         56       25.6      461.6       25.2       26.4       16.2     1013.3       30.4       19.5        0.0        0.0        0.0       0.00      108.2       0.00       1.99        0.0
19:06             230       11.3         57       25.6      461.6       25.2       26.4       16.5     1013.3       30.4       19.5        0.0        0.0        0.0       0.00      108.5       0.00       1.99        0.0
19:08             233       11.3         57       25.5      461.6       25.5       26.3       16.4     1013.4       30.4       19.5        0.0        0.0        0.0       0.00      108.9       0.00       1.99        0.0
19:10             216       16.1         57       25.4      461.6       23.6       26.3       16.3     1013.5       30.4       19.5        0.0        0.0        0.0       0.00      109.3       0.00       1.99        0.0
19:12             224       11.3         57       25.4      461.6       25.0       26.2       16.3     1013.4       30.4       19.5        0.0        0.0        0.0       0.00      109.6       0.00       1.99        0.0
19:14             227       11.3         57       25.3      461.6       24.3       26.2       16.2     1013.5       30.4       19.5        0.0        0.0        0.0       0.00      109.9       0.00       1.99        0.0
19:16             221       14.5         57       25.3      461.6       25.3       26.1       16.2     1013.5       30.4       19.5        0.0        0.0        0.0       0.00      110.2       0.00       2.02        0.0
19:18             221       11.3         57       25.2      461.6       25.2       26.1       16.1     1013.4       30.4       19.5        0.0        0.0        0.0       0.00      110.5       0.00       2.02        0.0
19:20             221        8.0         58       25.2      461.6       25.2       26.1       16.3     1013.5       30.4       19.5        0.0        0.0        0.0       0.00      110.8       0.00       2.02        0.0
19:22             223        8.0         58       25.1      461.6       25.1       26.0       16.3     1013.6       30.4       19.5        0.0        0.0        0.0       0.00      111.0       0.00       2.02        0.0
19:24             226        8.0         58       25.1      461.6       25.1       25.9       16.2     1013.7       30.4       19.5        0.0        0.0        0.0       0.00      111.3       0.00       2.02        0.0
19:26             223        8.0         58       25.0      461.6       25.0       25.9       16.2     1013.7       30.4       19.5        0.0        0.0        0.0       0.00      111.6       0.00       2.02        0.0
19:28             223        9.7         58       24.9      461.6       24.5       25.8       16.1     1013.7       30.4       19.5        0.0        0.0        0.0       0.00      111.8       0.00       2.02        0.0
19:30             221        9.7         59       24.9      461.6       24.9       25.9       16.4     1013.7       30.4       19.5        0.0        0.0        0.0       0.00      112.1       0.00       2.02        0.0
19:32             223        6.4         59       24.9      461.6       24.9       25.8       16.3     1013.7       30.4       19.5        0.0        0.0        0.0       0.00      112.3       0.00       2.05        0.0
19:34             219        9.7         59       24.8      461.6       24.4       25.8       16.3     1013.7       30.4       19.5        0.0        0.0        0.0       0.00      112.6       0.00       2.05        0.0
19:36             219        9.7         59       24.8      461.6       24.0       25.7       16.2     1013.7       30.4       19.5        0.0        0.0        0.0       0.00      112.8       0.00       2.05        0.0
19:38             224        8.0         59       24.7      461.6       24.7       25.7       16.2     1013.7       30.4       19.5        0.0        0.0        0.0       0.00      113.1       0.00       2.05        0.0
19:40             228       14.5         59       24.7      461.6       24.7       25.6       16.1     1013.7       30.4       19.5        0.0        0.0        0.0       0.00      113.4       0.00       2.05        0.0
19:42             229       12.9         59       24.6      461.6       23.8       25.6       16.1     1013.8       30.4       19.5        0.0        0.0        0.0       0.00      113.7       0.00       2.05        0.0
19:44             236        6.4         60       24.6      461.6       24.6       25.6       16.3     1013.8       30.4       19.5        0.0        0.0        0.0       0.00      113.9       0.00       2.05        0.0
19:46             240       12.9         60       24.5      461.6       24.0       25.5       16.2     1013.8       30.4       19.5        0.0        0.0        0.0       0.00      114.1       0.00       2.08        0.0
19:48             238       12.9         60       24.5      461.6       24.0       25.5       16.2     1013.8       30.4       19.5        0.0        0.0        0.0       0.00      114.4       0.00       2.08        0.0
19:50             234        9.7         60       24.4      461.6       24.0       25.4       16.2     1013.8       30.4       19.5        0.0        0.0        0.0       0.00      114.6       0.00       2.08        0.0
19:52             230       11.3         60       24.4      461.6       23.9       25.4       16.1     1013.7       30.4       19.5        0.0        0.0        0.0       0.00      114.9       0.00       2.08        0.0
19:54             232       11.3         60       24.3      461.6       23.2       25.3       16.1     1013.7       30.4       19.5        0.0        0.0        0.0       0.00      115.2       0.00       2.08        0.0
19:56             229       12.9         60       24.3      461.6       22.8       25.3       16.0     1013.7       30.4       19.5        0.0        0.0        0.0       0.00      115.5       0.00       2.08        0.0
19:58             244        8.0         60       24.2      461.6       23.7       25.2       16.0     1013.7       30.4       19.5        0.0        0.0        0.0       0.00      115.8       0.00       2.08        0.0
20:00             244        6.4         60       24.2      461.6       24.2       25.2       15.9     1013.7       30.4       19.5        0.0        0.0        0.0       0.00      116.1       0.00       2.08        0.0
20:02             241        9.7         60       24.1      461.6       23.6       25.1       15.9     1013.7       30.4       19.5        0.0        0.0        0.0       0.00      116.4       0.00       2.10        0.0
20:04             241        6.4         61       24.1      461.6       24.1       25.2       16.1     1013.8       30.4       19.5        0.0        0.0        0.0       0.00      116.6       0.00       2.10        0.0
20:06             241        9.7         61       24.1      461.6       24.1       25.1       16.1     1013.7       30.4       19.5        0.0        0.0        0.0       0.00      116.8       0.00       2.10        0.0
20:08             241        8.0         61       24.0      461.6       24.0       25.1       16.0     1013.9       30.4       19.5        0.0        0.0        0.0       0.00      117.0       0.00       2.10        0.0
20:10             240        8.0         61       23.9      461.6       23.4       25.0       16.0     1013.9       30.4       19.5        0.0        0.0        0.0       0.00      117.2       0.00       2.10        0.0
20:12             233       11.3         61       23.9      461.6       22.7       25.0       15.9     1014.0       30.4       19.5        0.0        0.0        0.0       0.00      117.5       0.00       2.10        0.0
20:14             232       16.1         61       23.9      461.6       21.7       25.0       15.9     1014.0       30.4       19.5        0.0        0.0        0.0       0.00      117.8       0.00       2.10        0.0
20:16             225       12.9         62       23.8      461.6       22.9       24.9       16.1     1013.9       30.4       19.5        0.0        0.0        0.0       0.00      118.0       0.00       2.12        0.0
20:18             225        9.7         61       23.8      461.6       23.8       24.8       15.8     1013.9       30.4       19.5        0.0        0.0        0.0       0.00      118.3       0.00       2.12        0.0
20:20             231        8.0         62       23.7      461.6       23.2       24.8       16.0     1014.0       30.4       19.5        0.0        0.0        0.0       0.00      118.5       0.00       2.12        0.0
20:22             234        8.0         62       23.6      461.6       23.1       24.7       15.9     1014.1       30.4       19.5        0.0        0.0        0.0       0.00      118.8       0.00       2.12        0.0
20:24             227       11.3         62       23.6      461.6       23.6       24.7       15.9     1014.1       30.4       19.5        0.0        0.0        0.0       0.00      119.1       0.00       2.12        0.0
20:26             227        9.7         62       23.5      461.6       23.0       24.6       15.8     1014.1       30.4       19.5        0.0        0.0        0.0       0.00      119.3       0.00       2.12        0.0
20:28             227       14.5         63       23.4      461.6       23.4       24.6       16.0     1014.1       30.4       19.5        0.0        0.0        0.0       0.00      119.6       0.00       2.12        0.0
20:30             234       16.1         63       23.4      461.6       23.4       24.6       16.0     1014.1       30.4       19.5        0.0        0.0        0.0       0.00      120.0       0.00       2.12        0.0
20:32             234        9.7         63       23.3      461.6       23.3       24.5       15.9     1014.2       30.4       19.5        0.0        0.0        0.0       0.00      120.2       0.00       2.14        0.0
20:34             234        9.7         63       23.3      461.6       23.3       24.5       15.8     1014.2       30.4       19.5        0.0        0.0        0.0       0.00      120.4       0.00       2.14        0.0
20:36             233        6.4         63       23.3      461.6       23.3       24.5       15.8     1014.3       30.4       19.5        0.0        0.0        0.0       0.00      120.7       0.00       2.14        0.0
20:38             221        9.7         63       23.2      461.6       23.2       24.4       15.8     1014.2       30.4       19.5        0.0        0.0        0.0       0.00      120.9       0.00       2.14        0.0
20:40             218       12.9         63       23.2      461.6       21.5       24.4       15.7     1014.3       30.4       19.5        0.0        0.0        0.0       0.00      121.2       0.00       2.14        0.0
20:42             219        9.7         64       23.1      461.6       23.1       24.4       15.9     1014.3       30.4       19.5        0.0        0.0        0.0       0.00      121.4       0.00       2.14        0.0
20:44             221        8.0         64       23.1      461.6       23.1       24.4       15.9     1014.3       30.4       19.5        0.0        0.0        0.0       0.00      121.7       0.00       2.14        0.0
20:46             223       11.3         64       23.1      461.6       22.5       24.3       15.9     1014.4       30.4       19.5        0.0        0.0        0.0       0.00      122.0       0.00       2.15        0.0
20:48             223        6.4         64       23.0      461.6       23.0       24.3       15.8     1014.4       30.4       19.5        0.0        0.0        0.0       0.00      122.2       0.00       2.15        0.0
20:50             224        9.7         64       22.9      461.6       22.0       24.2       15.8     1014.5       30.4       19.5        0.0        0.0        0.0       0.00      122.4       0.00       2.15        0.0
20:52             225        4.8         64       22.9      461.6       22.9       24.2       15.8     1014.6       30.4       19.5        0.0        0.0        0.0       0.00      122.7       0.00       2.15        0.0
20:54             225        6.4         65       22.9      461.6       22.9       24.2       16.0     1014.7       30.4       19.5        0.0        0.0        0.0       0.00      122.9       0.00       2.15        0.0
20:56             225        9.7         65       22.9      461.6       22.0       24.2       16.0     1014.7       30.4       19.5        0.0        0.0        0.0       0.00      123.1       0.00       2.15        0.0
20:58             228        9.7         65       22.8      461.6       22.8       24.1       15.9     1014.7       30.4       19.5        0.0        0.0        0.0       0.00      123.3       0.00       2.15        0.0
21:00             229        6.4         65       22.8      461.6       22.8       24.1       15.9     1014.7       30.4       19.5        0.0        0.0        0.0       0.00      123.5       0.00       2.15        0.0
21:02             229       11.3         65       22.8      461.6       22.8       24.1       15.9     1014.7       30.4       19.5        0.0        0.0        0.0       0.00      123.7       0.00       2.16        0.0
21:04             227        6.4         65       22.8      461.6       22.8       24.1       15.9     1014.7       30.4       19.5        0.0        0.0        0.0       0.00      124.0       0.00       2.16        0.0
21:06             227        9.7         65       22.7      461.6       22.7       24.0       15.8     1014.7       30.4       19.5        0.0        0.0        0.0       0.00      124.3       0.00       2.16        0.0
21:07             227        8.0         65       22.7      461.6       22.7       24.0       15.8     1014.7       30.4       19.5        0.0        0.0        0.0       0.00      124.5       0.00       2.16        0.0
21:10             226        4.8         65       22.7      461.6       22.7       24.0       15.8     1014.8       30.4       19.5        0.0        0.0        0.0       0.00      124.7       0.00       2.16        0.0
21:12             227        4.8         66       22.6      461.6       22.6       24.0       15.9     1014.7       30.4       19.5        0.0        0.0        0.0       0.00      124.8       0.00       2.16        0.0
21:14             226        9.7         66       22.6      461.6       22.6       24.0       15.9     1014.7       30.4       19.5        0.0        0.0        0.0       0.00      125.0       0.00       2.16        0.0
21:16             225       12.9         66       22.6      461.6       21.2       23.9       15.9     1014.7       30.4       19.5        0.0        0.0        0.0       0.00      125.3       0.00       2.16        0.0
21:18             225        6.4         66       22.5      461.6       22.5       23.9       15.8     1014.7       30.4       19.5        0.0        0.0        0.0       0.00      125.5       0.00       2.16        0.0
21:19             225       11.3         66       22.5      461.6       21.1       23.9       15.8     1014.7       30.4       19.5        0.0        0.0        0.0       0.00      125.7       0.00       2.16        0.0
21:22             225       11.3         66       22.4      461.6       21.9       23.8       15.8     1014.7       30.4       19.5        0.0        0.0        0.0       0.00      126.0       0.00       2.16        0.0
21:24             224        9.7         66       22.4      461.6       21.8       23.8       15.7     1014.7       30.4       19.5        0.0        0.0        0.0       0.00      126.3       0.00       2.16        0.0
21:26             224        6.4         66       22.4      461.6       22.4       23.8       15.7     1014.7       30.4       19.5        0.0        0.0        0.0       0.00      126.4       0.00       2.16        0.0
21:28             224       11.3         66       22.3      461.6       21.0       23.7       15.7     1014.7       30.4       19.5        0.0        0.0        0.0       0.00      126.6       0.00       2.16        0.0
21:30             225        6.4         67       22.3      461.6       22.3       23.7       15.9     1014.7       30.4       19.5        0.0        0.0        0.0       0.00      126.9       0.00       2.16        0.0
21:32             225        4.8         67       22.2      461.6       22.2       23.7       15.8     1014.7       30.4       19.5        0.0        0.0        0.0       0.00      127.0       0.00       2.17        0.0
21:34             225        8.0         67       22.2      461.6       21.6       23.7       15.8     1014.7       30.4       19.5        0.0        0.0        0.0       0.00      127.2       0.00       2.17        0.0
21:36             225        8.0         67       22.2      461.6       21.6       23.6       15.8     1014.7       30.4       19.5        0.0        0.0        0.0       0.00      127.4       0.00       2.17        0.0
21:38             225        6.4         67       22.2      461.6       22.2       23.6       15.8     1014.7       30.4       19.5        0.0        0.0        0.0       0.00      127.6       0.00       2.17        0.0
21:40             225        6.4         67       22.1      461.6       22.1       23.6       15.7     1014.7       30.4       19.5        0.0        0.0        0.0       0.00      127.8       0.00       2.17        0.0
21:42             225        8.0         67       22.1      461.6       22.1       23.6       15.7     1014.7       30.4       19.5        0.0        0.0        0.0       0.00      128.1       0.00       2.17        0.0
21:44             225        8.0         67       22.1      461.6       22.1       23.5       15.6     1014.8       30.4       19.5        0.0        0.0        0.0       0.00      128.3       0.00       2.17        0.0
21:46             225        6.4         67       22.0      461.6       22.0       23.4       15.6     1014.8       30.4       19.5        0.0        0.0        0.0       0.00      128.5       0.00       2.17        0.0
21:48             225        8.0         67       22.0      461.6       22.0       23.4       15.6     1014.8       30.4       19.5        0.0        0.0        0.0       0.00      128.6       0.00       2.17        0.0
21:50             225       11.3         68       21.9      461.6       20.9       23.5       15.8     1014.7       30.4       19.5        0.0        0.0        0.0       0.00      128.9       0.00       2.17        0.0
21:52             225        8.0         68       21.9      461.6       21.3       23.4       15.7     1014.7       30.4       19.5        0.0        0.0        0.0       0.00      129.1       0.00       2.17        0.0
21:53             225        8.0         68       21.9      461.6       21.9       23.4       15.7     1014.7       30.4       19.5        0.0        0.0        0.0       0.00      129.3       0.00       2.17        0.0
21:56             225        8.0         68       21.8      461.6       21.8       23.3       15.7     1014.7       30.4       19.5        0.0        0.0        0.0       0.00      129.5       0.00       2.17        0.0
21:58             225        6.4         68       21.8      461.6       21.8       23.3       15.7     1014.7       30.4       19.5        0.0        0.0        0.0       0.00      129.7       0.00       2.17        0.0
22:00             225        8.0         68       21.8      461.6       21.8       23.3       15.6     1014.7       30.4       19.5        0.0        0.0        0.0       0.00      129.8       0.00       2.17        0.0
22:02             225        8.0         68       21.7      461.6       21.7       23.2       15.6     1014.8       30.4       19.5        0.0        0.0        0.0       0.00      130.1       0.00       2.17        0.0
22:04             225        9.7         68       21.7      461.6       21.1       23.2       15.6     1014.7       30.4       19.5        0.0        0.0        0.0       0.00      130.3       0.00       2.17        0.0
22:06             225        6.4         68       21.7      461.6       21.7       23.2       15.5     1014.8       30.4       19.5        0.0        0.0        0.0       0.00      130.5       0.00       2.17        0.0
22:08             225        4.8         69       21.6      461.6       21.6       23.2       15.7     1014.8       30.4       19.5        0.0        0.0        0.0       0.00      130.7       0.00       2.17        0.0
22:10             225        6.4         69       21.6      461.6       21.6       23.1       15.6     1014.9       30.4       19.5        0.0        0.0        0.0       0.00      130.9       0.00       2.17        0.0
22:12             225        3.2         69       21.6      461.6       21.6       23.1       15.6     1015.0       30.4       19.5        0.0        0.0        0.0       0.00      131.0       0.00       2.17        0.0
22:14             225        4.8         69       21.6      461.6       21.6       23.1       15.6     1015.0       30.4       19.5        0.0        0.0        0.0       0.00      131.1       0.00       2.17        0.0
22:16             225        6.4         69       21.5      461.6       21.5       23.1       15.6     1015.1       30.4       19.5        0.0        0.0        0.0       0.00      131.3       0.00       2.17        0.0
22:18             225        4.8         69       21.5      461.6       21.5       23.1       15.6     1015.1       30.4       19.5        0.0        0.0        0.0       0.00      131.4       0.00       2.17        0.0
22:20             225        6.4         69       21.4      461.6       21.4       23.0       15.5     1015.0       30.4       19.5        0.0        0.0        0.0       0.00      131.6       0.00       2.17        0.0
22:22             225        4.8         69       21.4      461.6       21.4       23.0       15.5     1015.0       30.4       19.5        0.0        0.0        0.0       0.00      131.7       0.00       2.17        0.0
22:24             225        4.8         69       21.4      461.6       21.4       23.0       15.5     1015.0       30.4       19.5        0.0        0.0        0.0       0.00      131.9       0.00       2.17        0.0
22:26             225        8.0         70       21.4      461.6       21.4       23.0       15.7     1015.0       30.4       19.5        0.0        0.0        0.0       0.00      132.0       0.00       2.17        0.0
22:28             225        6.4         70       21.4      461.6       21.4       23.0       15.7     1015.1       30.4       19.5        0.0        0.0        0.0       0.00      132.2       0.00       2.17        0.0
22:30             225        3.2         70       21.4      461.6       21.4       23.0       15.7     1015.1       30.4       19.5        0.0        0.0        0.0       0.00      132.3       0.00       2.17        0.0
22:32             224        1.6         70       21.3      461.6       21.3       23.0       15.6     1015.0       30.4       19.5        0.0        0.0        0.0       0.00      132.4       0.00       2.17        0.0
22:34             225        0.0         70       21.3      461.6       21.3       23.0       15.6     1015.2       30.4       19.5        0.0        0.0        0.0       0.00      132.4       0.00       2.17        0.0
22:35             225        0.0         70       21.3      461.6       21.3       22.9       15.6     1015.2       30.4       19.5        0.0        0.0        0.0       0.00      132.4       0.00       2.17        0.0
22:38             225        0.0         70       21.3      461.6       21.3       22.9       15.6     1015.2       30.4       19.5        0.0        0.0        0.0       0.00      132.4       0.00       2.17        0.0
22:40             224        0.0         70       21.2      461.6       21.2       22.9       15.5     1015.2       30.4       19.5        0.0        0.0        0.0       0.00      132.4       0.00       2.17        0.0
22:42             224        0.0         70       21.2      461.6       21.2       22.9       15.5     1015.3       30.4       19.5        0.0        0.0        0.0       0.00      132.4       0.00       2.17        0.0
22:44             225        0.0         70       21.2      461.6       21.2       22.8       15.5     1015.2       30.4       19.5        0.0        0.0        0.0       0.00      132.4       0.00       2.17        0.0
22:46             225        0.0         70       21.1      461.6       21.1       22.8       15.4     1015.3       30.4       19.5        0.0        0.0        0.0       0.00      132.4       0.00       2.17        0.0
22:48             225        0.0         71       21.1      461.6       21.1       22.8       15.6     1015.5       30.4       19.5        0.0        0.0        0.0       0.00      132.4       0.00       2.17        0.0
22:49             225        0.0         71       21.1      461.6       21.1       22.8       15.6     1015.4       30.4       19.5        0.0        0.0        0.0       0.00      132.4       0.00       2.17        0.0
22:51             225        8.0         71       21.1      461.6       20.4       22.8       15.6     1015.4       30.4       19.5        0.0        0.0        0.0       0.00      132.4       0.00       2.17        0.0
22:54             224        4.8         71       21.0      461.6       21.0       22.7       15.5     1015.3       30.4       19.5        0.0        0.0        0.0       0.00      132.5       0.00       2.17        0.0
22:56             224        4.8         71       21.0      461.6       21.0       22.7       15.5     1015.3       30.4       19.5        0.0        0.0        0.0       0.00      132.7       0.00       2.17        0.0
22:57             225        6.4         71       20.9      461.6       20.9       22.7       15.5     1015.4       30.4       19.5        0.0        0.0        0.0       0.00      132.8       0.00       2.17        0.0
23:00             225        6.4         71       20.9      461.6       20.9       22.6       15.4     1015.3       30.4       19.5        0.0        0.0        0.0       0.00      133.0       0.00       2.17        0.0
23:01             224        4.8         71       20.8      461.6       20.8       22.5       15.4     1015.4       30.4       19.5        0.0        0.0        0.0       0.00      133.2       0.00       2.17        0.0
23:04             225        6.4         72       20.8      461.6       20.8       22.6       15.6     1015.3       30.4       19.5        0.0        0.0        0.0       0.00      133.4       0.00       2.17        0.0
23:06             224        8.0         72       20.7      461.6       20.7       22.5       15.5     1015.4       30.4       19.5        0.0        0.0        0.0       0.00      133.5       0.00       2.17        0.0
23:08             225       11.3         72       20.7      461.6       20.7       22.4       15.4     1015.5       30.4       19.5        0.0        0.0        0.0       0.00      133.7       0.00       2.17        0.0
23:09             224        6.4         72       20.6      461.6       20.6       22.4       15.4     1015.4       30.4       19.5        0.0        0.0        0.0       0.00      133.9       0.00       2.17        0.0
23:12             225        8.0         73       20.6      461.6       20.6       22.4       15.6     1015.3       30.4       19.5        0.0        0.0        0.0       0.00      134.1       0.00       2.17        0.0
23:14             224        6.4         73       20.5      461.6       20.5       22.3       15.5     1015.3       30.4       19.5        0.0        0.0        0.0       0.00      134.3       0.00       2.17        0.0
23:16             225        9.7         73       20.5      461.6       20.5       22.3       15.5     1015.3       30.4       19.5        0.0        0.0        0.0       0.00      134.5       0.00       2.17        0.0
23:18             224        8.0         73       20.4      461.6       20.4       22.3       15.4     1015.3       30.4       19.5        0.0        0.0        0.0       0.00      134.7       0.00       2.17        0.0
23:20             224        6.4         73       20.4      461.6       20.4       22.2       15.4     1015.3       30.4       19.5        0.0        0.0        0.0       0.00      134.9       0.00       2.17        0.0
23:22             225        8.0         74       20.4      461.6       20.4       22.3       15.6     1015.3       30.4       19.5        0.0        0.0        0.0       0.00      135.1       0.00       2.17        0.0
23:24             225        4.8         74       20.3      461.6       20.3       22.2       15.6     1015.4       30.4       19.5        0.0        0.0        0.0       0.00      135.3       0.00       2.17        0.0
23:26             224        6.4         74       20.3      461.6       20.3       22.2       15.6     1015.5       30.4       19.5        0.0        0.0        0.0       0.00      135.5       0.00       2.17        0.0
23:28             225        6.4         74       20.3      461.6       20.3       22.2       15.6     1015.7       30.4       19.5        0.0        0.0        0.0       0.00      135.6       0.00       2.17        0.0
23:30             225        6.4         74       20.3      461.6       20.3       22.2       15.5     1015.7       30.4       19.5        0.0        0.0        0.0       0.00      135.8       0.00       2.17        0.0
23:32             225        6.4         74       20.3      461.6       20.3       22.2       15.5     1015.6       30.4       19.5        0.0        0.0        0.0       0.00      135.9       0.00       2.17        0.0
23:34             225        4.8         74       20.3      461.6       20.3       22.2       15.5     1015.7       30.4       19.5        0.0        0.0        0.0       0.00      136.1       0.00       2.17        0.0
23:35             225        6.4         75       20.3      461.6       20.3       22.3       15.7     1015.6       30.4       19.5        0.0        0.0        0.0       0.00      136.2       0.00       2.17        0.0
23:38             225        4.8         75       20.2      461.6       20.2       22.2       15.7     1015.7       30.4       19.5        0.0        0.0        0.0       0.00      136.4       0.00       2.17        0.0
23:40             225        8.0         75       20.2      461.6       20.2       22.2       15.7     1015.6       30.4       19.5        0.0        0.0        0.0       0.00      136.6       0.00       2.17        0.0
23:42             225        6.4         75       20.2      461.6       20.2       22.2       15.6     1015.6       30.4       19.5        0.0        0.0        0.0       0.00      136.8       0.00       2.17        0.0
23:44             226        6.4         75       20.2      461.6       20.2       22.2       15.6     1015.6       30.4       19.5        0.0        0.0        0.0       0.00      136.9       0.00       2.17        0.0
23:46             225        8.0         75       20.2      461.6       20.2       22.2       15.6     1015.6       30.4       19.5        0.0        0.0        0.0       0.00      137.1       0.00       2.17        0.0
23:48             225        8.0         75       20.1      461.6       20.1       22.1       15.5     1015.6       30.4       19.5        0.0        0.0        0.0       0.00      137.3       0.00       2.17        0.0
23:50             225        6.4         75       20.1      461.6       20.1       22.1       15.5     1015.6       30.4       19.5        0.0        0.0        0.0       0.00      137.4       0.00       2.17        0.0
23:52             225        6.4         75       20.1      461.6       20.1       22.1       15.5     1015.5       30.4       19.5        0.0        0.0        0.0       0.00      137.6       0.00       2.17        0.0
23:54             225        6.4         75       20.1      461.6       20.1       22.1       15.5     1015.5       30.4       19.5        0.0        0.0        0.0       0.00      137.7       0.00       2.17        0.0
23:56             225        6.4         75       20.1      461.6       20.1       22.0       15.5     1015.4       30.4       19.5        0.0        0.0        0.0       0.00      137.9       0.00       2.17        0.0
23:58             226        6.4         75       20.1      461.6       20.1       22.0       15.5     1015.4       30.4       19.5        0.0        0.0        0.0       0.00      138.1       0.00       2.17        0.0


Detalle de hace 2 das:

15/8/18
Time         Wind Dir  Wind Gust   Humidity       Temp   Tot Rain Wind Chill Heat Index  Dew Point   Barom SL Temp Out H Temp Out L  DailyRain   HourRain   24HrRain   RainRate   Wind Run   Deg Heat   Deg Cool  MonthRain
                          km/hr          %         C         mm         C         C         C         mb         C         C         mm         mm         mm      mm/hr         km         C         C         mm
0:00              223        6.4         79       19.7      461.6       19.7       21.9       15.9     1014.5       19.7       19.7        0.0        0.0        0.0       0.00      158.8       0.00       3.98        0.0
0:01              223        4.8         79       19.7      461.6       19.7       21.9       15.9     1014.5       19.7       19.7        0.0        0.0        0.0       0.00        0.2       0.00       0.00        0.0
0:04              223        8.0         79       19.6      461.6       19.6       21.9       15.9     1014.5       19.7       19.6        0.0        0.0        0.0       0.00        0.3       0.00       0.00        0.0
0:06              223        6.4         79       19.6      461.6       19.6       21.8       15.8     1014.5       19.7       19.6        0.0        0.0        0.0       0.00        0.5       0.00       0.00        0.0
0:08              222        6.4         79       19.6      461.6       19.6       21.8       15.8     1014.5       19.7       19.6        0.0        0.0        0.0       0.00        0.7       0.00       0.00        0.0
0:10              222        6.4         80       19.6      461.6       19.6       21.9       16.0     1014.5       19.7       19.6        0.0        0.0        0.0       0.00        0.8       0.00       0.00        0.0
0:12              222        6.4         79       19.5      461.6       19.5       21.8       15.8     1014.5       19.7       19.5        0.0        0.0        0.0       0.00        1.0       0.00       0.00        0.0
0:14              222        4.8         80       19.5      461.6       19.5       21.8       16.0     1014.5       19.7       19.4        0.0        0.0        0.0       0.00        1.2       0.00       0.00        0.0
0:16              222        4.8         80       19.4      461.6       19.4       21.8       15.9     1014.5       19.7       19.4        0.0        0.0        0.0       0.00        1.3       0.00       0.00        0.0
0:18              222        4.8         80       19.4      461.6       19.4       21.7       15.9     1014.5       19.7       19.4        0.0        0.0        0.0       0.00        1.5       0.00       0.00        0.0
0:20              222        4.8         80       19.4      461.6       19.4       21.7       15.9     1014.4       19.7       19.4        0.0        0.0        0.0       0.00        1.6       0.00       0.00        0.0
0:22              222        4.8         80       19.4      461.6       19.4       21.7       15.9     1014.4       19.7       19.4        0.0        0.0        0.0       0.00        1.8       0.00       0.00        0.0
0:24              222        6.4         80       19.4      461.6       19.4       21.7       15.9     1014.5       19.7       19.4        0.0        0.0        0.0       0.00        1.9       0.00       0.00        0.0
0:25              222        6.4         81       19.4      461.6       19.4       21.8       16.0     1014.5       19.7       19.4        0.0        0.0        0.0       0.00        2.0       0.00       0.00        0.0
0:28              224        8.0         81       19.4      461.6       19.4       21.9       16.1     1014.4       19.7       19.4        0.0        0.0        0.0       0.00        2.2       0.00       0.00        0.0
0:30              224        1.6         81       19.4      461.6       19.4       21.9       16.1     1014.4       19.7       19.4        0.0        0.0        0.0       0.00        2.4       0.00       0.00        0.0
0:32              224        6.4         81       19.4      461.6       19.4       21.9       16.1     1014.4       19.7       19.4        0.0        0.0        0.0       0.00        2.5       0.00       0.00        0.0
0:34              224        6.4         81       19.5      461.6       19.5       21.9       16.2     1014.4       19.7       19.4        0.0        0.0        0.0       0.00        2.7       0.00       0.00        0.0
0:36              224        6.4         82       19.4      461.6       19.4       21.9       16.3     1014.4       19.7       19.4        0.0        0.0        0.0       0.00        2.8       0.00       0.00        0.0
0:38              224        0.0         82       19.5      461.6       19.5       22.0       16.3     1014.4       19.7       19.4        0.0        0.0        0.0       0.00        2.9       0.00       0.00        0.0
0:40              224        0.0         82       19.4      461.6       19.4       21.9       16.3     1014.4       19.7       19.4        0.0        0.0        0.0       0.00        2.9       0.00       0.00        0.0
0:42              224        0.0         82       19.4      461.6       19.4       21.9       16.3     1014.3       19.7       19.4        0.0        0.0        0.0       0.00        2.9       0.00       0.00        0.0
0:44              224        0.0         82       19.4      461.6       19.4       21.9       16.3     1014.3       19.7       19.4        0.0        0.0        0.0       0.00        2.9       0.00       0.00        0.0
0:46              224        0.0         82       19.4      461.6       19.4       21.9       16.2     1014.3       19.7       19.4        0.0        0.0        0.0       0.00        2.9       0.00       0.00        0.0
0:48              225        0.0         82       19.4      461.6       19.4       21.9       16.2     1014.4       19.7       19.4        0.0        0.0        0.0       0.00        2.9       0.00       0.00        0.0
0:50              224        6.4         82       19.4      461.6       19.4       21.9       16.2     1014.3       19.7       19.3        0.0        0.0        0.0       0.00        2.9       0.00       0.00        0.0
0:52              223        6.4         82       19.3      461.6       19.3       21.8       16.2     1014.3       19.7       19.3        0.0        0.0        0.0       0.00        3.0       0.00       0.00        0.0
0:54              223        6.4         82       19.3      461.6       19.3       21.8       16.1     1014.4       19.7       19.3        0.0        0.0        0.0       0.00        3.2       0.00       0.00        0.0
0:56              223        4.8         83       19.3      461.6       19.3       21.9       16.3     1014.3       19.7       19.3        0.0        0.0        0.0       0.00        3.3       0.00       0.00        0.0
0:58              223        4.8         83       19.3      461.6       19.3       21.9       16.3     1014.3       19.7       19.2        0.0        0.0        0.0       0.00        3.4       0.00       0.00        0.0
1:00              223        6.4         83       19.2      461.6       19.2       21.8       16.3     1014.3       19.7       19.2        0.0        0.0        0.0       0.00        3.6       0.00       0.00        0.0
1:02              221        6.4         83       19.3      461.6       19.3       21.9       16.3     1014.3       19.7       19.2        0.0        0.0        0.0       0.00        3.7       0.00       0.00        0.0
1:03              221        6.4         83       19.2      461.6       19.2       21.8       16.3     1014.3       19.7       19.2        0.0        0.0        0.0       0.00        3.8       0.00       0.00        0.0
1:05              221        0.0         83       19.2      461.6       19.2       21.8       16.3     1014.4       19.7       19.2        0.0        0.0        0.0       0.00        3.8       0.00       0.00        0.0
1:08              221        6.4         84       19.2      461.6       19.2       21.9       16.5     1014.2       19.7       19.2        0.0        0.0        0.0       0.00        3.9       0.00       0.00        0.0
1:10              221        4.8         84       19.2      461.6       19.2       21.9       16.5     1014.2       19.7       19.2        0.0        0.0        0.0       0.00        4.0       0.00       0.00        0.0
1:12              209        9.7         84       19.2      461.6       18.0       21.9       16.5     1014.2       19.7       19.2        0.0        0.0        0.0       0.00        4.2       0.00       0.00        0.0
1:14              202        6.4         84       19.2      461.6       19.2       21.9       16.5     1014.1       19.7       19.2        0.0        0.0        0.0       0.00        4.4       0.00       0.00        0.0
1:16              202        6.4         84       19.2      461.6       19.2       21.9       16.5     1014.2       19.7       19.2        0.0        0.0        0.0       0.00        4.5       0.00       0.00        0.0
1:18              202        0.0         84       19.2      461.6       19.2       21.8       16.4     1014.2       19.7       19.2        0.0        0.0        0.0       0.00        4.5       0.00       0.00        0.0
1:20              202        0.0         84       19.2      461.6       19.2       21.8       16.4     1014.2       19.7       19.2        0.0        0.0        0.0       0.00        4.5       0.00       0.00        0.0
1:22              202        0.0         84       19.2      461.6       19.2       21.8       16.4     1014.2       19.7       19.2        0.0        0.0        0.0       0.00        4.5       0.00       0.00        0.0
1:24              202        0.0         84       19.2      461.6       19.2       21.8       16.4     1014.2       19.7       19.2        0.0        0.0        0.0       0.00        4.5       0.00       0.00        0.0
1:25              202        0.0         84       19.1      461.6       19.1       21.8       16.3     1014.2       19.7       19.1        0.0        0.0        0.0       0.00        4.5       0.00       0.00        0.0
1:28              202        0.0         84       19.1      461.6       19.1       21.8       16.3     1014.3       19.7       19.1        0.0        0.0        0.0       0.00        4.5       0.00       0.00        0.0
1:30              202        0.0         84       19.1      461.6       19.1       21.8       16.3     1014.2       19.7       19.1        0.0        0.0        0.0       0.00        4.5       0.00       0.00        0.0
1:32              202        0.0         85       19.1      461.6       19.1       21.8       16.5     1014.1       19.7       19.1        0.0        0.0        0.0       0.00        4.5       0.00       0.00        0.0
1:33              202        0.0         85       19.1      461.6       19.1       21.8       16.5     1014.2       19.7       19.1        0.0        0.0        0.0       0.00        4.5       0.00       0.00        0.0
1:36              202        0.0         85       19.1      461.6       19.1       21.8       16.5     1014.3       19.7       19.1        0.0        0.0        0.0       0.00        4.5       0.00       0.00        0.0
1:37              202        0.0         85       19.1      461.6       19.1       21.8       16.5     1014.2       19.7       19.1        0.0        0.0        0.0       0.00        4.5       0.00       0.00        0.0
1:40              196        9.7         85       19.1      461.6       19.1       21.8       16.5     1014.2       19.7       19.1        0.0        0.0        0.0       0.00        4.7       0.00       0.00        0.0
1:42              189        9.7         86       19.2      461.6       19.2       22.0       16.8     1014.3       19.7       19.1        0.0        0.0        0.0       0.00        4.9       0.00       0.00        0.0
1:44              184        6.4         86       19.2      461.6       19.2       22.0       16.8     1014.2       19.7       19.1        0.0        0.0        0.0       0.00        5.1       0.00       0.00        0.0
1:46              180        8.0         86       19.2      461.6       18.5       22.0       16.8     1014.4       19.7       19.1        0.0        0.0        0.0       0.00        5.3       0.00       0.00        0.0
1:47              180        9.7         86       19.2      461.6       19.2       22.0       16.8     1014.4       19.7       19.1        0.0        0.0        0.0       0.00        5.6       0.00       0.00        0.0
1:50              183        8.0         86       19.2      461.6       19.2       22.0       16.8     1014.3       19.7       19.1        0.0        0.0        0.0       0.00        5.8       0.00       0.00        0.0
1:52              184        8.0         86       19.2      461.6       19.2       22.0       16.8     1014.3       19.7       19.1        0.0        0.0        0.0       0.00        6.0       0.00       0.00        0.0
1:54              184        9.7         86       19.1      461.6       19.1       21.9       16.7     1014.3       19.7       19.1        0.0        0.0        0.0       0.00        6.2       0.00       0.00        0.0
1:56              185        6.4         86       19.1      461.6       19.1       21.9       16.7     1014.3       19.7       19.1        0.0        0.0        0.0       0.00        6.4       0.00       0.00        0.0
1:58              184        4.8         86       19.1      461.6       19.1       21.9       16.7     1014.2       19.7       19.1        0.0        0.0        0.0       0.00        6.6       0.00       0.00        0.0
2:00              184        8.0         87       19.1      461.6       19.1       22.0       16.9     1014.2       19.7       19.1        0.0        0.0        0.0       0.00        6.8       0.00       0.00        0.0
2:02              186        6.4         87       19.1      461.6       19.1       22.0       16.9     1014.3       19.7       19.1        0.0        0.0        0.0       0.00        7.0       0.00       0.00        0.0
2:04              186        6.4         87       19.1      461.6       19.1       22.0       16.9     1014.2       19.7       19.1        0.0        0.0        0.0       0.00        7.1       0.00       0.00        0.0
2:06              185        4.8         87       19.1      461.6       19.1       22.0       16.9     1014.2       19.7       19.1        0.0        0.0        0.0       0.00        7.3       0.00       0.00        0.0
2:08              184        6.4         87       19.1      461.6       19.1       22.0       16.9     1014.2       19.7       19.1        0.0        0.0        0.0       0.00        7.5       0.00       0.00        0.0
2:10              184        9.7         87       19.1      461.6       18.3       21.9       16.8     1014.2       19.7       19.1        0.0        0.0        0.0       0.00        7.7       0.00       0.00        0.0
2:12              184        8.0         87       19.1      461.6       19.1       21.9       16.8     1014.1       19.7       19.1        0.0        0.0        0.0       0.00        8.0       0.00       0.00        0.0
2:14              184        4.8         87       19.1      461.6       19.1       21.9       16.8     1014.3       19.7       19.1        0.0        0.0        0.0       0.00        8.1       0.00       0.00        0.0
2:16              184        4.8         87       19.1      461.6       19.1       21.9       16.8     1014.2       19.7       19.1        0.0        0.0        0.0       0.00        8.3       0.00       0.00        0.0
2:18              184        6.4         87       19.0      461.6       19.0       21.9       16.8     1014.1       19.7       19.0        0.0        0.0        0.0       0.00        8.4       0.00       0.00        0.0
2:20              184        4.8         87       18.9      461.6       18.9       21.8       16.7     1014.2       19.7       18.9        0.0        0.0        0.0       0.00        8.5       0.00       0.00        0.0
2:22              184        6.4         87       18.9      461.6       18.9       21.8       16.7     1014.2       19.7       18.9        0.0        0.0        0.0       0.00        8.6       0.00       0.00        0.0
2:24              185        3.2         88       18.9      461.6       18.9       21.9       16.9     1014.2       19.7       18.9        0.0        0.0        0.0       0.00        8.7       0.00       0.00        0.0
2:26              185        4.8         88       18.9      461.6       18.9       21.9       16.9     1014.2       19.7       18.9        0.0        0.0        0.0       0.00        8.8       0.00       0.00        0.0
2:28              185        3.2         88       18.9      461.6       18.9       21.9       16.9     1014.2       19.7       18.9        0.0        0.0        0.0       0.00        8.9       0.00       0.00        0.0
2:30              185        1.6         88       18.9      461.6       18.9       21.9       16.9     1014.2       19.7       18.9        0.0        0.0        0.0       0.00        9.0       0.00       0.00        0.0
2:32              185        4.8         88       18.9      461.6       18.9       21.9       16.9     1014.1       19.7       18.9        0.0        0.0        0.0       0.00        9.1       0.00       0.00        0.0
2:34              186        4.8         88       18.9      461.6       18.9       21.9       16.9     1014.1       19.7       18.9        0.0        0.0        0.0       0.00        9.2       0.00       0.00        0.0
2:36              196        8.0         88       18.9      461.6       18.9       21.9       16.9     1014.1       19.7       18.9        0.0        0.0        0.0       0.00        9.4       0.00       0.00        0.0
2:38              196        3.2         88       18.8      461.6       18.8       21.8       16.8     1014.1       19.7       18.8        0.0        0.0        0.0       0.00        9.5       0.00       0.00        0.0
2:40              196        3.2         88       18.8      461.6       18.8       21.8       16.8     1014.1       19.7       18.8        0.0        0.0        0.0       0.00        9.5       0.00       0.00        0.0
2:42              196        4.8         88       18.8      461.6       18.8       21.8       16.8     1014.1       19.7       18.8        0.0        0.0        0.0       0.00        9.6       0.00       0.00        0.0
2:44              200        6.4         88       18.8      461.6       18.8       21.7       16.8     1014.0       19.7       18.8        0.0        0.0        0.0       0.00        9.8       0.00       0.00        0.0
2:46              200        3.2         88       18.8      461.6       18.8       21.7       16.8     1014.0       19.7       18.7        0.0        0.0        0.0       0.00        9.9       0.00       0.00        0.0
2:48              200        3.2         88       18.7      461.6       18.7       21.7       16.7     1014.1       19.7       18.7        0.0        0.0        0.0       0.00       10.0       0.00       0.00        0.0
2:49              200        4.8         88       18.7      461.6       18.7       21.6       16.6     1014.1       19.7       18.7        0.0        0.0        0.0       0.00       10.1       0.00       0.00        0.0
2:52              200        4.8         88       18.6      461.6       18.6       21.6       16.6     1014.1       19.7       18.6        0.0        0.0        0.0       0.00       10.2       0.00       0.00        0.0
2:54              202        6.4         88       18.6      461.6       18.6       21.6       16.6     1014.1       19.7       18.6        0.0        0.0        0.0       0.00       10.4       0.00       0.00        0.0
2:56              204        6.4         89       18.6      461.6       18.6       21.6       16.7     1014.1       19.7       18.6        0.0        0.0        0.0       0.00       10.6       0.00       0.00        0.0
2:58              205        6.4         89       18.5      461.6       18.5       21.6       16.7     1014.1       19.7       18.5        0.0        0.0        0.0       0.00       10.7       0.00       0.00        0.0
3:00              207        4.8         89       18.5      461.6       18.5       21.6       16.7     1014.1       19.7       18.5        0.0        0.0        0.0       0.00       10.9       0.00       0.00        0.0
3:01              208        8.0         89       18.4      461.6       17.6       21.5       16.6     1014.1       19.7       18.4        0.0        0.0        0.0       0.00       11.1       0.00       0.00        0.0
3:04              209        8.0         89       18.4      461.6       18.4       21.4       16.5     1014.1       19.7       18.4        0.0        0.0        0.0       0.00       11.2       0.00       0.00        0.0
3:06              210        8.0         89       18.4      461.6       18.4       21.4       16.5     1014.1       19.7       18.4        0.0        0.0        0.0       0.00       11.4       0.00       0.00        0.0
3:08              210        6.4         89       18.4      461.6       18.4       21.4       16.5     1014.3       19.7       18.3        0.0        0.0        0.0       0.00       11.6       0.00       0.00        0.0
3:10              211        9.7         89       18.3      461.6       18.3       21.4       16.5     1014.3       19.7       18.3        0.0        0.0        0.0       0.00       11.8       0.00       0.00        0.0
3:12              211        4.8         89       18.3      461.6       18.3       21.4       16.5     1014.3       19.7       18.3        0.0        0.0        0.0       0.00       11.9       0.00       0.00        0.0
3:14              211        6.4         90       18.3      461.6       18.3       21.4       16.6     1014.3       19.7       18.3        0.0        0.0        0.0       0.00       12.1       0.00       0.00        0.0
3:16              211        8.0         90       18.3      461.6       17.5       21.4       16.6     1014.3       19.7       18.3        0.0        0.0        0.0       0.00       12.2       0.00       0.00        0.0
3:18              211        6.4         90       18.2      461.6       18.2       21.4       16.6     1014.3       19.7       18.2        0.0        0.0        0.0       0.00       12.4       0.00       0.00        0.0
3:20              212        8.0         90       18.2      461.6       18.2       21.4       16.6     1014.3       19.7       18.2        0.0        0.0        0.0       0.00       12.5       0.00       0.00        0.0
3:22              212        8.0         90       18.2      461.6       17.4       21.4       16.6     1014.3       19.7       18.2        0.0        0.0        0.0       0.00       12.7       0.00       0.00        0.0
3:24              212        8.0         90       18.2      461.6       18.2       21.4       16.6     1014.3       19.7       18.2        0.0        0.0        0.0       0.00       13.0       0.00       0.00        0.0
3:26              213        6.4         90       18.2      461.6       18.2       21.3       16.5     1014.4       19.7       18.2        0.0        0.0        0.0       0.00       13.1       0.00       0.00        0.0
3:28              213        9.7         90       18.2      461.6       18.2       21.3       16.5     1014.4       19.7       18.2        0.0        0.0        0.0       0.00       13.3       0.00       0.00        0.0
3:30              213        9.7         90       18.2      461.6       18.2       21.3       16.5     1014.3       19.7       18.2        0.0        0.0        0.0       0.00       13.5       0.00       0.00        0.0
3:31              213        8.0         90       18.2      461.6       18.2       21.3       16.5     1014.4       19.7       18.2        0.0        0.0        0.0       0.00       13.7       0.00       0.00        0.0
3:33              213        6.4         90       18.1      461.6       18.1       21.2       16.4     1014.4       19.7       18.1        0.0        0.0        0.0       0.00       13.9       0.00       0.00        0.0
3:36              213        4.8         90       18.1      461.6       18.1       21.2       16.4     1014.3       19.7       18.1        0.0        0.0        0.0       0.00       14.1       0.00       0.00        0.0
3:38              213        8.0         90       18.1      461.6       18.1       21.2       16.4     1014.4       19.7       18.1        0.0        0.0        0.0       0.00       14.2       0.00       0.00        0.0
3:40              213        6.4         90       18.1      461.6       18.1       21.2       16.4     1014.4       19.7       18.1        0.0        0.0        0.0       0.00       14.4       0.00       0.00        0.0
3:41              213        6.4         90       18.1      461.6       18.1       21.2       16.4     1014.4       19.7       18.1        0.0        0.0        0.0       0.00       14.6       0.00       0.00        0.0
3:44              213        6.4         91       18.1      461.6       18.1       21.3       16.6     1014.4       19.7       18.1        0.0        0.0        0.0       0.00       14.7       0.00       0.00        0.0
3:46              213        6.4         91       18.1      461.6       18.1       21.3       16.6     1014.4       19.7       18.1        0.0        0.0        0.0       0.00       14.9       0.00       0.00        0.0
3:48              213        4.8         91       18.1      461.6       18.1       21.3       16.6     1014.4       19.7       18.1        0.0        0.0        0.0       0.00       15.0       0.00       0.00        0.0
3:50              213        6.4         91       18.1      461.6       18.1       21.3       16.6     1014.4       19.7       18.1        0.0        0.0        0.0       0.00       15.1       0.00       0.00        0.0
3:52              213        3.2         91       18.1      461.6       18.1       21.3       16.6     1014.4       19.7       18.1        0.0        0.0        0.0       0.00       15.3       0.00       0.00        0.0
3:54              213        3.2         91       18.1      461.6       18.1       21.3       16.6     1014.4       19.7       18.1        0.0        0.0        0.0       0.00       15.4       0.00       0.00        0.0
3:56              213        3.2         91       18.1      461.6       18.1       21.3       16.6     1014.4       19.7       18.1        0.0        0.0        0.0       0.00       15.5       0.00       0.00        0.0
3:58              213        4.8         91       18.1      461.6       18.1       21.3       16.6     1014.4       19.7       18.0        0.0        0.0        0.0       0.00       15.6       0.00       0.00        0.0
4:00              213        4.8         91       18.0      461.6       18.0       21.2       16.5     1014.4       19.7       18.0        0.0        0.0        0.0       0.00       15.7       0.00       0.00        0.0
4:02              213        0.0         91       18.0      461.6       18.0       21.2       16.5     1014.4       19.7       18.0        0.0        0.0        0.0       0.00       15.7       0.00       0.00        0.0
4:04              213        0.0         91       18.0      461.6       18.0       21.2       16.5     1014.5       19.7       18.0        0.0        0.0        0.0       0.00       15.7       0.00       0.00        0.0
4:06              213        0.0         91       18.0      461.6       18.0       21.2       16.5     1014.4       19.7       18.0        0.0        0.0        0.0       0.00       15.7       0.00       0.00        0.0
4:07              213        0.0         91       18.0      461.6       18.0       21.2       16.5     1014.5       19.7       18.0        0.0        0.0        0.0       0.00       15.7       0.00       0.00        0.0
4:10              213        0.0         91       18.0      461.6       18.0       21.2       16.5     1014.5       19.7       18.0        0.0        0.0        0.0       0.00       15.7       0.00       0.00        0.0
4:12              213        0.0         91       18.1      461.6       18.1       21.3       16.6     1014.6       19.7       18.0        0.0        0.0        0.0       0.00       15.7       0.00       0.00        0.0
4:14              213        0.0         91       18.0      461.6       18.0       21.2       16.5     1014.5       19.7       18.0        0.0        0.0        0.0       0.00       15.7       0.00       0.00        0.0
4:16              213        0.0         91       18.1      461.6       18.1       21.3       16.6     1014.5       19.7       18.0        0.0        0.0        0.0       0.00       15.7       0.00       0.00        0.0
4:18              213        0.0         91       18.0      461.6       18.0       21.2       16.5     1014.5       19.7       18.0        0.0        0.0        0.0       0.00       15.7       0.00       0.00        0.0
4:20              213        0.0         91       18.0      461.6       18.0       21.2       16.5     1014.6       19.7       18.0        0.0        0.0        0.0       0.00       15.7       0.00       0.00        0.0
4:22              213        0.0         91       18.0      461.6       18.0       21.2       16.5     1014.5       19.7       18.0        0.0        0.0        0.0       0.00       15.7       0.00       0.00        0.0
4:24              213        0.0         91       18.0      461.6       18.0       21.2       16.5     1014.6       19.7       18.0        0.0        0.0        0.0       0.00       15.7       0.00       0.00        0.0
4:26              213        0.0         91       18.0      461.6       18.0       21.2       16.5     1014.6       19.7       18.0        0.0        0.0        0.0       0.00       15.7       0.00       0.00        0.0
4:28              213        0.0         91       18.0      461.6       18.0       21.2       16.5     1014.5       19.7       18.0        0.0        0.0        0.0       0.00       15.7       0.00       0.00        0.0
4:30              213        0.0         91       18.0      461.6       18.0       21.2       16.5     1014.7       19.7       18.0        0.0        0.0        0.0       0.00       15.7       0.00       0.00        0.0
4:32              213        0.0         91       18.0      461.6       18.0       21.2       16.5     1014.6       19.7       18.0        0.0        0.0        0.0       0.00       15.7       0.00       0.00        0.0
4:34              213        0.0         91       18.0      461.6       18.0       21.2       16.5     1014.6       19.7       18.0        0.0        0.0        0.0       0.00       15.7       0.00       0.00        0.0
4:36              213        0.0         91       18.0      461.6       18.0       21.2       16.5     1014.7       19.7       18.0        0.0        0.0        0.0       0.00       15.7       0.00       0.00        0.0
4:38              213        0.0         91       18.0      461.6       18.0       21.2       16.5     1014.6       19.7       18.0        0.0        0.0        0.0       0.00       15.7       0.00       0.00        0.0
4:40              213        0.0         91       18.0      461.6       18.0       21.2       16.5     1014.7       19.7       18.0        0.0        0.0        0.0       0.00       15.7       0.00       0.00        0.0
4:42              213        0.0         91       18.0      461.6       18.0       21.2       16.5     1014.8       19.7       18.0        0.0        0.0        0.0       0.00       15.7       0.00       0.00        0.0
4:44              213        0.0         91       18.0      461.6       18.0       21.2       16.5     1014.7       19.7       18.0        0.0        0.0        0.0       0.00       15.7       0.00       0.00        0.0
4:46              213        0.0         91       18.0      461.6       18.0       21.2       16.5     1014.7       19.7       18.0        0.0        0.0        0.0       0.00       15.7       0.00       0.00        0.0
4:47              213        0.0         91       18.0      461.6       18.0       21.2       16.5     1014.7       19.7       18.0        0.0        0.0        0.0       0.00       15.7       0.00       0.00        0.0
4:50              213        0.0         91       18.1      461.6       18.1       21.3       16.6     1014.7       19.7       18.0        0.0        0.0        0.0       0.00       15.7       0.00       0.00        0.0
4:52              213        0.0         91       18.1      461.6       18.1       21.3       16.6     1014.8       19.7       18.0        0.0        0.0        0.0       0.00       15.7       0.00       0.00        0.0
4:54              213        0.0         91       18.1      461.6       18.1       21.3       16.6     1014.7       19.7       18.0        0.0        0.0        0.0       0.00       15.7       0.00       0.00        0.0
4:56              213        0.0         91       18.1      461.6       18.1       21.3       16.6     1014.8       19.7       18.0        0.0        0.0        0.0       0.00       15.7       0.00       0.00        0.0
4:57              213        0.0         91       18.1      461.6       18.1       21.3       16.6     1014.7       19.7       18.0        0.0        0.0        0.0       0.00       15.7       0.00       0.00        0.0
5:00              213        0.0         91       18.1      461.6       18.1       21.3       16.6     1014.6       19.7       18.0        0.0        0.0        0.0       0.00       15.7       0.00       0.00        0.0
5:02              213        0.0         91       18.1      461.6       18.1       21.3       16.6     1014.6       19.7       18.0        0.0        0.0        0.0       0.00       15.7       0.00       0.00        0.0
5:04              213        0.0         91       18.1      461.6       18.1       21.3       16.6     1014.8       19.7       18.0        0.0        0.0        0.0       0.00       15.7       0.00       0.00        0.0
5:06              213        0.0         91       18.1      461.6       18.1       21.3       16.6     1014.8       19.7       18.0        0.0        0.0        0.0       0.00       15.7       0.00       0.00        0.0
5:08              213        0.0         91       18.1      461.6       18.1       21.3       16.6     1014.8       19.7       18.0        0.0        0.0        0.0       0.00       15.7       0.00       0.00        0.0
5:10              213        0.0         91       18.1      461.6       18.1       21.3       16.6     1014.7       19.7       18.0        0.0        0.0        0.0       0.00       15.7       0.00       0.00        0.0
5:12              213        0.0         91       18.1      461.6       18.1       21.3       16.6     1014.7       19.7       18.0        0.0        0.0        0.0       0.00       15.7       0.00       0.00        0.0
5:14              213        0.0         91       18.1      461.6       18.1       21.3       16.6     1014.8       19.7       18.0        0.0        0.0        0.0       0.00       15.7       0.00       0.00        0.0
5:16              213        0.0         92       18.1      461.6       18.1       21.4       16.7     1014.7       19.7       18.0        0.0        0.0        0.0       0.00       15.7       0.00       0.00        0.0
5:18              213        0.0         92       18.1      461.6       18.1       21.4       16.7     1014.8       19.7       18.0        0.0        0.0        0.0       0.00       15.7       0.00       0.00        0.0
5:20              213        0.0         92       18.1      461.6       18.1       21.4       16.8     1014.8       19.7       18.0        0.0        0.0        0.0       0.00       15.7       0.00       0.00        0.0
5:22              213        0.0         92       18.1      461.6       18.1       21.4       16.8     1014.8       19.7       18.0        0.0        0.0        0.0       0.00       15.7       0.00       0.00        0.0
5:23              213        0.0         92       18.1      461.6       18.1       21.4       16.8     1014.8       19.7       18.0        0.0        0.0        0.0       0.00       15.7       0.00       0.00        0.0
5:25              213        0.0         92       18.2      461.6       18.2       21.5       16.8     1014.8       19.7       18.0        0.0        0.0        0.0       0.00       15.7       0.00       0.00        0.0
5:27              213        0.0         92       18.2      461.6       18.2       21.5       16.8     1014.8       19.7       18.0        0.0        0.0        0.0       0.00       15.7       0.00       0.00        0.0
5:30              213        0.0         92       18.2      461.6       18.2       21.5       16.9     1014.7       19.7       18.0        0.0        0.0        0.0       0.00       15.7       0.00       0.00        0.0
5:32              213        0.0         92       18.2      461.6       18.2       21.5       16.9     1014.8       19.7       18.0        0.0        0.0        0.0       0.00       15.7       0.00       0.00        0.0
5:34              213        0.0         92       18.3      461.6       18.3       21.6       17.0     1014.8       19.7       18.0        0.0        0.0        0.0       0.00       15.7       0.00       0.00        0.0
5:36              213        0.0         92       18.3      461.6       18.3       21.6       17.0     1014.8       19.7       18.0        0.0        0.0        0.0       0.00       15.7       0.00       0.00        0.0
5:38              213        0.0         92       18.4      461.6       18.4       21.7       17.1     1014.9       19.7       18.0        0.0        0.0        0.0       0.00       15.7       0.00       0.00        0.0
5:40              213        0.0         92       18.4      461.6       18.4       21.7       17.1     1015.0       19.7       18.0        0.0        0.0        0.0       0.00       15.7       0.00       0.00        0.0
5:42              213        0.0         92       18.4      461.6       18.4       21.7       17.1     1015.0       19.7       18.0        0.0        0.0        0.0       0.00       15.7       0.00       0.00        0.0
5:44              213        0.0         92       18.5      461.6       18.5       21.8       17.2     1015.0       19.7       18.0        0.0        0.0        0.0       0.00       15.7       0.00       0.00        0.0
5:46              213        0.0         92       18.6      461.6       18.6       21.9       17.2     1014.9       19.7       18.0        0.0        0.0        0.0       0.00       15.7       0.00       0.00        0.0
5:48              213        0.0         92       18.6      461.6       18.6       21.9       17.2     1015.0       19.7       18.0        0.0        0.0        0.0       0.00       15.7       0.00       0.00        0.0
5:50              213        0.0         92       18.6      461.6       18.6       21.9       17.3     1015.0       19.7       18.0        0.0        0.0        0.0       0.00       15.7       0.00       0.00        0.0
5:52              213        0.0         92       18.7      461.6       18.7       22.0       17.3     1014.9       19.7       18.0        0.0        0.0        0.0       0.00       15.7       0.00       0.00        0.0
5:53              213        0.0         92       18.7      461.6       18.7       22.0       17.3     1015.0       19.7       18.0        0.0        0.0        0.0       0.00       15.7       0.00       0.00        0.0
5:56              213        0.0         92       18.7      461.6       18.7       22.0       17.4     1014.9       19.7       18.0        0.0        0.0        0.0       0.00       15.7       0.00       0.00        0.0
5:57              208        6.4         92       18.7      461.6       18.7       22.0       17.4     1015.0       19.7       18.0        0.0        0.0        0.0       0.00       15.8       0.00       0.00        0.0
6:00              204        4.8         92       18.7      461.6       18.7       22.0       17.4     1015.0       19.7       18.0        0.0        0.0        0.0       0.00       15.9       0.00       0.00        0.0
6:02              200        1.6         92       18.7      461.6       18.7       22.0       17.4     1015.0       19.7       18.0        0.0        0.0        0.0       0.00       16.0       0.00       0.00        0.0
6:04              196        4.8         92       18.7      461.6       18.7       22.0       17.4     1015.0       19.7       18.0        0.0        0.0        0.0       0.00       16.1       0.00       0.00        0.0
6:06              192        4.8         92       18.7      461.6       18.7       22.0       17.4     1015.0       19.7       18.0        0.0        0.0        0.0       0.00       16.3       0.00       0.00        0.0
6:08              191        4.8         92       18.7      461.6       18.7       22.0       17.4     1015.0       19.7       18.0        0.0        0.0        0.0       0.00       16.4       0.00       0.00        0.0
6:10              190        4.8         92       18.7      461.6       18.7       22.0       17.4     1015.0       19.7       18.0        0.0        0.0        0.0       0.00       16.6       0.00       0.00        0.0
6:12              190        4.8         92       18.7      461.6       18.7       22.0       17.4     1015.1       19.7       18.0        0.0        0.0        0.0       0.00       16.7       0.00       0.00        0.0
6:14              190        8.0         92       18.7      461.6       17.9       22.0       17.4     1015.1       19.7       18.0        0.0        0.0        0.0       0.00       16.8       0.00       0.00        0.0
6:16              190        3.2         92       18.7      461.6       18.7       22.0       17.4     1015.1       19.7       18.0        0.0        0.0        0.0       0.00       16.9       0.00       0.00        0.0
6:18              190        3.2         92       18.7      461.6       18.7       22.0       17.4     1015.2       19.7       18.0        0.0        0.0        0.0       0.00       17.0       0.00       0.00        0.0
6:20              190        4.8         92       18.7      461.6       18.7       22.0       17.4     1015.1       19.7       18.0        0.0        0.0        0.0       0.00       17.1       0.00       0.00        0.0
6:22              190        4.8         92       18.7      461.6       18.7       22.0       17.4     1015.2       19.7       18.0        0.0        0.0        0.0       0.00       17.2       0.00       0.00        0.0
6:24              190        3.2         92       18.7      461.6       18.7       22.0       17.4     1015.2       19.7       18.0        0.0        0.0        0.0       0.00       17.3       0.00       0.00        0.0
6:26              190        4.8         92       18.7      461.6       18.7       22.0       17.4     1015.2       19.7       18.0        0.0        0.0        0.0       0.00       17.4       0.00       0.00        0.0
6:28              190        3.2         92       18.7      461.6       18.7       22.0       17.4     1015.1       19.7       18.0        0.0        0.0        0.0       0.00       17.5       0.00       0.00        0.0
6:30              191        4.8         92       18.7      461.6       18.7       22.0       17.4     1015.2       19.7       18.0        0.0        0.0        0.0       0.00       17.7       0.00       0.00        0.0
6:32              190        6.4         92       18.8      461.6       18.8       22.1       17.5     1015.2       19.7       18.0        0.0        0.0        0.0       0.00       17.8       0.00       0.00        0.0
6:34              191        4.8         92       18.8      461.6       18.8       22.1       17.5     1015.2       19.7       18.0        0.0        0.0        0.0       0.00       17.9       0.00       0.00        0.0
6:36              190        3.2         92       18.8      461.6       18.8       22.1       17.5     1015.3       19.7       18.0        0.0        0.0        0.0       0.00       18.0       0.00       0.00        0.0
6:38              190        4.8         92       18.8      461.6       18.8       22.1       17.5     1015.3       19.7       18.0        0.0        0.0        0.0       0.00       18.1       0.00       0.00        0.0
6:40              190        4.8         92       18.8      461.6       18.8       22.1       17.5     1015.3       19.7       18.0        0.0        0.0        0.0       0.00       18.2       0.00       0.00        0.0
6:42              190        3.2         92       18.9      461.6       18.9       22.2       17.6     1015.4       19.7       18.0        0.0        0.0        0.0       0.00       18.3       0.00       0.00        0.0
6:44              190        4.8         92       18.9      461.6       18.9       22.2       17.6     1015.4       19.7       18.0        0.0        0.0        0.0       0.00       18.4       0.00       0.00        0.0
6:46              190        3.2         92       18.9      461.6       18.9       22.2       17.6     1015.3       19.7       18.0        0.0        0.0        0.0       0.00       18.5       0.00       0.00        0.0
6:48              190        4.8         92       18.9      461.6       18.9       22.2       17.6     1015.4       19.7       18.0        0.0        0.0        0.0       0.00       18.6       0.00       0.00        0.0
6:50              189        4.8         92       18.9      461.6       18.9       22.2       17.6     1015.5       19.7       18.0        0.0        0.0        0.0       0.00       18.7       0.00       0.00        0.0
6:52              188        9.7         92       19.0      461.6       19.0       22.3       17.7     1015.5       19.7       18.0        0.0        0.0        0.0       0.00       18.9       0.00       0.00        0.0
6:54              187        8.0         92       19.0      461.6       18.2       22.3       17.7     1015.5       19.7       18.0        0.0        0.0        0.0       0.00       19.2       0.00       0.00        0.0
6:56              186        6.4         92       19.0      461.6       19.0       22.3       17.7     1015.5       19.7       18.0        0.0        0.0        0.0       0.00       19.4       0.00       0.00        0.0
6:57              186        6.4         92       19.0      461.6       19.0       22.3       17.7     1015.5       19.7       18.0        0.0        0.0        0.0       0.00       19.5       0.00       0.00        0.0
7:00              183        9.7         92       19.0      461.6       18.2       22.3       17.7     1015.5       19.7       18.0        0.0        0.0        0.0       0.00       19.8       0.00       0.00        0.0
7:02              183        8.0         92       19.0      461.6       19.0       22.3       17.7     1015.5       19.7       18.0        0.0        0.0        0.0       0.00       20.0       0.00       0.00        0.0
7:04              180        9.7         92       19.0      461.6       18.2       22.3       17.7     1015.5       19.7       18.0        0.0        0.0        0.0       0.00       20.2       0.00       0.00        0.0
7:05              179        6.4         92       19.1      461.6       19.1       22.4       17.7     1015.5       19.7       18.0        0.0        0.0        0.0       0.00       20.4       0.00       0.00        0.0
7:08              179        9.7         91       19.1      461.6       19.1       22.3       17.6     1015.5       19.7       18.0        0.0        0.0        0.0       0.00       20.7       0.00       0.00        0.0
7:10              180        6.4         91       19.1      461.6       19.1       22.3       17.6     1015.5       19.7       18.0        0.0        0.0        0.0       0.00       20.9       0.00       0.00        0.0
7:12              178        9.7         91       19.1      461.6       18.4       22.3       17.6     1015.5       19.7       18.0        0.0        0.0        0.0       0.00       21.1       0.00       0.00        0.0
7:14              180       11.3         91       19.1      461.6       17.8       22.3       17.6     1015.6       19.7       18.0        0.0        0.0        0.0       0.00       21.4       0.00       0.00        0.0
7:16              180        9.7         91       19.1      461.6       19.1       22.3       17.6     1015.5       19.7       18.0        0.0        0.0        0.0       0.00       21.7       0.00       0.00        0.0
7:18              180       12.9         91       19.2      461.6       18.4       22.4       17.7     1015.5       19.7       18.0        0.0        0.0        0.0       0.00       22.0       0.00       0.00        0.0
7:20              180       12.9         91       19.2      461.6       18.0       22.4       17.7     1015.5       19.7       18.0        0.0        0.0        0.0       0.00       22.3       0.00       0.00        0.0
7:22              179       12.9         91       19.2      461.6       16.9       22.4       17.7     1015.5       19.7       18.0        0.0        0.0        0.0       0.00       22.5       0.00       0.00        0.0
7:24              178        9.7         91       19.3      461.6       18.0       22.5       17.8     1015.6       19.7       18.0        0.0        0.0        0.0       0.00       22.8       0.00       0.00        0.0
7:26              177       11.3         91       19.3      461.6       18.1       22.5       17.8     1015.6       19.7       18.0        0.0        0.0        0.0       0.00       23.1       0.00       0.00        0.0
7:27              183        4.8         91       19.4      461.6       19.4       22.6       17.9     1015.6       19.7       18.0        0.0        0.0        0.0       0.00       23.3       0.00       0.00        0.0
7:30              183        4.8         91       19.4      461.6       19.4       22.6       17.9     1015.6       19.7       18.0        0.0        0.0        0.0       0.00       23.5       0.00       0.00        0.0
7:32              182        8.0         91       19.4      461.6       18.7       22.7       17.9     1015.5       19.7       18.0        0.0        0.0        0.0       0.00       23.6       0.00       0.00        0.0
7:33              181       11.3         91       19.5      461.6       19.5       22.7       18.0     1015.6       19.7       18.0        0.0        0.0        0.0       0.00       23.9       0.00       0.00        0.0
7:36              183        8.0         91       19.5      461.6       19.5       22.7       18.0     1015.7       19.7       18.0        0.0        0.0        0.0       0.00       24.1       0.00       0.00        0.0
7:38              180        9.7         91       19.6      461.6       19.6       22.8       18.0     1015.6       19.7       18.0        0.0        0.0        0.0       0.00       24.4       0.00       0.00        0.0
7:40              181       17.7         90       19.6      461.6       17.4       22.7       17.9     1015.7       19.7       18.0        0.0        0.0        0.0       0.00       24.6       0.00       0.00        0.0
7:42              169       14.5         90       19.6      461.6       18.4       22.7       17.9     1015.7       19.7       18.0        0.0        0.0        0.0       0.00       24.9       0.00       0.00        0.0
7:44              207       12.9         90       19.6      461.6       19.6       22.7       17.9     1015.6       19.7       18.0        0.0        0.0        0.0       0.00       25.1       0.00       0.00        0.0
7:46              207        6.4         89       19.6      461.6       19.6       22.7       17.8     1015.7       19.7       18.0        0.0        0.0        0.0       0.00       25.3       0.00       0.00        0.0
7:48              207        6.4         89       19.7      461.6       19.7       22.7       17.8     1015.7       19.7       18.0        0.0        0.0        0.0       0.00       25.5       0.00       0.00        0.0
7:50              207        3.2         89       19.7      461.6       19.7       22.7       17.8     1015.6       19.7       18.0        0.0        0.0        0.0       0.00       25.6       0.00       0.00        0.0
7:52              194        8.0         89       19.7      461.6       19.7       22.8       17.9     1015.7       19.7       18.0        0.0        0.0        0.0       0.00       25.8       0.00       0.00        0.0
7:54              185       12.9         89       19.8      461.6       18.1       22.8       17.9     1015.8       19.8       18.0        0.0        0.0        0.0       0.00       26.0       0.00       0.00        0.0
7:56              207        9.7         88       19.8      461.6       18.6       22.8       17.8     1015.7       19.8       18.0        0.0        0.0        0.0       0.00       26.3       0.00       0.00        0.0
7:58              213       11.3         88       19.8      461.6       19.8       22.7       17.7     1015.7       19.8       18.0        0.0        0.0        0.0       0.00       26.5       0.00       0.00        0.0
8:00              208        9.7         87       19.8      461.6       19.8       22.7       17.6     1015.7       19.8       18.0        0.0        0.0        0.0       0.00       26.8       0.00       0.00        0.0
8:02              207        6.4         87       19.8      461.6       19.8       22.7       17.6     1015.8       19.8       18.0        0.0        0.0        0.0       0.00       27.0       0.00       0.00        0.0
8:04              207        8.0         87       19.9      461.6       19.9       22.8       17.7     1015.9       19.9       18.0        0.0        0.0        0.0       0.00       27.2       0.00       0.00        0.0
8:06              207        9.7         86       19.9      461.6       19.9       22.8       17.5     1015.8       19.9       18.0        0.0        0.0        0.0       0.00       27.4       0.00       0.00        0.0
8:08              194        8.0         86       20.0      461.6       20.0       22.8       17.6     1015.9       20.0       18.0        0.0        0.0        0.0       0.00       27.7       0.00       0.00        0.0
8:10              189        4.8         85       20.0      461.6       20.0       22.7       17.4     1016.0       20.1       18.0        0.0        0.0        0.0       0.00       27.9       0.00       0.00        0.0
8:12              200       12.9         85       20.1      461.6       18.4       22.8       17.5     1015.9       20.1       18.0        0.0        0.0        0.0       0.00       28.1       0.00       0.00        0.0
8:14              201        8.0         85       20.1      461.6       20.1       22.8       17.5     1015.9       20.1       18.0        0.0        0.0        0.0       0.00       28.3       0.00       0.00        0.0
8:15              200        9.7         85       20.2      461.6       20.2       22.9       17.6     1015.9       20.2       18.0        0.0        0.0        0.0       0.00       28.5       0.00       0.00        0.0
8:18              211       12.9         84       20.2      461.6       18.1       22.9       17.4     1016.0       20.2       18.0        0.0        0.0        0.0       0.00       28.8       0.00       0.00        0.0
8:20              209       11.3         84       20.3      461.6       20.3       22.9       17.5     1016.0       20.3       18.0        0.0        0.0        0.0       0.00       29.0       0.00       0.00        0.0
8:22              209        6.4         84       20.3      461.6       20.3       23.0       17.5     1015.9       20.3       18.0        0.0        0.0        0.0       0.00       29.2       0.00       0.00        0.0
8:24              183       12.9         84       20.4      461.6       18.3       23.0       17.6     1016.0       20.4       18.0        0.0        0.0        0.0       0.00       29.4       0.00       0.00        0.0
8:26              193       12.9         84       20.5      461.6       20.5       23.2       17.7     1016.0       20.5       18.0        0.0        0.0        0.0       0.00       29.7       0.00       0.00        0.0
8:28              171       12.9         84       20.6      461.6       19.5       23.3       17.8     1016.0       20.6       18.0        0.0        0.0        0.0       0.00       30.1       0.00       0.00        0.0
8:30              180       17.7         83       20.8      461.6       18.3       23.4       17.8     1016.0       20.8       18.0        0.0        0.0        0.0       0.00       30.4       0.00       0.00        0.0
8:32              180       17.7         82       20.9      461.6       18.4       23.4       17.7     1016.0       20.9       18.0        0.0        0.0        0.0       0.00       30.9       0.00       0.00        0.0
8:34              174       16.1         81       21.0      461.6       18.6       23.4       17.6     1016.1       21.0       18.0        0.0        0.0        0.0       0.00       31.3       0.00       0.00        0.0
8:36              173       14.5         81       21.1      461.6       20.4       23.5       17.7     1016.0       21.1       18.0        0.0        0.0        0.0       0.00       31.6       0.00       0.00        0.0
8:38              180        8.0         80       21.1      461.6       20.5       23.5       17.5     1016.0       21.1       18.0        0.0        0.0        0.0       0.00       31.8       0.00       0.00        0.0
8:40              190        8.0         80       21.2      461.6       21.2       23.5       17.6     1016.0       21.2       18.0        0.0        0.0        0.0       0.00       32.1       0.00       0.00        0.0
8:42              196        8.0         79       21.2      461.6       20.5       23.4       17.4     1016.0       21.2       18.0        0.0        0.0        0.0       0.00       32.3       0.00       0.00        0.0
8:44              202        8.0         79       21.2      461.6       20.5       23.4       17.4     1016.0       21.2       18.0        0.0        0.0        0.0       0.00       32.5       0.00       0.00        0.0
8:46              211        4.8         79       21.2      461.6       21.2       23.4       17.4     1016.0       21.2       18.0        0.0        0.0        0.0       0.00       32.8       0.00       0.00        0.0
8:48              190       14.5         79       21.2      461.6       19.6       23.4       17.4     1016.0       21.2       18.0        0.0        0.0        0.0       0.00       33.0       0.00       0.00        0.0
8:50              186       14.5         79       21.2      461.6       19.3       23.5       17.4     1016.0       21.2       18.0        0.0        0.0        0.0       0.00       33.4       0.00       0.00        0.0
8:52              188       14.5         79       21.3      461.6       19.4       23.6       17.5     1016.0       21.3       18.0        0.0        0.0        0.0       0.00       33.8       0.00       0.00        0.0
8:53              191        8.0         78       21.4      461.6       21.4       23.6       17.4     1016.0       21.4       18.0        0.0        0.0        0.0       0.00       34.0       0.00       0.00        0.0
8:56              207       12.9         78       21.4      461.6       19.5       23.6       17.5     1016.0       21.4       18.0        0.0        0.0        0.0       0.00       34.3       0.00       0.00        0.0
8:58              183        8.0         78       21.5      461.6       21.5       23.7       17.5     1016.0       21.5       18.0        0.0        0.0        0.0       0.00       34.7       0.00       0.00        0.0
9:00              182        9.7         78       21.6      461.6       21.0       23.8       17.6     1016.0       21.6       18.0        0.0        0.0        0.0       0.00       35.0       0.00       0.00        0.0
9:02              203        4.8         77       21.7      461.6       21.7       23.9       17.5     1016.0       21.7       18.0        0.0        0.0        0.0       0.00       35.2       0.00       0.00        0.0
9:04              203        4.8         77       21.7      461.6       21.7       23.9       17.5     1016.0       21.7       18.0        0.0        0.0        0.0       0.00       35.3       0.00       0.00        0.0
9:06              202        6.4         76       21.7      461.6       21.7       23.8       17.3     1016.0       21.7       18.0        0.0        0.0        0.0       0.00       35.5       0.00       0.00        0.0
9:08              194       11.3         76       21.8      461.6       20.7       23.8       17.4     1016.0       21.8       18.0        0.0        0.0        0.0       0.00       35.7       0.00       0.00        0.0
9:10              193        9.7         76       21.8      461.6       20.8       23.9       17.4     1016.1       21.8       18.0        0.0        0.0        0.0       0.00       35.9       0.00       0.00        0.0
9:12              194        4.8         75       21.9      461.6       21.9       23.9       17.3     1016.0       21.9       18.0        0.0        0.0        0.0       0.00       36.1       0.00       0.00        0.0
9:14              195       12.9         76       21.9      461.6       20.9       23.9       17.5     1016.0       21.9       18.0        0.0        0.0        0.0       0.00       36.4       0.00       0.00        0.0
9:16              194        4.8         76       21.9      461.6       21.9       24.0       17.5     1016.0       21.9       18.0        0.0        0.0        0.0       0.00       36.6       0.00       0.00        0.0
9:17              194       11.3         76       22.0      461.6       21.4       24.1       17.6     1016.0       22.0       18.0        0.0        0.0        0.0       0.00       36.7       0.00       0.00        0.0
9:20              195        4.8         75       22.1      461.6       22.1       24.0       17.4     1016.0       22.1       18.0        0.0        0.0        0.0       0.00       36.9       0.00       0.00        0.0
9:22              185       16.1         75       22.1      461.6       19.9       24.1       17.5     1016.0       22.1       18.0        0.0        0.0        0.0       0.00       37.2       0.00       0.00        0.0
9:24              187        9.7         75       22.2      461.6       22.2       24.2       17.6     1016.1       22.2       18.0        0.0        0.0        0.0       0.00       37.5       0.00       0.00        0.0
9:26              199        8.0         74       22.3      461.6       22.3       24.2       17.4     1016.0       22.3       18.0        0.0        0.0        0.0       0.00       37.7       0.00       0.00        0.0
9:28              174        4.8         75       22.3      461.6       22.3       24.3       17.7     1016.1       22.3       18.0        0.0        0.0        0.0       0.00       37.9       0.00       0.00        0.0
9:30              176        4.8         74       22.4      461.6       22.4       24.4       17.6     1016.1       22.4       18.0        0.0        0.0        0.0       0.00       38.1       0.00       0.00        0.0
9:32              182        6.4         74       22.5      461.6       22.5       24.4       17.6     1016.2       22.5       18.0        0.0        0.0        0.0       0.00       38.3       0.00       0.00        0.0
9:34              182        6.4         74       22.6      461.6       22.6       24.5       17.7     1016.1       22.6       18.0        0.0        0.0        0.0       0.00       38.5       0.00       0.00        0.0
9:36              184        6.4         74       22.6      461.6       22.6       24.5       17.7     1016.1       22.6       18.0        0.0        0.0        0.0       0.00       38.6       0.00       0.00        0.0
9:37              184        8.0         74       22.6      461.6       22.6       24.5       17.7     1016.1       22.6       18.0        0.0        0.0        0.0       0.00       38.8       0.00       0.00        0.0
9:39              185        6.4         74       22.7      461.6       22.7       24.6       17.8     1016.1       22.7       18.0        0.0        0.0        0.0       0.00       39.0       0.00       0.00        0.0
9:42              186        8.0         74       22.8      461.6       22.2       24.7       17.9     1016.1       22.8       18.0        0.0        0.0        0.0       0.00       39.2       0.00       0.00        0.0
9:44              188        8.0         73       22.8      461.6       22.8       24.7       17.7     1016.1       22.8       18.0        0.0        0.0        0.0       0.00       39.5       0.00       0.00        0.0
9:46              189        8.0         73       22.9      461.6       22.9       24.7       17.8     1016.1       22.9       18.0        0.0        0.0        0.0       0.00       39.7       0.00       0.01        0.0
9:48              189        6.4         72       22.9      461.6       22.9       24.7       17.6     1016.1       22.9       18.0        0.0        0.0        0.0       0.00       39.8       0.00       0.01        0.0
9:50              190        6.4         73       22.9      461.6       22.9       24.8       17.9     1016.0       22.9       18.0        0.0        0.0        0.0       0.00       39.9       0.00       0.01        0.0
9:51              190        8.0         73       23.0      461.6       23.0       24.8       17.9     1016.1       23.0       18.0        0.0        0.0        0.0       0.00       40.0       0.00       0.01        0.0
9:54              200        9.7         73       23.1      461.6       23.1       24.9       18.0     1016.1       23.1       18.0        0.0        0.0        0.0       0.00       40.4       0.00       0.01        0.0
9:56              186        9.7         72       23.1      461.6       23.1       24.9       17.8     1016.0       23.1       18.0        0.0        0.0        0.0       0.00       40.6       0.00       0.01        0.0
9:58              190        6.4         72       23.2      461.6       23.2       25.0       17.9     1016.0       23.2       18.0        0.0        0.0        0.0       0.00       40.8       0.00       0.01        0.0
10:00             191        6.4         71       23.2      461.6       23.2       24.9       17.7     1016.0       23.2       18.0        0.0        0.0        0.0       0.00       41.0       0.00       0.01        0.0
10:02             191        4.8         70       23.3      461.6       23.3       24.9       17.5     1016.1       23.3       18.0        0.0        0.0        0.0       0.00       41.0       0.00       0.03        0.0
10:04             192        9.7         70       23.4      461.6       22.9       25.0       17.6     1016.1       23.4       18.0        0.0        0.0        0.0       0.00       41.3       0.00       0.03        0.0
10:05             192        8.0         70       23.4      461.6       22.9       25.1       17.7     1016.0       23.4       18.0        0.0        0.0        0.0       0.00       41.5       0.00       0.03        0.0
10:07             194        9.7         69       23.6      461.6       23.6       25.1       17.5     1016.1       23.6       18.0        0.0        0.0        0.0       0.00       41.8       0.00       0.03        0.0
10:10             194        4.8         69       23.6      461.6       23.6       25.2       17.6     1016.1       23.6       18.0        0.0        0.0        0.0       0.00       42.0       0.00       0.03        0.0
10:11             194        1.6         69       23.7      461.6       23.7       25.3       17.7     1016.1       23.7       18.0        0.0        0.0        0.0       0.00       42.0       0.00       0.03        0.0
10:14             187       14.5         69       23.8      461.6       22.0       25.4       17.8     1016.1       23.8       18.0        0.0        0.0        0.0       0.00       42.1       0.00       0.03        0.0
10:16             190       11.3         67       23.9      461.6       23.1       25.4       17.4     1016.1       23.9       18.0        0.0        0.0        0.0       0.00       42.4       0.00       0.05        0.0
10:17             193        9.7         66       24.1      461.6       24.1       25.4       17.3     1016.1       24.1       18.0        0.0        0.0        0.0       0.00       42.7       0.00       0.05        0.0
10:20             194        3.2         66       24.1      461.6       24.1       25.5       17.4     1016.1       24.1       18.0        0.0        0.0        0.0       0.00       42.8       0.00       0.05        0.0
10:22             194        8.0         67       24.2      461.6       24.2       25.6       17.7     1016.1       24.2       18.0        0.0        0.0        0.0       0.00       43.0       0.00       0.05        0.0
10:24             194        4.8         68       24.2      461.6       24.2       25.7       17.9     1016.1       24.2       18.0        0.0        0.0        0.0       0.00       43.1       0.00       0.05        0.0
10:26             192        9.7         68       24.2      461.6       24.2       25.7       17.9     1016.1       24.2       18.0        0.0        0.0        0.0       0.00       43.3       0.00       0.05        0.0
10:28             174       19.3         67       24.3      461.6       21.9       25.7       17.8     1016.0       24.3       18.0        0.0        0.0        0.0       0.00       43.7       0.00       0.05        0.0
10:30             202       12.9         63       24.4      461.6       24.4       25.6       16.9     1016.1       24.4       18.0        0.0        0.0        0.0       0.00       44.0       0.00       0.05        0.0
10:31             197        9.7         63       24.5      461.6       23.7       25.7       17.0     1016.1       24.5       18.0        0.0        0.0        0.0       0.00       44.3       0.00       0.07        0.0
10:34             198        6.4         62       24.6      461.6       24.6       25.7       16.8     1016.1       24.6       18.0        0.0        0.0        0.0       0.00       44.5       0.00       0.07        0.0
10:36             230       16.1         62       24.7      461.6       23.6       25.8       16.9     1016.1       24.7       18.0        0.0        0.0        0.0       0.00       44.8       0.00       0.07        0.0
10:38             182       14.5         63       24.7      461.6       24.3       25.9       17.2     1016.0       24.7       18.0        0.0        0.0        0.0       0.00       45.1       0.00       0.07        0.0
10:40             177       17.7         64       24.8      461.6       23.1       26.0       17.5     1015.9       24.8       18.0        0.0        0.0        0.0       0.00       45.5       0.00       0.07        0.0
10:42             179        6.4         63       24.9      461.6       24.9       26.1       17.4     1016.0       24.9       18.0        0.0        0.0        0.0       0.00       45.8       0.00       0.07        0.0
10:44             175       14.5         63       25.1      461.6       23.4       26.2       17.5     1015.9       25.1       18.0        0.0        0.0        0.0       0.00       46.2       0.00       0.07        0.0
10:46             158       20.9         62       25.2      461.6       23.1       26.3       17.4     1015.8       25.2       18.0        0.0        0.0        0.0       0.00       46.7       0.00       0.10        0.0
10:48             177       17.7         61       25.3      461.6       23.3       26.3       17.2     1015.9       25.3       18.0        0.0        0.0        0.0       0.00       47.3       0.00       0.10        0.0
10:50             180        4.8         61       25.3      461.6       25.3       26.4       17.3     1015.9       25.3       18.0        0.0        0.0        0.0       0.00       47.6       0.00       0.10        0.0
10:52             174       16.1         61       25.4      461.6       24.5       26.5       17.4     1015.8       25.4       18.0        0.0        0.0        0.0       0.00       47.8       0.00       0.10        0.0
10:54             172       19.3         61       25.6      461.6       24.3       26.6       17.5     1015.9       25.6       18.0        0.0        0.0        0.0       0.00       48.4       0.00       0.10        0.0
10:56             198       16.1         59       25.7      461.6       24.7       26.6       17.1     1015.8       25.7       18.0        0.0        0.0        0.0       0.00       48.8       0.00       0.10        0.0
10:58             200       11.3         58       25.7      461.6       24.7       26.6       16.8     1015.7       25.7       18.0        0.0        0.0        0.0       0.00       49.2       0.00       0.10        0.0
11:00             186       19.3         58       25.7      461.6       23.7       26.6       16.8     1015.7       25.7       18.0        0.0        0.0        0.0       0.00       49.5       0.00       0.10        0.0
11:02             190       12.9         59       25.7      461.6       24.5       26.7       17.1     1015.7       25.7       18.0        0.0        0.0        0.0       0.00       49.9       0.00       0.14        0.0
11:03             215        9.7         59       25.7      461.6       25.1       26.7       17.1     1015.7       25.8       18.0        0.0        0.0        0.0       0.00       50.2       0.00       0.14        0.0
11:06             207       20.9         60       25.7      461.6       23.8       26.7       17.4     1015.6       25.8       18.0        0.0        0.0        0.0       0.00       50.7       0.00       0.14        0.0
11:08             179       12.9         59       25.8      461.6       24.8       26.7       17.2     1015.7       25.8       18.0        0.0        0.0        0.0       0.00       50.9       0.00       0.14        0.0
11:10             177       12.9         60       25.9      461.6       25.9       26.9       17.5     1015.7       25.9       18.0        0.0        0.0        0.0       0.00       51.4       0.00       0.14        0.0
11:12             165       17.7         60       25.9      461.6       24.1       26.9       17.6     1015.7       25.9       18.0        0.0        0.0        0.0       0.00       51.7       0.00       0.14        0.0
11:14             184       19.3         59       26.0      461.6       25.4       26.9       17.4     1015.7       26.0       18.0        0.0        0.0        0.0       0.00       52.1       0.00       0.14        0.0
11:16             174       22.5         58       26.1      461.6       24.1       27.0       17.2     1015.6       26.1       18.0        0.0        0.0        0.0       0.00       52.6       0.00       0.18        0.0
11:18             178       14.5         58       26.2      461.6       24.8       27.1       17.3     1015.5       26.2       18.0        0.0        0.0        0.0       0.00       53.1       0.00       0.18        0.0
11:20             206       12.9         57       26.3      461.6       25.7       27.1       17.1     1015.6       26.3       18.0        0.0        0.0        0.0       0.00       53.4       0.00       0.18        0.0
11:22             248       24.1         58       26.3      461.6       24.3       27.2       17.4     1015.6       26.3       18.0        0.0        0.0        0.0       0.00       53.8       0.00       0.18        0.0
11:23             220        9.7         57       26.2      461.6       25.6       27.1       17.0     1015.6       26.3       18.0        0.0        0.0        0.0       0.00       54.2       0.00       0.18        0.0
11:26             177       17.7         59       26.2      461.6       25.3       27.1       17.5     1015.6       26.3       18.0        0.0        0.0        0.0       0.00       54.6       0.00       0.18        0.0
11:27             196       11.3         59       26.2      461.6       25.5       27.1       17.5     1015.6       26.3       18.0        0.0        0.0        0.0       0.00       54.9       0.00       0.18        0.0
11:30             181       11.3         59       26.2      461.6       25.3       27.1       17.5     1015.6       26.3       18.0        0.0        0.0        0.0       0.00       55.2       0.00       0.18        0.0
11:32             173       14.5         60       26.2      461.6       25.1       27.2       17.9     1015.6       26.3       18.0        0.0        0.0        0.0       0.00       55.7       0.00       0.23        0.0
11:34             157       17.7         60       26.3      461.6       24.6       27.3       18.0     1015.6       26.3       18.0        0.0        0.0        0.0       0.00       55.9       0.00       0.23        0.0
11:36             181       12.9         60       26.4      461.6       25.6       27.4       18.1     1015.5       26.4       18.0        0.0        0.0        0.0       0.00       56.3       0.00       0.23        0.0
11:38             180       11.3         60       26.6      461.6       25.7       27.6       18.2     1015.5       26.6       18.0        0.0        0.0        0.0       0.00       56.6       0.00       0.23        0.0
11:40             182        6.4         60       26.6      461.6       26.6       27.6       18.2     1015.5       26.6       18.0        0.0        0.0        0.0       0.00       56.8       0.00       0.23        0.0
11:42             198        4.8         60       26.6      461.6       26.6       27.6       18.2     1015.5       26.6       18.0        0.0        0.0        0.0       0.00       57.0       0.00       0.23        0.0
11:44             180       12.9         60       26.7      461.6       26.3       27.7       18.3     1015.5       26.7       18.0        0.0        0.0        0.0       0.00       57.2       0.00       0.23        0.0
11:46             178       11.3         60       26.7      461.6       26.1       27.7       18.3     1015.4       26.7       18.0        0.0        0.0        0.0       0.00       57.5       0.00       0.28        0.0
11:47             213       12.9         61       26.7      461.6       26.4       27.8       18.6     1015.4       26.7       18.0        0.0        0.0        0.0       0.00       57.8       0.00       0.28        0.0
11:50             236       16.1         58       26.8      461.6       26.4       27.7       17.8     1015.5       26.8       18.0        0.0        0.0        0.0       0.00       58.1       0.00       0.28        0.0
11:52             217        8.0         57       26.9      461.6       26.6       27.7       17.7     1015.5       26.9       18.0        0.0        0.0        0.0       0.00       58.3       0.00       0.28        0.0
11:54             221        8.0         58       26.9      461.6       26.9       27.8       17.9     1015.6       26.9       18.0        0.0        0.0        0.0       0.00       58.5       0.00       0.28        0.0
11:56             217        6.4         59       27.0      461.6       27.0       28.0       18.3     1015.5       27.0       18.0        0.0        0.0        0.0       0.00       58.7       0.00       0.28        0.0
11:58             186       19.3         60       27.1      461.6       25.5       28.2       18.7     1015.4       27.1       18.0        0.0        0.0        0.0       0.00       59.1       0.00       0.28        0.0
12:00             182        9.7         59       27.2      461.6       26.7       28.3       18.5     1015.4       27.2       18.0        0.0        0.0        0.0       0.00       59.4       0.00       0.28        0.0
12:02             196        9.7         56       27.2      461.6       27.2       28.1       17.7     1015.5       27.2       18.0        0.0        0.0        0.0       0.00       59.8       0.00       0.33        0.0
12:04             192       11.3         57       27.3      461.6       26.5       28.2       18.0     1015.5       27.3       18.0        0.0        0.0        0.0       0.00       60.0       0.00       0.33        0.0
12:06             213       17.7         57       27.4      461.6       26.2       28.3       18.1     1015.4       27.4       18.0        0.0        0.0        0.0       0.00       60.3       0.00       0.33        0.0
12:08             224        9.7         56       27.4      461.6       27.4       28.3       17.9     1015.4       27.4       18.0        0.0        0.0        0.0       0.00       60.6       0.00       0.33        0.0
12:10             191       12.9         57       27.5      461.6       26.8       28.5       18.2     1015.5       27.5       18.0        0.0        0.0        0.0       0.00       61.0       0.00       0.33        0.0
12:12             198       11.3         56       27.6      461.6       27.1       28.5       18.1     1015.5       27.6       18.0        0.0        0.0        0.0       0.00       61.3       0.00       0.33        0.0
12:14             197       11.3         54       27.7      461.6       27.4       28.4       17.5     1015.5       27.7       18.0        0.0        0.0        0.0       0.00       61.7       0.00       0.33        0.0
12:16             198        6.4         55       27.7      461.6       27.7       28.6       17.9     1015.4       27.7       18.0        0.0        0.0        0.0       0.00       61.8       0.00       0.39        0.0
12:18             185        8.0         56       27.7      461.6       27.4       28.7       18.2     1015.5       27.7       18.0        0.0        0.0        0.0       0.00       62.3       0.00       0.39        0.0
12:20             200       11.3         56       27.8      461.6       27.1       28.7       18.2     1015.4       27.8       18.0        0.0        0.0        0.0       0.00       62.6       0.00       0.39        0.0
12:22             200       16.1         57       27.8      461.6       27.3       28.8       18.5     1015.3       27.8       18.0        0.0        0.0        0.0       0.00       62.9       0.00       0.39        0.0
12:24             190       11.3         56       27.8      461.6       27.8       28.8       18.3     1015.4       27.8       18.0        0.0        0.0        0.0       0.00       63.3       0.00       0.39        0.0
12:25             200       12.9         55       27.8      461.6       27.6       28.7       18.0     1015.4       27.8       18.0        0.0        0.0        0.0       0.00       63.6       0.00       0.39        0.0
12:28             200       19.3         56       27.9      461.6       27.0       28.9       18.3     1015.3       27.9       18.0        0.0        0.0        0.0       0.00       63.9       0.00       0.39        0.0
12:30             175       17.7         56       27.9      461.6       26.9       28.9       18.3     1015.3       27.9       18.0        0.0        0.0        0.0       0.00       64.3       0.00       0.39        0.0
12:32             203       16.1         56       27.9      461.6       27.5       28.9       18.4     1015.2       27.9       18.0        0.0        0.0        0.0       0.00       64.8       0.00       0.45        0.0
12:34             213       19.3         56       27.9      461.6       27.2       28.9       18.3     1015.3       27.9       18.0        0.0        0.0        0.0       0.00       65.1       0.00       0.45        0.0
12:36             221       12.9         56       27.8      461.6       27.0       28.8       18.3     1015.3       27.9       18.0        0.0        0.0        0.0       0.00       65.6       0.00       0.45        0.0
12:38             227       12.9         56       27.7      461.6       27.7       28.7       18.2     1015.2       27.9       18.0        0.0        0.0        0.0       0.00       66.0       0.00       0.45        0.0
12:39             214       22.5         54       27.7      461.6       26.6       28.4       17.5     1015.2       27.9       18.0        0.0        0.0        0.0       0.00       66.5       0.00       0.45        0.0
12:42             175       16.1         54       27.6      461.6       26.3       28.4       17.5     1015.1       27.9       18.0        0.0        0.0        0.0       0.00       66.9       0.00       0.45        0.0
12:44             174       22.5         55       27.6      461.6       25.9       28.4       17.8     1015.1       27.9       18.0        0.0        0.0        0.0       0.00       67.2       0.00       0.45        0.0
12:46             207       14.5         55       27.7      461.6       27.2       28.6       17.9     1015.1       27.9       18.0        0.0        0.0        0.0       0.00       67.7       0.00       0.51        0.0
12:48             219       16.1         54       27.8      461.6       27.8       28.5       17.6     1015.1       27.9       18.0        0.0        0.0        0.0       0.00       68.1       0.00       0.51        0.0
12:50             190       16.1         54       27.8      461.6       26.9       28.5       17.6     1015.1       27.9       18.0        0.0        0.0        0.0       0.00       68.5       0.00       0.51        0.0
12:52             196       17.7         54       27.9      461.6       26.9       28.7       17.7     1015.1       27.9       18.0        0.0        0.0        0.0       0.00       68.9       0.00       0.51        0.0
12:54             192       12.9         54       28.1      461.6       27.2       28.9       17.9     1015.1       28.1       18.0        0.0        0.0        0.0       0.00       69.3       0.00       0.51        0.0
12:56             182       11.3         55       28.2      461.6       27.9       29.1       18.3     1015.1       28.2       18.0        0.0        0.0        0.0       0.00       69.7       0.00       0.51        0.0
12:58             212       20.9         55       28.2      461.6       27.1       29.2       18.3     1015.0       28.2       18.0        0.0        0.0        0.0       0.00       70.1       0.00       0.51        0.0
13:00             240       17.7         54       28.3      461.6       27.2       29.2       18.1     1014.9       28.3       18.0        0.0        0.0        0.0       0.00       70.6       0.00       0.51        0.0
13:02             232       12.9         53       28.2      461.6       27.4       29.0       17.7     1015.0       28.3       18.0        0.0        0.0        0.0       0.00       70.9       0.00       0.58        0.0
13:04             183       27.4         54       28.3      461.6       28.0       29.2       18.1     1015.0       28.3       18.0        0.0        0.0        0.0       0.00       71.4       0.00       0.58        0.0
13:06             235       22.5         53       28.4      461.6       27.1       29.2       17.9     1014.9       28.4       18.0        0.0        0.0        0.0       0.00       71.8       0.00       0.58        0.0
13:08             204        8.0         53       28.4      461.6       28.4       29.3       17.9     1014.8       28.4       18.0        0.0        0.0        0.0       0.00       72.2       0.00       0.58        0.0
13:09             213       14.5         53       28.5      461.6       27.9       29.4       18.0     1014.8       28.5       18.0        0.0        0.0        0.0       0.00       72.6       0.00       0.58        0.0
13:12             214       16.1         53       28.6      461.6       28.2       29.5       18.1     1014.8       28.6       18.0        0.0        0.0        0.0       0.00       73.0       0.00       0.58        0.0
13:13             177       20.9         54       28.7      461.6       28.2       29.8       18.5     1014.8       28.7       18.0        0.0        0.0        0.0       0.00       73.3       0.00       0.58        0.0
13:16             179        8.0         54       28.8      461.6       28.8       29.9       18.6     1014.7       28.8       18.0        0.0        0.0        0.0       0.00       73.8       0.00       0.65        0.0
13:18             223       19.3         53       28.9      461.6       27.8       30.0       18.4     1014.7       28.9       18.0        0.0        0.0        0.0       0.00       74.1       0.00       0.65        0.0
13:20             188       16.1         52       29.0      461.6       28.2       29.9       18.2     1014.7       29.0       18.0        0.0        0.0        0.0       0.00       74.5       0.00       0.65        0.0
13:22             224       14.5         51       29.0      461.6       28.8       29.8       17.8     1014.7       29.0       18.0        0.0        0.0        0.0       0.00       75.0       0.00       0.65        0.0
13:24             190       32.2         52       29.0      461.6       27.6       29.9       18.2     1014.6       29.0       18.0        0.0        0.0        0.0       0.00       75.5       0.00       0.65        0.0
13:26             174       29.0         51       29.1      461.6       27.7       29.9       17.9     1014.6       29.1       18.0        0.0        0.0        0.0       0.00       76.2       0.00       0.65        0.0
13:28             204       19.3         52       29.1      461.6       28.0       30.0       18.2     1014.6       29.1       18.0        0.0        0.0        0.0       0.00       76.8       0.00       0.65        0.0
13:30             234       14.5         52       29.1      461.6       28.8       30.0       18.2     1014.5       29.1       18.0        0.0        0.0        0.0       0.00       77.2       0.00       0.65        0.0
13:32             215        8.0         53       29.1      461.6       29.1       30.1       18.5     1014.5       29.1       18.0        0.0        0.0        0.0       0.00       77.4       0.00       0.72        0.0
13:34             205       16.1         51       29.1      461.6       28.4       29.9       17.9     1014.6       29.1       18.0        0.0        0.0        0.0       0.00       77.8       0.00       0.72        0.0
13:36             179       20.9         52       29.1      461.6       28.0       30.0       18.2     1014.6       29.1       18.0        0.0        0.0        0.0       0.00       78.3       0.00       0.72        0.0
13:38             163       22.5         51       29.2      461.6       27.9       30.0       18.0     1014.5       29.2       18.0        0.0        0.0        0.0       0.00       78.8       0.00       0.72        0.0
13:40             186       17.7         51       29.2      461.6       28.3       30.1       18.1     1014.5       29.3       18.0        0.0        0.0        0.0       0.00       79.3       0.00       0.72        0.0
13:42             207       19.3         51       29.3      461.6       28.5       30.2       18.1     1014.5       29.3       18.0        0.0        0.0        0.0       0.00       79.8       0.00       0.72        0.0
13:44             242       19.3         51       29.2      461.6       29.0       30.1       18.1     1014.5       29.3       18.0        0.0        0.0        0.0       0.00       80.1       0.00       0.72        0.0
13:46             229       14.5         51       29.2      461.6       29.0       30.1       18.1     1014.4       29.3       18.0        0.0        0.0        0.0       0.00       80.5       0.00       0.79        0.0
13:48             189       16.1         51       29.2      461.6       28.8       30.0       18.0     1014.4       29.3       18.0        0.0        0.0        0.0       0.00       80.8       0.00       0.79        0.0
13:50             191       16.1         51       29.2      461.6       29.0       30.1       18.1     1014.4       29.3       18.0        0.0        0.0        0.0       0.00       81.2       0.00       0.79        0.0
13:52             198       14.5         50       29.3      461.6       28.8       30.0       17.8     1014.4       29.3       18.0        0.0        0.0        0.0       0.00       81.8       0.00       0.79        0.0
13:54             231       17.7         50       29.3      461.6       29.1       30.0       17.8     1014.5       29.3       18.0        0.0        0.0        0.0       0.00       82.2       0.00       0.79        0.0
13:56             194       14.5         51       29.2      461.6       28.7       30.1       18.1     1014.4       29.3       18.0        0.0        0.0        0.0       0.00       82.5       0.00       0.79        0.0
13:58             209       19.3         51       29.3      461.6       28.7       30.2       18.1     1014.4       29.3       18.0        0.0        0.0        0.0       0.00       82.9       0.00       0.79        0.0
14:00             200        8.0         50       29.4      461.6       29.3       30.3       17.9     1014.3       29.4       18.0        0.0        0.0        0.0       0.00       83.2       0.00       0.79        0.0
14:02             241       17.7         49       29.6      461.6       28.7       30.3       17.7     1014.3       29.6       18.0        0.0        0.0        0.0       0.00       83.5       0.00       0.87        0.0
14:03             171       19.3         48       29.6      461.6       28.9       30.2       17.4     1014.2       29.6       18.0        0.0        0.0        0.0       0.00       84.0       0.00       0.87        0.0
14:06             178       33.8         48       29.7      461.6       28.5       30.3       17.5     1014.3       29.7       18.0        0.0        0.0        0.0       0.00       84.5       0.00       0.87        0.0
14:08             209       16.1         48       29.8      461.6       29.5       30.5       17.7     1014.2       29.8       18.0        0.0        0.0        0.0       0.00       85.0       0.00       0.87        0.0
14:10             215       12.9         46       29.9      461.6       29.9       30.4       17.1     1014.2       29.9       18.0        0.0        0.0        0.0       0.00       85.5       0.00       0.87        0.0
14:11             205       12.9         47       30.0      461.6       30.0       30.6       17.5     1014.2       30.0       18.0        0.0        0.0        0.0       0.00       85.9       0.00       0.87        0.0
14:14             205       16.1         48       30.1      461.6       29.7       30.9       17.9     1014.1       30.1       18.0        0.0        0.0        0.0       0.00       86.2       0.00       0.87        0.0
14:16             188       19.3         47       30.2      461.6       30.0       30.9       17.7     1014.2       30.2       18.0        0.0        0.0        0.0       0.00       86.7       0.00       0.96        0.0
14:18             185       22.5         47       30.3      461.6       29.6       31.1       17.8     1014.1       30.3       18.0        0.0        0.0        0.0       0.00       87.1       0.00       0.96        0.0
14:20             195       16.1         45       30.4      461.6       30.1       30.8       17.1     1014.2       30.4       18.0        0.0        0.0        0.0       0.00       87.6       0.00       0.96        0.0
14:22             215       12.9         46       30.4      461.6       30.0       31.0       17.5     1014.2       30.4       18.0        0.0        0.0        0.0       0.00       87.9       0.00       0.96        0.0
14:24             194       14.5         47       30.3      461.6       29.8       31.1       17.8     1014.1       30.4       18.0        0.0        0.0        0.0       0.00       88.4       0.00       0.96        0.0
14:25             178       22.5         47       30.3      461.6       29.8       31.1       17.8     1014.1       30.4       18.0        0.0        0.0        0.0       0.00       88.8       0.00       0.96        0.0
14:28             214       17.7         46       30.4      461.6       29.8       31.0       17.5     1014.0       30.4       18.0        0.0        0.0        0.0       0.00       89.2       0.00       0.96        0.0
14:30             217       14.5         45       30.5      461.6       30.4       31.0       17.2     1014.1       30.5       18.0        0.0        0.0        0.0       0.00       89.5       0.00       0.96        0.0
14:32             229       14.5         44       30.6      461.6       30.3       31.0       17.0     1014.0       30.6       18.0        0.0        0.0        0.0       0.00       89.9       0.00       1.05        0.0
14:34             210       11.3         45       30.6      461.6       30.3       31.1       17.3     1014.0       30.6       18.0        0.0        0.0        0.0       0.00       90.3       0.00       1.05        0.0
14:36             183       16.1         45       30.5      461.6       30.4       31.0       17.2     1014.1       30.6       18.0        0.0        0.0        0.0       0.00       90.7       0.00       1.05        0.0
14:37             211       14.5         46       30.5      461.6       30.4       31.1       17.6     1014.1       30.6       18.0        0.0        0.0        0.0       0.00       91.1       0.00       1.05        0.0
14:40             179        6.4         45       30.4      461.6       30.4       30.9       17.2     1014.0       30.6       18.0        0.0        0.0        0.0       0.00       91.4       0.00       1.05        0.0
14:42             246       12.9         46       30.4      461.6       30.0       31.1       17.5     1013.8       30.6       18.0        0.0        0.0        0.0       0.00       91.7       0.00       1.05        0.0
14:44             205       12.9         44       30.4      461.6       30.1       30.8       16.8     1013.8       30.6       18.0        0.0        0.0        0.0       0.00       92.1       0.00       1.05        0.0
14:46             221       11.3         45       30.4      461.6       30.1       30.8       17.1     1013.9       30.6       18.0        0.0        0.0        0.0       0.00       92.6       0.00       1.13        0.0
14:48             202       11.3         45       30.4      461.6       30.1       30.8       17.1     1013.7       30.6       18.0        0.0        0.0        0.0       0.00       92.9       0.00       1.13        0.0
14:50             194       16.1         42       30.5      461.6       30.0       30.6       16.1     1013.8       30.6       18.0        0.0        0.0        0.0       0.00       93.3       0.00       1.13        0.0
14:52             188       11.3         41       30.6      461.6       30.4       30.5       15.8     1013.7       30.6       18.0        0.0        0.0        0.0       0.00       93.7       0.00       1.13        0.0
14:54             184       14.5         42       30.7      461.6       30.3       30.8       16.3     1013.7       30.7       18.0        0.0        0.0        0.0       0.00       94.1       0.00       1.13        0.0
14:55             188        9.7         43       30.7      461.6       30.5       31.0       16.7     1013.7       30.7       18.0        0.0        0.0        0.0       0.00       94.4       0.00       1.13        0.0
14:58             180       19.3         43       30.8      461.6       30.3       31.1       16.8     1013.6       30.8       18.0        0.0        0.0        0.0       0.00       94.9       0.00       1.13        0.0
15:00             164       19.3         43       30.8      461.6       30.3       31.1       16.8     1013.6       30.8       18.0        0.0        0.0        0.0       0.00       95.4       0.00       1.13        0.0
15:02             208       11.3         44       30.9      461.6       30.7       31.5       17.3     1013.6       30.9       18.0        0.0        0.0        0.0       0.00       95.8       0.00       1.23        0.0
15:04             253       14.5         44       30.9      461.6       30.9       31.5       17.3     1013.6       30.9       18.0        0.0        0.0        0.0       0.00       96.2       0.00       1.23        0.0
15:06             195       20.9         44       31.0      461.6       30.4       31.5       17.3     1013.6       31.0       18.0        0.0        0.0        0.0       0.00       96.7       0.00       1.23        0.0
15:07             178       12.9         44       31.0      461.6       30.7       31.5       17.3     1013.5       31.0       18.0        0.0        0.0        0.0       0.00       97.1       0.00       1.23        0.0
15:09             219       14.5         44       31.1      461.6       30.7       31.6       17.4     1013.5       31.1       18.0        0.0        0.0        0.0       0.00       97.6       0.00       1.23        0.0
15:12             213        9.7         45       31.1      461.6       31.1       31.9       17.8     1013.5       31.1       18.0        0.0        0.0        0.0       0.00       97.9       0.00       1.23        0.0
15:14             186       14.5         45       31.2      461.6       30.9       32.0       17.9     1013.5       31.2       18.0        0.0        0.0        0.0       0.00       98.3       0.00       1.23        0.0
15:16             212       16.1         44       31.2      461.6       30.9       31.9       17.5     1013.5       31.2       18.0        0.0        0.0        0.0       0.00       98.6       0.00       1.32        0.0
15:18             221       16.1         44       31.2      461.6       30.8       31.8       17.5     1013.5       31.2       18.0        0.0        0.0        0.0       0.00       99.0       0.00       1.32        0.0
15:20             187        9.7         44       31.1      461.6       31.1       31.6       17.4     1013.4       31.2       18.0        0.0        0.0        0.0       0.00       99.4       0.00       1.32        0.0
15:22             236       19.3         43       31.0      461.6       30.8       31.4       17.0     1013.5       31.2       18.0        0.0        0.0        0.0       0.00       99.8       0.00       1.32        0.0
15:23             227       11.3         44       30.9      461.6       30.6       31.4       17.2     1013.5       31.2       18.0        0.0        0.0        0.0       0.00      100.1       0.00       1.32        0.0
15:26             213       14.5         43       30.9      461.6       30.5       31.2       16.9     1013.5       31.2       18.0        0.0        0.0        0.0       0.00      100.5       0.00       1.32        0.0
15:28             200       11.3         42       30.8      461.6       30.6       30.9       16.4     1013.4       31.2       18.0        0.0        0.0        0.0       0.00      100.9       0.00       1.32        0.0
15:30             211       16.1         42       30.8      461.6       30.3       30.9       16.4     1013.4       31.2       18.0        0.0        0.0        0.0       0.00      101.3       0.00       1.32        0.0
15:32             217       16.1         43       30.8      461.6       30.6       31.1       16.8     1013.3       31.2       18.0        0.0        0.0        0.0       0.00      101.7       0.00       1.41        0.0
15:34             243       16.1         42       30.8      461.6       30.3       31.0       16.4     1013.4       31.2       18.0        0.0        0.0        0.0       0.00      102.1       0.00       1.41        0.0
15:36             234       14.5         42       30.8      461.6       30.5       30.9       16.4     1013.3       31.2       18.0        0.0        0.0        0.0       0.00      102.4       0.00       1.41        0.0
15:38             209       17.7         42       30.8      461.6       30.5       30.9       16.4     1013.3       31.2       18.0        0.0        0.0        0.0       0.00      102.9       0.00       1.41        0.0
15:40             205       14.5         41       30.8      461.6       30.3       30.8       16.0     1013.3       31.2       18.0        0.0        0.0        0.0       0.00      103.3       0.00       1.41        0.0
15:42             213       12.9         41       30.8      461.6       30.6       30.8       16.1     1013.3       31.2       18.0        0.0        0.0        0.0       0.00      103.6       0.00       1.41        0.0
15:44             188       17.7         42       30.9      461.6       30.4       31.1       16.5     1013.3       31.2       18.0        0.0        0.0        0.0       0.00      104.0       0.00       1.41        0.0
15:45             171       22.5         42       31.0      461.6       30.6       31.2       16.6     1013.2       31.2       18.0        0.0        0.0        0.0       0.00      104.5       0.00       1.51        0.0
15:48             220       17.7         42       31.0      461.6       30.6       31.2       16.6     1013.2       31.2       18.0        0.0        0.0        0.0       0.00      104.9       0.00       1.51        0.0
15:50             221       16.1         44       30.9      461.6       30.8       31.4       17.2     1013.2       31.2       18.0        0.0        0.0        0.0       0.00      105.3       0.00       1.51        0.0
15:52             257       11.3         45       30.8      461.6       30.5       31.4       17.5     1013.2       31.2       18.0        0.0        0.0        0.0       0.00      105.6       0.00       1.51        0.0
15:54             221       20.9         45       30.7      461.6       30.0       31.3       17.4     1013.2       31.2       18.0        0.0        0.0        0.0       0.00      105.9       0.00       1.51        0.0
15:56             200       16.1         44       30.7      461.6       30.2       31.1       17.1     1013.2       31.2       18.0        0.0        0.0        0.0       0.00      106.3       0.00       1.51        0.0
15:58             232       20.9         44       30.7      461.6       30.0       31.1       17.1     1013.2       31.2       18.0        0.0        0.0        0.0       0.00      106.7       0.00       1.51        0.0
16:00             242       12.9         44       30.6      461.6       30.2       31.0       17.0     1013.2       31.2       18.0        0.0        0.0        0.0       0.00      107.2       0.00       1.51        0.0
16:02             236       14.5         45       30.4      461.6       30.1       30.9       17.2     1013.1       31.2       18.0        0.0        0.0        0.0       0.00      107.6       0.00       1.59        0.0
16:04             213       24.1         44       30.4      461.6       29.6       30.8       16.8     1013.1       31.2       18.0        0.0        0.0        0.0       0.00      108.1       0.00       1.59        0.0
16:06             248       22.5         44       30.4      461.6       29.8       30.7       16.8     1013.2       31.2       18.0        0.0        0.0        0.0       0.00      108.6       0.00       1.59        0.0
16:08             215       12.9         45       30.3      461.6       29.8       30.7       17.0     1013.2       31.2       18.0        0.0        0.0        0.0       0.00      109.0       0.00       1.59        0.0
16:10             213       19.3         45       30.2      461.6       30.0       30.6       17.0     1013.2       31.2       18.0        0.0        0.0        0.0       0.00      109.4       0.00       1.59        0.0
16:12             220       24.1         45       30.1      461.6       29.4       30.5       16.9     1013.4       31.2       18.0        0.0        0.0        0.0       0.00      109.9       0.00       1.59        0.0
16:14             219        9.7         46       30.1      461.6       30.1       30.5       17.2     1013.2       31.2       18.0        0.0        0.0        0.0       0.00      110.3       0.00       1.59        0.0
16:16             225       11.3         46       30.1      461.6       29.9       30.5       17.2     1013.2       31.2       18.0        0.0        0.0        0.0       0.00      110.7       0.00       1.68        0.0
16:18             236       14.5         47       30.0      461.6       29.6       30.6       17.5     1013.2       31.2       18.0        0.0        0.0        0.0       0.00      111.1       0.00       1.68        0.0
16:20             229       11.3         47       29.9      461.6       29.7       30.5       17.4     1013.2       31.2       18.0        0.0        0.0        0.0       0.00      111.4       0.00       1.68        0.0
16:22             252       14.5         47       29.9      461.6       29.7       30.4       17.4     1013.2       31.2       18.0        0.0        0.0        0.0       0.00      111.8       0.00       1.68        0.0
16:24             234       19.3         48       29.8      461.6       29.2       30.5       17.7     1013.2       31.2       18.0        0.0        0.0        0.0       0.00      112.2       0.00       1.68        0.0
16:26             217        9.7         48       29.8      461.6       29.8       30.5       17.7     1013.2       31.2       18.0        0.0        0.0        0.0       0.00      112.6       0.00       1.68        0.0
16:28             258       16.1         47       29.8      461.6       29.4       30.3       17.3     1013.2       31.2       18.0        0.0        0.0        0.0       0.00      113.0       0.00       1.68        0.0
16:30             237       14.5         48       29.7      461.6       29.0       30.3       17.5     1013.1       31.2       18.0        0.0        0.0        0.0       0.00      113.3       0.00       1.68        0.0
16:32             234       16.1         48       29.7      461.6       29.0       30.3       17.5     1013.1       31.2       18.0        0.0        0.0        0.0       0.00      113.7       0.00       1.76        0.0
16:34             214       16.1         48       29.6      461.6       28.8       30.2       17.4     1013.2       31.2       18.0        0.0        0.0        0.0       0.00      114.1       0.00       1.76        0.0
16:36             216       17.7         48       29.6      461.6       28.7       30.1       17.4     1013.1       31.2       18.0        0.0        0.0        0.0       0.00      114.6       0.00       1.76        0.0
16:38             211       19.3         48       29.5      461.6       28.9       30.1       17.3     1013.1       31.2       18.0        0.0        0.0        0.0       0.00      115.1       0.00       1.76        0.0
16:40             243       14.5         47       29.4      461.6       29.3       29.9       17.0     1013.1       31.2       18.0        0.0        0.0        0.0       0.00      115.5       0.00       1.76        0.0
16:42             232       16.1         48       29.4      461.6       28.8       29.9       17.2     1013.1       31.2       18.0        0.0        0.0        0.0       0.00      115.8       0.00       1.76        0.0
16:43             219       12.9         49       29.4      461.6       29.1       30.0       17.6     1013.1       31.2       18.0        0.0        0.0        0.0       0.00      116.2       0.00       1.76        0.0
16:46             252       16.1         49       29.3      461.6       28.9       30.0       17.5     1013.2       31.2       18.0        0.0        0.0        0.0       0.00      116.6       0.00       1.84        0.0
16:48             227        9.7         48       29.3      461.6       28.9       29.8       17.1     1013.1       31.2       18.0        0.0        0.0        0.0       0.00      117.0       0.00       1.84        0.0
16:50             221       17.7         48       29.3      461.6       28.4       29.8       17.1     1013.1       31.2       18.0        0.0        0.0        0.0       0.00      117.5       0.00       1.84        0.0
16:52             236       14.5         48       29.2      461.6       29.0       29.7       17.1     1013.1       31.2       18.0        0.0        0.0        0.0       0.00      117.9       0.00       1.84        0.0
16:54             219       16.1         49       29.2      461.6       29.0       29.8       17.4     1013.2       31.2       18.0        0.0        0.0        0.0       0.00      118.3       0.00       1.84        0.0
16:56             227       12.9         50       29.2      461.6       28.7       30.0       17.7     1013.1       31.2       18.0        0.0        0.0        0.0       0.00      118.7       0.00       1.84        0.0
16:58             236       19.3         49       29.3      461.6       28.4       29.9       17.5     1013.1       31.2       18.0        0.0        0.0        0.0       0.00      119.1       0.00       1.84        0.0
17:00             212       17.7         49       29.2      461.6       28.9       29.8       17.4     1013.1       31.2       18.0        0.0        0.0        0.0       0.00      119.6       0.00       1.84        0.0
17:01             229       22.5         49       29.2      461.6       28.7       29.8       17.4     1013.1       31.2       18.0        0.0        0.0        0.0       0.00      120.0       0.00       1.91        0.0
17:04             253       22.5         48       29.1      461.6       27.9       29.6       17.0     1013.1       31.2       18.0        0.0        0.0        0.0       0.00      120.5       0.00       1.91        0.0
17:06             217       12.9         49       29.0      461.6       28.8       29.5       17.2     1013.1       31.2       18.0        0.0        0.0        0.0       0.00      120.9       0.00       1.91        0.0
17:08             220       20.9         50       28.9      461.6       28.4       29.6       17.5     1013.1       31.2       18.0        0.0        0.0        0.0       0.00      121.3       0.00       1.91        0.0
17:10             227       16.1         50       28.9      461.6       28.2       29.5       17.4     1013.1       31.2       18.0        0.0        0.0        0.0       0.00      121.7       0.00       1.91        0.0
17:12             211       19.3         49       28.8      461.6       27.7       29.3       17.1     1013.1       31.2       18.0        0.0        0.0        0.0       0.00      122.1       0.00       1.91        0.0
17:14             219       19.3         50       28.8      461.6       27.9       29.4       17.3     1013.1       31.2       18.0        0.0        0.0        0.0       0.00      122.7       0.00       1.91        0.0
17:16             205       16.1         51       28.7      461.6       27.7       29.4       17.6     1013.1       31.2       18.0        0.0        0.0        0.0       0.00      123.1       0.00       1.98        0.0
17:18             207       16.1         51       28.7      461.6       27.9       29.3       17.5     1013.1       31.2       18.0        0.0        0.0        0.0       0.00      123.6       0.00       1.98        0.0
17:20             223       16.1         51       28.6      461.6       28.0       29.3       17.5     1013.1       31.2       18.0        0.0        0.0        0.0       0.00      124.0       0.00       1.98        0.0
17:22             224       16.1         50       28.5      461.6       27.4       29.0       17.1     1013.1       31.2       18.0        0.0        0.0        0.0       0.00      124.5       0.00       1.98        0.0
17:24             222       17.7         50       28.4      461.6       27.2       28.9       17.0     1013.1       31.2       18.0        0.0        0.0        0.0       0.00      124.9       0.00       1.98        0.0
17:26             211       12.9         51       28.3      461.6       27.9       28.9       17.2     1013.1       31.2       18.0        0.0        0.0        0.0       0.00      125.3       0.00       1.98        0.0
17:28             208        9.7         51       28.3      461.6       28.3       28.9       17.2     1013.1       31.2       18.0        0.0        0.0        0.0       0.00      125.5       0.00       1.98        0.0
17:30             208       16.1         50       28.3      461.6       27.7       28.8       16.9     1013.1       31.2       18.0        0.0        0.0        0.0       0.00      126.0       0.00       1.98        0.0
17:31             213       17.7         50       28.3      461.6       27.7       28.8       16.9     1013.1       31.2       18.0        0.0        0.0        0.0       0.00      126.4       0.00       2.05        0.0
17:34             190       16.1         50       28.3      461.6       27.7       28.8       16.9     1013.1       31.2       18.0        0.0        0.0        0.0       0.00      126.8       0.00       2.05        0.0
17:36             227       16.1         50       28.3      461.6       27.7       28.8       16.9     1013.1       31.2       18.0        0.0        0.0        0.0       0.00      127.2       0.00       2.05        0.0
17:50             200       12.9         52       28.1      461.6       27.3       28.8       17.3     1013.1       31.2       18.0        0.0        0.0        0.0       0.00      119.6       0.00       1.90        0.0
17:52             221       17.7         52       28.1      461.6       27.2       28.7       17.3     1013.1       31.2       18.0        0.0        0.0        0.0       0.00      119.8       0.00       1.90        0.0
17:54             236       16.1         51       28.0      461.6       27.7       28.5       16.9     1013.1       31.2       18.0        0.0        0.0        0.0       0.00      120.2       0.00       1.90        0.0
17:55             236       17.7         52       27.9      461.6       27.2       28.5       17.1     1013.1       31.2       18.0        0.0        0.0        0.0       0.00      120.6       0.00       1.90        0.0
17:58             196        8.0         52       27.8      461.6       27.8       28.4       17.1     1013.1       31.2       18.0        0.0        0.0        0.0       0.00      120.9       0.00       1.90        0.0
18:00             207       20.9         52       27.8      461.6       27.4       28.4       17.1     1013.1       31.2       18.0        0.0        0.0        0.0       0.00      121.2       0.00       1.90        0.0
18:02             205       16.1         52       27.8      461.6       27.5       28.4       17.0     1013.1       31.2       18.0        0.0        0.0        0.0       0.00      121.6       0.00       1.96        0.0
18:03             223       16.1         52       27.7      461.6       27.2       28.3       17.0     1013.1       31.2       18.0        0.0        0.0        0.0       0.00      122.0       0.00       1.96        0.0
18:06             190       14.5         52       27.6      461.6       27.6       28.2       16.9     1013.1       31.2       18.0        0.0        0.0        0.0       0.00      122.4       0.00       1.96        0.0
18:08             215       11.3         53       27.6      461.6       26.9       28.3       17.2     1013.2       31.2       18.0        0.0        0.0        0.0       0.00      122.6       0.00       1.96        0.0
18:10             219       11.3         53       27.6      461.6       26.9       28.2       17.1     1013.1       31.2       18.0        0.0        0.0        0.0       0.00      122.9       0.00       1.96        0.0
18:12             209       12.9         53       27.6      461.6       26.9       28.2       17.1     1013.2       31.2       18.0        0.0        0.0        0.0       0.00      123.3       0.00       1.96        0.0
18:14             223        9.7         53       27.5      461.6       27.2       28.1       17.1     1013.1       31.2       18.0        0.0        0.0        0.0       0.00      123.6       0.00       1.96        0.0
18:16             221        9.7         54       27.4      461.6       27.1       28.2       17.3     1013.1       31.2       18.0        0.0        0.0        0.0       0.00      123.9       0.00       2.02        0.0
18:18             202       14.5         54       27.4      461.6       26.5       28.1       17.3     1013.1       31.2       18.0        0.0        0.0        0.0       0.00      124.4       0.00       2.02        0.0
18:20             233       17.7         54       27.3      461.6       25.9       28.0       17.2     1013.1       31.2       18.0        0.0        0.0        0.0       0.00      124.8       0.00       2.02        0.0
18:21             224        9.7         54       27.2      461.6       26.8       27.8       17.1     1013.2       31.2       18.0        0.0        0.0        0.0       0.00      125.1       0.00       2.02        0.0
18:24             180       14.5         54       27.1      461.6       27.1       27.7       17.0     1013.2       31.2       18.0        0.0        0.0        0.0       0.00      125.4       0.00       2.02        0.0
18:25             221       20.9         55       27.0      461.6       26.2       27.7       17.2     1013.2       31.2       18.0        0.0        0.0        0.0       0.00      125.8       0.00       2.02        0.0
18:28             205       14.5         55       26.9      461.6       25.6       27.6       17.1     1013.2       31.2       18.0        0.0        0.0        0.0       0.00      126.2       0.00       2.02        0.0
18:30             213       11.3         55       26.8      461.6       26.0       27.6       17.0     1013.2       31.2       18.0        0.0        0.0        0.0       0.00      126.6       0.00       2.02        0.0
18:32             210       11.3         56       26.8      461.6       26.8       27.6       17.3     1013.2       31.2       18.0        0.0        0.0        0.0       0.00      126.9       0.00       2.07        0.0
18:33             210       11.3         56       26.7      461.6       26.1       27.5       17.2     1013.2       31.2       18.0        0.0        0.0        0.0       0.00      127.2       0.00       2.07        0.0
18:36             198       11.3         56       26.7      461.6       26.7       27.4       17.2     1013.2       31.2       18.0        0.0        0.0        0.0       0.00      127.6       0.00       2.07        0.0
18:38             213       11.3         56       26.6      461.6       26.3       27.4       17.1     1013.2       31.2       18.0        0.0        0.0        0.0       0.00      128.0       0.00       2.07        0.0
18:40             211       11.3         56       26.6      461.6       26.6       27.3       17.1     1013.2       31.2       18.0        0.0        0.0        0.0       0.00      128.2       0.00       2.07        0.0
18:42             207       12.9         56       26.5      461.6       25.7       27.3       17.0     1013.2       31.2       18.0        0.0        0.0        0.0       0.00      128.5       0.00       2.07        0.0
18:44             202       12.9         57       26.4      461.6       26.1       27.3       17.2     1013.2       31.2       18.0        0.0        0.0        0.0       0.00      128.8       0.00       2.07        0.0
18:46             199       11.3         57       26.4      461.6       25.5       27.2       17.2     1013.3       31.2       18.0        0.0        0.0        0.0       0.00      129.1       0.00       2.11        0.0
18:48             209       16.1         57       26.3      461.6       25.0       27.2       17.1     1013.2       31.2       18.0        0.0        0.0        0.0       0.00      129.5       0.00       2.11        0.0
18:50             199       12.9         58       26.2      461.6       25.5       27.1       17.3     1013.3       31.2       18.0        0.0        0.0        0.0       0.00      129.9       0.00       2.11        0.0
18:51             201       14.5         58       26.0      461.6       24.8       26.9       17.1     1013.2       31.2       18.0        0.0        0.0        0.0       0.00      130.2       0.00       2.11        0.0
18:54             207       11.3         59       25.9      461.6       25.0       26.8       17.3     1013.3       31.2       18.0        0.0        0.0        0.0       0.00      130.5       0.00       2.11        0.0
18:56             196       12.9         59       25.8      461.6       25.4       26.7       17.2     1013.4       31.2       18.0        0.0        0.0        0.0       0.00      130.8       0.00       2.11        0.0
18:58             223       16.1         59       25.7      461.6       25.0       26.6       17.1     1013.4       31.2       18.0        0.0        0.0        0.0       0.00      131.1       0.00       2.11        0.0
19:00             223        8.0         59       25.6      461.6       25.1       26.5       17.0     1013.4       31.2       18.0        0.0        0.0        0.0       0.00      131.3       0.00       2.11        0.0
19:02             218       11.3         60       25.4      461.6       24.8       26.4       17.1     1013.4       31.2       18.0        0.0        0.0        0.0       0.00      131.6       0.00       2.15        0.0
19:04             218       14.5         60       25.3      461.6       24.3       26.3       17.0     1013.4       31.2       18.0        0.0        0.0        0.0       0.00      132.0       0.00       2.15        0.0
19:06             213       14.5         60       25.2      461.6       24.2       26.2       16.9     1013.5       31.2       18.0        0.0        0.0        0.0       0.00      132.4       0.00       2.15        0.0
19:08             204       11.3         60       25.1      461.6       24.1       26.1       16.8     1013.5       31.2       18.0        0.0        0.0        0.0       0.00      132.7       0.00       2.15        0.0
19:10             214        9.7         61       25.0      461.6       25.0       26.1       17.0     1013.6       31.2       18.0        0.0        0.0        0.0       0.00      133.0       0.00       2.15        0.0
19:12             214       14.5         61       24.9      461.6       23.2       26.0       16.9     1013.4       31.2       18.0        0.0        0.0        0.0       0.00      133.3       0.00       2.15        0.0
19:14             202       16.1         61       24.8      461.6       23.8       25.9       16.8     1013.4       31.2       18.0        0.0        0.0        0.0       0.00      133.7       0.00       2.15        0.0
19:16             205        9.7         62       24.7      461.6       24.7       25.8       17.0     1013.4       31.2       18.0        0.0        0.0        0.0       0.00      133.9       0.00       2.18        0.0
19:18             202        6.4         62       24.7      461.6       24.7       25.8       16.9     1013.6       31.2       18.0        0.0        0.0        0.0       0.00      134.2       0.00       2.18        0.0
19:20             212       12.9         62       24.6      461.6       24.2       25.7       16.9     1013.6       31.2       18.0        0.0        0.0        0.0       0.00      134.5       0.00       2.18        0.0
19:22             198        8.0         62       24.6      461.6       24.6       25.7       16.8     1013.6       31.2       18.0        0.0        0.0        0.0       0.00      134.7       0.00       2.18        0.0
19:24             200       14.5         62       24.5      461.6       23.1       25.6       16.7     1013.6       31.2       18.0        0.0        0.0        0.0       0.00      135.0       0.00       2.18        0.0
19:26             202        9.7         63       24.4      461.6       23.6       25.6       16.9     1013.7       31.2       18.0        0.0        0.0        0.0       0.00      135.3       0.00       2.18        0.0
19:28             207        8.0         63       24.3      461.6       24.3       25.5       16.8     1013.7       31.2       18.0        0.0        0.0        0.0       0.00      135.6       0.00       2.18        0.0
19:30             208        9.7         63       24.3      461.6       24.3       25.5       16.8     1013.8       31.2       18.0        0.0        0.0        0.0       0.00      135.8       0.00       2.18        0.0
19:32             207       11.3         63       24.2      461.6       24.2       25.4       16.7     1013.8       31.2       18.0        0.0        0.0        0.0       0.00      136.0       0.00       2.20        0.0
19:34             207        8.0         63       24.1      461.6       24.1       25.3       16.6     1013.9       31.2       18.0        0.0        0.0        0.0       0.00      136.2       0.00       2.20        0.0
19:35             194        6.4         64       24.1      461.6       24.1       25.3       16.8     1013.9       31.2       18.0        0.0        0.0        0.0       0.00      136.5       0.00       2.20        0.0
19:38             190       11.3         64       24.0      461.6       23.2       25.3       16.8     1013.9       31.2       18.0        0.0        0.0        0.0       0.00      136.7       0.00       2.20        0.0
19:40             191       12.9         64       23.9      461.6       22.8       25.2       16.7     1014.0       31.2       18.0        0.0        0.0        0.0       0.00      137.0       0.00       2.20        0.0
19:42             208       14.5         64       23.9      461.6       23.9       25.1       16.7     1013.9       31.2       18.0        0.0        0.0        0.0       0.00      137.4       0.00       2.20        0.0
19:44             202       12.9         64       23.8      461.6       23.8       25.1       16.6     1014.1       31.2       18.0        0.0        0.0        0.0       0.00      137.7       0.00       2.20        0.0
19:46             193        9.7         65       23.8      461.6       22.9       25.1       16.8     1014.0       31.2       18.0        0.0        0.0        0.0       0.00      138.0       0.00       2.22        0.0
19:48             198        9.7         65       23.7      461.6       23.7       25.0       16.8     1013.9       31.2       18.0        0.0        0.0        0.0       0.00      138.3       0.00       2.22        0.0
19:49             213       12.9         65       23.7      461.6       23.7       25.0       16.7     1014.0       31.2       18.0        0.0        0.0        0.0       0.00      138.6       0.00       2.22        0.0
19:52             204       12.9         66       23.6      461.6       22.7       25.0       16.9     1014.0       31.2       18.0        0.0        0.0        0.0       0.00      138.9       0.00       2.22        0.0
19:54             202        8.0         66       23.6      461.6       23.6       25.0       16.9     1014.1       31.2       18.0        0.0        0.0        0.0       0.00      139.1       0.00       2.22        0.0
19:56             202        8.0         66       23.6      461.6       23.0       24.9       16.8     1014.1       31.2       18.0        0.0        0.0        0.0       0.00      139.3       0.00       2.22        0.0
19:58             203       11.3         66       23.5      461.6       23.5       24.9       16.8     1014.2       31.2       18.0        0.0        0.0        0.0       0.00      139.6       0.00       2.22        0.0
20:00             204        9.7         67       23.4      461.6       22.9       24.9       17.0     1014.2       31.2       18.0        0.0        0.0        0.0       0.00      139.9       0.00       2.22        0.0
20:01             204       11.3         67       23.4      461.6       22.9       24.9       17.0     1014.2       31.2       18.0        0.0        0.0        0.0       0.00      140.1       0.00       2.24        0.0
20:04             203       11.3         67       23.4      461.6       22.1       24.8       16.9     1014.2       31.2       18.0        0.0        0.0        0.0       0.00      140.4       0.00       2.24        0.0
20:06             201        8.0         67       23.3      461.6       22.8       24.8       16.9     1014.2       31.2       18.0        0.0        0.0        0.0       0.00      140.7       0.00       2.24        0.0
20:08             198       11.3         68       23.3      461.6       23.3       24.8       17.0     1014.2       31.2       18.0        0.0        0.0        0.0       0.00      140.9       0.00       2.24        0.0
20:10             202       11.3         68       23.2      461.6       22.3       24.7       17.0     1014.2       31.2       18.0        0.0        0.0        0.0       0.00      141.2       0.00       2.24        0.0
20:12             202        8.0         68       23.2      461.6       23.2       24.7       16.9     1014.3       31.2       18.0        0.0        0.0        0.0       0.00      141.5       0.00       2.24        0.0
20:13             202        8.0         68       23.2      461.6       23.2       24.7       16.9     1014.3       31.2       18.0        0.0        0.0        0.0       0.00      141.7       0.00       2.24        0.0
20:16             202        8.0         69       23.1      461.6       23.1       24.7       17.1     1014.4       31.2       18.0        0.0        0.0        0.0       0.00      141.9       0.00       2.25        0.0
20:18             202        8.0         69       23.1      461.6       23.1       24.6       17.1     1014.4       31.2       18.0        0.0        0.0        0.0       0.00      142.1       0.00       2.25        0.0
20:20             202        6.4         69       23.0      461.6       23.0       24.6       17.0     1014.4       31.2       18.0        0.0        0.0        0.0       0.00      142.3       0.00       2.25        0.0
20:21             199        9.7         69       22.9      461.6       22.9       24.5       17.0     1014.5       31.2       18.0        0.0        0.0        0.0       0.00      142.6       0.00       2.25        0.0
20:24             199        8.0         70       22.9      461.6       22.3       24.5       17.1     1014.5       31.2       18.0        0.0        0.0        0.0       0.00      142.8       0.00       2.25        0.0
20:26             197        9.7         70       22.8      461.6       22.3       24.5       17.1     1014.5       31.2       18.0        0.0        0.0        0.0       0.00      143.0       0.00       2.25        0.0
20:28             197        9.7         70       22.8      461.6       21.8       24.4       17.0     1014.5       31.2       18.0        0.0        0.0        0.0       0.00      143.3       0.00       2.25        0.0
20:30             198        8.0         70       22.7      461.6       22.7       24.4       17.0     1014.6       31.2       18.0        0.0        0.0        0.0       0.00      143.5       0.00       2.25        0.0
20:32             199        6.4         70       22.7      461.6       22.7       24.3       16.9     1014.6       31.2       18.0        0.0        0.0        0.0       0.00      143.8       0.00       2.26        0.0
20:34             200       12.9         71       22.7      461.6       21.7       24.4       17.1     1014.6       31.2       18.0        0.0        0.0        0.0       0.00      144.0       0.00       2.26        0.0
20:36             196       12.9         71       22.6      461.6       22.0       24.3       17.1     1014.7       31.2       18.0        0.0        0.0        0.0       0.00      144.3       0.00       2.26        0.0
20:38             197        9.7         71       22.6      461.6       21.6       24.3       17.0     1014.8       31.2       18.0        0.0        0.0        0.0       0.00      144.5       0.00       2.26        0.0
20:40             198        9.7         71       22.5      461.6       21.9       24.2       17.0     1014.9       31.2       18.0        0.0        0.0        0.0       0.00      144.8       0.00       2.26        0.0
20:42             197        9.7         72       22.4      461.6       22.4       24.2       17.2     1014.8       31.2       18.0        0.0        0.0        0.0       0.00      145.1       0.00       2.26        0.0
20:44             197       11.3         72       22.4      461.6       22.4       24.2       17.1     1014.8       31.2       18.0        0.0        0.0        0.0       0.00      145.3       0.00       2.26        0.0
20:46             197        8.0         72       22.3      461.6       21.7       24.1       17.0     1014.9       31.2       18.0        0.0        0.0        0.0       0.00      145.5       0.00       2.26        0.0
20:48             197        9.7         72       22.3      461.6       22.3       24.1       17.0     1014.8       31.2       18.0        0.0        0.0        0.0       0.00      145.7       0.00       2.26        0.0
20:50             196        9.7         72       22.3      461.6       22.3       24.1       17.0     1014.7       31.2       18.0        0.0        0.0        0.0       0.00      145.9       0.00       2.26        0.0
20:52             198       11.3         73       22.2      461.6       21.6       24.1       17.2     1014.9       31.2       18.0        0.0        0.0        0.0       0.00      146.2       0.00       2.26        0.0
20:54             198        8.0         73       22.1      461.6       21.5       24.0       17.0     1014.7       31.2       18.0        0.0        0.0        0.0       0.00      146.4       0.00       2.26        0.0
20:56             198        9.7         73       22.1      461.6       21.1       24.0       17.0     1014.8       31.2       18.0        0.0        0.0        0.0       0.00      146.7       0.00       2.26        0.0
20:58             198        9.7         74       22.1      461.6       21.1       24.0       17.2     1014.7       31.2       18.0        0.0        0.0        0.0       0.00      146.9       0.00       2.26        0.0
21:00             199       12.9         74       22.0      461.6       22.0       23.9       17.2     1014.7       31.2       18.0        0.0        0.0        0.0       0.00      147.2       0.00       2.26        0.0
21:02             199        8.0         74       21.9      461.6       21.9       23.9       17.1     1014.7       31.2       18.0        0.0        0.0        0.0       0.00      147.4       0.00       2.26        0.0
21:04             199        8.0         74       21.9      461.6       21.9       23.8       17.1     1014.8       31.2       18.0        0.0        0.0        0.0       0.00      147.6       0.00       2.26        0.0
21:06             200        8.0         74       21.8      461.6       21.2       23.7       17.0     1014.7       31.2       18.0        0.0        0.0        0.0       0.00      147.9       0.00       2.26        0.0
21:08             200        9.7         75       21.8      461.6       20.8       23.8       17.2     1014.7       31.2       18.0        0.0        0.0        0.0       0.00      148.1       0.00       2.26        0.0
21:10             200        8.0         75       21.8      461.6       21.2       23.8       17.2     1014.7       31.2       18.0        0.0        0.0        0.0       0.00      148.4       0.00       2.26        0.0
21:12             200        9.7         75       21.7      461.6       21.7       23.7       17.1     1014.6       31.2       18.0        0.0        0.0        0.0       0.00      148.6       0.00       2.26        0.0
21:14             201        9.7         76       21.7      461.6       20.6       23.7       17.3     1014.7       31.2       18.0        0.0        0.0        0.0       0.00      148.8       0.00       2.26        0.0
21:16             201        4.8         76       21.6      461.6       21.6       23.7       17.2     1014.6       31.2       18.0        0.0        0.0        0.0       0.00      148.9       0.00       2.26        0.0
21:18             200        9.7         76       21.6      461.6       21.6       23.6       17.1     1014.7       31.2       18.0        0.0        0.0        0.0       0.00      149.1       0.00       2.26        0.0
21:20             201       11.3         76       21.6      461.6       20.5       23.6       17.1     1014.8       31.2       18.0        0.0        0.0        0.0       0.00      149.3       0.00       2.26        0.0
21:22             201        1.6         76       21.5      461.6       21.5       23.6       17.1     1014.8       31.2       18.0        0.0        0.0        0.0       0.00      149.4       0.00       2.26        0.0
21:24             201        6.4         77       21.5      461.6       21.5       23.6       17.3     1014.8       31.2       18.0        0.0        0.0        0.0       0.00      149.6       0.00       2.26        0.0
21:26             202        8.0         77       21.4      461.6       21.4       23.6       17.2     1014.8       31.2       18.0        0.0        0.0        0.0       0.00      149.8       0.00       2.26        0.0
21:28             203       11.3         77       21.4      461.6       21.4       23.5       17.2     1015.0       31.2       18.0        0.0        0.0        0.0       0.00      150.0       0.00       2.26        0.0
21:30             204        8.0         77       21.3      461.6       21.3       23.5       17.1     1015.0       31.2       18.0        0.0        0.0        0.0       0.00      150.2       0.00       2.26        0.0
21:32             204        8.0         78       21.2      461.6       20.6       23.4       17.2     1014.9       31.2       18.0        0.0        0.0        0.0       0.00      150.3       0.00       2.26        0.0
21:34             205        6.4         78       21.2      461.6       21.2       23.4       17.2     1015.0       31.2       18.0        0.0        0.0        0.0       0.00      150.5       0.00       2.26        0.0
21:36             205        8.0         78       21.1      461.6       21.1       23.3       17.1     1014.9       31.2       18.0        0.0        0.0        0.0       0.00      150.8       0.00       2.26        0.0
21:38             205        9.7         79       21.1      461.6       20.0       23.4       17.3     1015.1       31.2       18.0        0.0        0.0        0.0       0.00      151.0       0.00       2.26        0.0
21:40             205        6.4         79       21.1      461.6       21.1       23.3       17.3     1015.0       31.2       18.0        0.0        0.0        0.0       0.00      151.1       0.00       2.26        0.0
21:42             205        4.8         79       21.0      461.6       21.0       23.3       17.2     1015.0       31.2       18.0        0.0        0.0        0.0       0.00      151.3       0.00       2.26        0.0
21:44             205        6.4         79       20.9      461.6       20.9       23.2       17.2     1015.0       31.2       18.0        0.0        0.0        0.0       0.00      151.4       0.00       2.26        0.0
21:46             206        8.0         80       20.9      461.6       20.9       23.2       17.3     1015.0       31.2       18.0        0.0        0.0        0.0       0.00      151.6       0.00       2.26        0.0
21:48             206        8.0         80       20.8      461.6       20.8       23.2       17.3     1015.0       31.2       18.0        0.0        0.0        0.0       0.00      151.8       0.00       2.26        0.0
21:50             206        4.8         80       20.8      461.6       20.8       23.1       17.2     1015.0       31.2       18.0        0.0        0.0        0.0       0.00      152.0       0.00       2.26        0.0
21:52             206        6.4         80       20.7      461.6       20.7       23.1       17.2     1015.0       31.2       18.0        0.0        0.0        0.0       0.00      152.1       0.00       2.26        0.0
21:53             206        4.8         81       20.7      461.6       20.7       23.1       17.3     1015.0       31.2       18.0        0.0        0.0        0.0       0.00      152.3       0.00       2.26        0.0
21:56             206        8.0         81       20.7      461.6       20.7       23.1       17.3     1014.9       31.2       18.0        0.0        0.0        0.0       0.00      152.4       0.00       2.26        0.0
21:58             207        6.4         81       20.6      461.6       20.6       23.0       17.2     1014.9       31.2       18.0        0.0        0.0        0.0       0.00      152.6       0.00       2.26        0.0
22:00             207        6.4         81       20.6      461.6       20.6       23.0       17.2     1014.7       31.2       18.0        0.0        0.0        0.0       0.00      152.8       0.00       2.26        0.0
22:02             207        6.4         82       20.5      461.6       20.5       23.0       17.3     1014.8       31.2       18.0        0.0        0.0        0.0       0.00      153.0       0.00       2.26        0.0
22:04             208        4.8         82       20.5      461.6       20.5       23.0       17.3     1014.8       31.2       18.0        0.0        0.0        0.0       0.00      153.1       0.00       2.26        0.0
22:06             208        6.4         82       20.4      461.6       20.4       22.9       17.3     1014.9       31.2       18.0        0.0        0.0        0.0       0.00      153.3       0.00       2.26        0.0
22:08             209        4.8         82       20.4      461.6       20.4       22.9       17.2     1014.8       31.2       18.0        0.0        0.0        0.0       0.00      153.5       0.00       2.26        0.0
22:10             209        8.0         82       20.4      461.6       20.4       22.9       17.2     1014.7       31.2       18.0        0.0        0.0        0.0       0.00      153.7       0.00       2.26        0.0
22:12             213        6.4         83       20.3      461.6       20.3       22.9       17.4     1014.8       31.2       18.0        0.0        0.0        0.0       0.00      153.9       0.00       2.26        0.0
22:14             214        8.0         83       20.3      461.6       19.6       22.9       17.3     1014.8       31.2       18.0        0.0        0.0        0.0       0.00      154.1       0.00       2.26        0.0
22:16             216        8.0         83       20.2      461.6       20.2       22.8       17.2     1014.8       31.2       18.0        0.0        0.0        0.0       0.00      154.3       0.00       2.26        0.0
22:18             216        8.0         83       20.2      461.6       20.2       22.8       17.2     1014.7       31.2       18.0        0.0        0.0        0.0       0.00      154.5       0.00       2.26        0.0
22:20             217        8.0         83       20.2      461.6       20.2       22.7       17.2     1014.8       31.2       18.0        0.0        0.0        0.0       0.00      154.7       0.00       2.26        0.0
22:22             217       11.3         83       20.2      461.6       19.0       22.7       17.2     1014.8       31.2       18.0        0.0        0.0        0.0       0.00      154.9       0.00       2.26        0.0
22:24             217        9.7         84       20.1      461.6       20.1       22.8       17.3     1014.9       31.2       18.0        0.0        0.0        0.0       0.00      155.2       0.00       2.26        0.0
22:26             217        4.8         84       20.1      461.6       20.1       22.7       17.3     1014.9       31.2       18.0        0.0        0.0        0.0       0.00      155.3       0.00       2.26        0.0
22:28             217        6.4         84       20.1      461.6       20.1       22.7       17.3     1014.9       31.2       18.0        0.0        0.0        0.0       0.00      155.5       0.00       2.26        0.0
22:30             217        9.7         84       20.0      461.6       20.0       22.7       17.2     1014.8       31.2       18.0        0.0        0.0        0.0       0.00      155.7       0.00       2.26        0.0
22:32             217        6.4         84       20.0      461.6       20.0       22.7       17.2     1014.9       31.2       18.0        0.0        0.0        0.0       0.00      155.8       0.00       2.26        0.0
22:34             218        0.0         84       19.9      461.6       19.9       22.6       17.2     1014.9       31.2       18.0        0.0        0.0        0.0       0.00      156.0       0.00       2.26        0.0
22:36             217        6.4         85       19.9      461.6       19.9       22.7       17.4     1014.9       31.2       18.0        0.0        0.0        0.0       0.00      156.1       0.00       2.26        0.0
22:37             217        4.8         85       19.9      461.6       19.9       22.7       17.4     1014.9       31.2       18.0        0.0        0.0        0.0       0.00      156.2       0.00       2.26        0.0
22:40             217        6.4         85       19.9      461.6       19.9       22.7       17.4     1015.0       31.2       18.0        0.0        0.0        0.0       0.00      156.4       0.00       2.26        0.0
22:42             217        4.8         85       19.9      461.6       19.9       22.7       17.4     1014.9       31.2       18.0        0.0        0.0        0.0       0.00      156.5       0.00       2.26        0.0
22:44             217        8.0         85       19.9      461.6       19.9       22.6       17.3     1014.9       31.2       18.0        0.0        0.0        0.0       0.00      156.7       0.00       2.26        0.0
22:45             217        8.0         85       19.9      461.6       19.2       22.6       17.3     1014.9       31.2       18.0        0.0        0.0        0.0       0.00      156.9       0.00       2.26        0.0
22:48             218        6.4         85       19.9      461.6       19.9       22.6       17.3     1014.8       31.2       18.0        0.0        0.0        0.0       0.00      157.1       0.00       2.26        0.0
22:49             218        8.0         85       19.9      461.6       19.9       22.6       17.3     1014.9       31.2       18.0        0.0        0.0        0.0       0.00      157.3       0.00       2.26        0.0
22:52             215        8.0         85       19.8      461.6       19.8       22.6       17.2     1014.9       31.2       18.0        0.0        0.0        0.0       0.00      157.5       0.00       2.26        0.0
22:54             215        8.0         85       19.8      461.6       19.1       22.6       17.2     1015.0       31.2       18.0        0.0        0.0        0.0       0.00      157.7       0.00       2.26        0.0
22:56             216        6.4         85       19.8      461.6       19.8       22.6       17.2     1015.0       31.2       18.0        0.0        0.0        0.0       0.00      157.9       0.00       2.26        0.0
22:58             216        6.4         85       19.8      461.6       19.8       22.6       17.2     1015.0       31.2       18.0        0.0        0.0        0.0       0.00      158.1       0.00       2.26        0.0
23:00             217        9.7         85       19.8      461.6       19.1       22.5       17.2     1015.0       31.2       18.0        0.0        0.0        0.0       0.00      158.3       0.00       2.26        0.0
23:02             217        6.4         85       19.8      461.6       19.8       22.5       17.2     1015.1       31.2       18.0        0.0        0.0        0.0       0.00      158.5       0.00       2.26        0.0
23:04             220        6.4         85       19.8      461.6       19.8       22.5       17.2     1015.1       31.2       18.0        0.0        0.0        0.0       0.00      158.7       0.00       2.26        0.0
23:06             220        8.0         85       19.8      461.6       19.8       22.5       17.2     1015.1       31.2       18.0        0.0        0.0        0.0       0.00      158.9       0.00       2.26        0.0
23:08             221        8.0         85       19.7      461.6       19.0       22.5       17.1     1015.1       31.2       18.0        0.0        0.0        0.0       0.00      159.1       0.00       2.26        0.0
23:09             223        9.7         86       19.7      461.6       18.5       22.5       17.3     1015.1       31.2       18.0        0.0        0.0        0.0       0.00      159.3       0.00       2.26        0.0
23:12             228        8.0         86       19.7      461.6       19.7       22.5       17.3     1015.1       31.2       18.0        0.0        0.0        0.0       0.00      159.5       0.00       2.26        0.0
23:14             230        6.4         86       19.7      461.6       19.7       22.5       17.3     1015.1       31.2       18.0        0.0        0.0        0.0       0.00      159.7       0.00       2.26        0.0
23:15             228        6.4         86       19.7      461.6       19.7       22.5       17.3     1015.2       31.2       18.0        0.0        0.0        0.0       0.00      159.9       0.00       2.26        0.0
23:17             226        8.0         86       19.7      461.6       19.7       22.5       17.3     1015.2       31.2       18.0        0.0        0.0        0.0       0.00      160.1       0.00       2.26        0.0
23:19             227        8.0         86       19.7      461.6       19.7       22.5       17.3     1015.2       31.2       18.0        0.0        0.0        0.0       0.00      160.3       0.00       2.26        0.0
23:22             222        8.0         86       19.6      461.6       19.6       22.4       17.2     1015.1       31.2       18.0        0.0        0.0        0.0       0.00      160.6       0.00       2.26        0.0
23:24             223        4.8         86       19.6      461.6       19.6       22.4       17.2     1015.2       31.2       18.0        0.0        0.0        0.0       0.00      160.8       0.00       2.26        0.0
23:26             221        9.7         86       19.6      461.6       18.9       22.4       17.2     1015.2       31.2       18.0        0.0        0.0        0.0       0.00      161.0       0.00       2.26        0.0
23:28             221        6.4         87       19.6      461.6       19.6       22.5       17.4     1015.2       31.2       18.0        0.0        0.0        0.0       0.00      161.2       0.00       2.26        0.0
23:30             221        4.8         87       19.6      461.6       19.6       22.4       17.3     1015.2       31.2       18.0        0.0        0.0        0.0       0.00      161.4       0.00       2.26        0.0
23:32             221        8.0         87       19.6      461.6       19.6       22.5       17.4     1015.2       31.2       18.0        0.0        0.0        0.0       0.00      161.6       0.00       2.26        0.0
23:33             221        6.4         87       19.6      461.6       19.6       22.4       17.3     1015.1       31.2       18.0        0.0        0.0        0.0       0.00      161.8       0.00       2.26        0.0
23:36             221        6.4         87       19.6      461.6       19.6       22.4       17.3     1015.2       31.2       18.0        0.0        0.0        0.0       0.00      162.0       0.00       2.26        0.0
23:38             222        6.4         87       19.6      461.6       19.6       22.4       17.3     1015.2       31.2       18.0        0.0        0.0        0.0       0.00      162.1       0.00       2.26        0.0
23:40             222        8.0         87       19.6      461.6       19.6       22.4       17.3     1015.2       31.2       18.0        0.0        0.0        0.0       0.00      162.3       0.00       2.26        0.0
23:42             222        4.8         87       19.6      461.6       19.6       22.4       17.3     1015.2       31.2       18.0        0.0        0.0        0.0       0.00      162.5       0.00       2.26        0.0
23:44             222        4.8         87       19.6      461.6       19.6       22.4       17.3     1015.2       31.2       18.0        0.0        0.0        0.0       0.00      162.7       0.00       2.26        0.0
23:46             222        8.0         87       19.6      461.6       19.6       22.4       17.3     1015.2       31.2       18.0        0.0        0.0        0.0       0.00      162.8       0.00       2.26        0.0
23:47             222        4.8         86       19.5      461.6       19.5       22.3       17.1     1015.1       31.2       18.0        0.0        0.0        0.0       0.00      163.0       0.00       2.26        0.0
23:50             222        6.4         87       19.5      461.6       19.5       22.4       17.3     1015.2       31.2       18.0        0.0        0.0        0.0       0.00      163.2       0.00       2.26        0.0
23:52             222        4.8         87       19.5      461.6       19.5       22.4       17.3     1015.1       31.2       18.0        0.0        0.0        0.0       0.00      163.3       0.00       2.26        0.0
23:54             222        6.4         87       19.5      461.6       19.5       22.4       17.3     1015.2       31.2       18.0        0.0        0.0        0.0       0.00      163.5       0.00       2.26        0.0
23:56             222        8.0         87       19.5      461.6       19.5       22.4       17.3     1015.2       31.2       18.0        0.0        0.0        0.0       0.00      163.6       0.00       2.26        0.0
23:58             222        4.8         87       19.5      461.6       19.5       22.4       17.3     1015.1       31.2       18.0        0.0        0.0        0.0       0.00      163.8       0.00       2.26        0.0